[[[{"header":{"parameterUnit":"kt","parameterCategory":2,"dx":1,"dy":1,"la1":29.285339999999998,"la2":30.599998999999997,"lo1":-89.70041500000002,"lo2":-87.6738589999976,"nx":112,"ny":82,"refTime":"2022-10-09T12:00:00:Z","depth":0,"parameterNumber":1,"parameterNumberName":"U-component_of_WINDS"},"data":[5.9891,6.1329,6.1004,5.3903,5.3684,5.2977,4.4436,4.4171,4.5714,4.5421,4.6983,0.0,0.0,0.0,0.0,0.0,0.0,0.0,0.0,3.6362,0.0,0.0,0.0,0.0,0.0,0.0,0.0,0.0,0.0,0.0,8.7768,8.8515,9.1682,9.8537,9.9113,9.9845,10.1056,10.211,10.3057,10.3946,10.3946,10.3946,10.3946,10.3946,10.3946,10.3946,10.3946,10.3946,10.3946,10.3946,10.3946,10.3946,10.3946,10.3946,10.3946,10.3946,10.3946,10.3946,10.3946,10.3946,10.3946,10.3946,10.3946,10.3946,10.3946,10.3946,10.4048,10.4404,10.4506,10.4506,10.4506,10.4506,10.4404,10.4048,10.4506,10.5056,10.5257,10.5865,10.6371,10.6222,10.6022,10.5715,10.5307,10.486,10.4557,10.4759,10.4607,10.4557,10.4759,10.5056,10.5515,10.6122,10.652,10.6767,10.7022,10.7219,10.7259,10.7259,10.7259,10.7259,10.7259,10.7259,10.7259,10.7259,10.7259,10.7259,10.7259,10.7259,10.7259,10.7259,10.7259,10.7259,5.3299,5.4663,5.4362,4.6405,4.6379,4.6263,3.8228,3.8332,4.0071,3.9706,0.0,0.0,0.0,0.0,0.0,0.0,0.0,0.0,0.0,0.0,3.9241,0.0,0.0,0.0,0.0,0.0,0.0,6.9798,7.1142,7.6733,8.8365,8.9931,9.3135,9.8825,9.9645,10.0273,10.0673,10.1731,10.2635,10.3432,10.3827,10.3946,10.3946,10.3946,10.3946,10.3946,10.3946,10.3946,10.3946,10.3946,10.3946,10.3946,10.3946,10.3946,10.3946,10.3946,10.3946,10.3946,10.3946,10.3946,10.3946,10.3946,10.3946,10.3946,10.3946,10.3946,10.4099,10.4658,10.481,10.4803,10.4955,10.5005,10.4904,10.4607,10.5056,10.5608,10.5865,10.652,10.7022,10.6825,10.6676,10.6371,10.5965,10.5565,10.525,10.4793,10.4928,10.5163,10.5314,10.5665,10.6114,10.6668,10.7063,10.7259,10.7259,10.7259,10.7259,10.7259,10.7259,10.7259,10.7259,10.7259,10.7259,10.7259,10.7259,10.7259,10.7259,10.7259,10.7259,10.7259,10.7259,10.7259,4.6675,4.6572,4.6188,3.6936,3.7095,3.8246,3.3425,3.4643,3.7143,0.0,0.0,0.0,0.0,0.0,0.0,0.0,0.0,0.0,0.0,0.0,4.1904,0.0,0.0,0.0,0.0,6.0766,6.2319,7.1843,6.9639,7.4324,8.923,9.1103,9.4103,9.9386,9.9066,9.9136,9.9942,10.0664,10.1436,10.2291,10.3376,10.394,10.394,10.3946,10.3946,10.394,10.3946,10.3946,10.3946,10.3946,10.3946,10.3946,10.3946,10.3946,10.3946,10.3946,10.3946,10.3946,10.3946,10.3946,10.3946,10.3946,10.3946,10.3946,10.3946,10.3946,10.4099,10.4658,10.4753,10.4961,10.5458,10.555,10.55,10.55,10.5443,10.565,10.6313,10.647,10.6668,10.7161,10.6924,10.6577,10.652,10.652,10.6115,10.4729,10.5045,10.57,10.6363,10.6412,10.6668,10.7152,10.7259,10.7259,10.7259,10.7259,10.7259,10.7259,10.7259,10.7259,10.7259,10.7259,10.7259,10.7259,10.7259,10.7259,10.7259,10.7259,10.7259,10.7259,10.7553,10.77,3.9548,4.1156,4.2693,3.6895,3.8135,3.9409,3.4262,3.3931,3.5386,3.7972,3.7387,0.0,0.0,0.0,0.0,0.0,0.0,4.3858,0.0,4.7002,5.3005,5.6226,5.9106,6.3011,6.8424,6.8619,7.0906,7.7076,7.6719,8.0365,9.0034,9.3069,9.6087,9.9386,9.9341,9.9703,10.0461,10.0286,10.112,10.2848,10.2731,10.2749,10.2749,10.3602,10.3545,10.2806,10.3658,10.3946,10.3946,10.3946,10.3946,10.3946,10.3946,10.3946,10.3946,10.3946,10.3946,10.3946,10.3946,10.3946,10.3946,10.3946,10.3946,10.3946,10.3946,10.3946,10.415,10.5056,10.5357,10.5458,10.6122,10.5522,10.4732,10.4338,10.3846,10.3736,10.4853,10.5377,10.596,10.7085,10.7161,10.6773,10.5795,10.6482,10.6161,10.3564,10.4121,10.4534,10.3814,10.4507,10.5329,10.5873,10.6736,10.7259,10.7259,10.7259,10.7259,10.7259,10.7259,10.7259,10.7259,10.7259,10.7259,10.7259,10.7259,10.7259,10.7259,10.7259,10.7259,10.7407,11.3031,11.5634,0.0,0.0,3.9241,3.5162,3.7626,3.9431,3.3155,3.3489,3.5386,3.6313,0.0,0.0,0.0,0.0,0.0,0.0,4.4542,4.7863,4.544,5.2712,5.9253,6.2124,6.6134,6.9258,7.0619,7.1306,7.3793,7.8843,7.9164,8.2437,9.0039,9.3984,9.7049,9.949,9.9536,9.9655,9.9841,10.0137,10.0648,10.1406,10.2181,10.2159,10.1457,10.3207,10.3094,10.1514,10.2699,10.2925,10.2479,10.3037,10.3263,10.332,10.3827,10.3946,10.3946,10.3946,10.3946,10.3946,10.3946,10.3946,10.3946,10.3946,10.3946,10.3946,10.3946,10.3946,10.4201,10.5257,10.5558,10.5643,10.5933,10.5484,10.474,10.3823,10.3323,10.3167,10.392,10.4334,10.4758,10.5514,10.6096,10.5922,10.406,10.4816,10.4837,10.2519,10.3225,10.3804,10.3051,10.363,10.4238,10.4478,10.5224,10.5631,10.5631,10.5631,10.5863,10.6445,10.6503,10.6736,10.7259,10.6736,10.6387,10.6212,10.5912,10.5107,10.406,10.6212,10.8935,11.2219,11.6674,11.8806,0.0,0.0,0.0,0.0,3.6006,3.8329,3.2135,0.0,3.7289,3.6678,0.0,3.7972,4.0413,0.0,0.0,4.2371,4.8578,5.2879,5.159,5.8032,6.3638,6.5591,7.2479,7.5652,7.1843,7.1452,7.3599,7.8792,7.9589,8.2939,9.0093,9.447,9.7621,9.949,9.9536,9.9295,9.8883,9.9945,10.0063,9.9332,10.1511,10.1777,10.0265,10.253,10.231,10.0167,10.1507,10.1345,10.0392,10.1733,10.2241,10.2354,10.3715,10.4166,10.3946,10.3946,10.4109,10.4171,10.394,10.3884,10.3946,10.3946,10.394,10.3827,10.3827,10.3715,10.3906,10.4857,10.5206,10.5168,10.5108,10.5049,10.4642,10.3468,10.3119,10.3002,10.3177,10.3235,10.3235,10.341,10.4351,10.4293,10.1675,10.2478,10.2944,10.1443,10.2373,10.3177,10.3002,10.3119,10.3235,10.3235,10.3351,10.341,10.341,10.341,10.3886,10.5049,10.5165,10.5747,10.7027,10.598,10.5224,10.4816,10.4224,10.2548,9.9943,10.4875,11.1042,11.8066,11.8539,11.8806,0.0,0.0,0.0,0.0,0.0,3.5481,0.0,0.0,0.0,5.1541,5.0695,4.9816,5.4567,5.3493,5.2712,5.5348,6.058,6.3743,6.1831,6.8815,7.4188,7.4627,7.614,7.6823,7.6043,7.5896,7.757,8.1551,8.4791,8.8481,9.2906,9.6843,9.9112,9.9536,9.9536,9.949,9.9341,9.9206,9.9517,10.0377,10.0028,9.9709,9.9394,10.0533,10.0272,9.8967,10.016,10.0505,10.0392,10.1733,10.2241,10.2467,10.4674,10.4956,10.3946,10.3946,10.4622,10.5294,10.3314,10.3207,10.3946,10.3946,10.3376,10.258,10.258,10.2152,10.1747,10.244,10.2869,10.3294,10.3685,10.3013,10.2141,10.1908,10.1036,10.057,10.1617,10.185,10.2141,10.3235,10.3642,10.2955,10.0292,10.185,10.2653,10.0233,10.1036,10.1443,10.0396,10.121,10.185,10.185,10.2828,10.341,10.341,10.341,10.3526,10.3769,10.3817,10.4351,10.5689,10.5514,10.534,10.5224,10.6096,10.5224,10.2711,10.5747,10.9637,11.4122,11.7259,11.8806,0.0,0.0,0.0,3.0634,0.0,0.0,0.0,3.7941,4.2441,5.0565,5.0598,5.1233,5.8228,5.8618,5.8374,5.9985,6.5207,6.9502,7.0622,7.448,7.7165,7.7165,7.7165,7.7165,7.7165,7.7165,7.7912,7.9754,8.4594,8.8535,9.1021,9.5873,9.8838,9.9478,9.9536,9.9536,9.9536,9.9249,9.9368,9.9726,9.9608,9.9086,9.8279,9.9678,9.9313,9.7668,9.8862,9.9031,9.858,10.0498,10.0943,10.0604,10.3144,10.332,10.2197,10.2868,10.315,10.2981,10.1683,10.1683,10.2141,10.2141,10.174,10.1288,10.1288,10.1175,10.1203,10.2035,10.2468,10.2581,10.2465,10.1966,10.1326,10.0687,9.9943,9.971,10.0396,10.0512,10.0687,10.1326,10.2169,10.2698,10.2322,10.2596,10.2382,10.1084,10.0639,10.0279,9.9594,10.0059,10.0512,10.0512,10.1094,10.1443,10.1443,10.1443,10.1734,10.2373,10.2432,10.3013,10.4293,10.4351,10.406,10.342,10.342,10.3188,10.2722,10.6283,10.9208,11.1632,11.3576,11.5264,0.0,0.0,0.0,0.0,3.1775,0.0,3.4201,3.7642,4.3076,5.0174,5.1834,5.4177,6.1302,6.3499,6.4182,6.4182,6.857,7.321,7.6677,7.7165,7.7165,7.7165,7.7165,7.7165,7.7165,7.7165,7.7165,7.7165,8.2634,8.6967,8.9242,9.4608,9.8082,9.9129,9.9361,9.9536,9.9536,9.9536,9.9295,9.8929,9.9457,9.8884,9.7558,9.9031,9.862,9.6652,9.7725,9.7555,9.6765,9.9031,9.9257,9.8459,10.1168,10.1401,10.0392,10.1507,10.1444,10.071,10.016,10.0209,10.0427,10.0329,10.011,9.999,9.999,10.0107,10.0568,10.1528,10.1909,10.1914,10.1245,10.1094,10.0861,9.9768,9.9536,9.9536,9.9536,9.9536,9.9614,9.9977,10.1262,10.2864,10.463,10.3746,10.2778,10.2778,10.1262,10.0068,10.0068,9.9705,9.9536,9.9536,9.9536,9.9536,9.9536,9.9536,9.9943,10.1036,10.1094,10.1675,10.3002,10.306,10.2606,10.185,10.057,10.0683,10.2299,10.5963,10.86,11.0279,11.1336,11.3075,0.0,0.0,0.0,0.0,3.0214,0.0,4.6942,5.001,5.3758,6.6812,7.0185,7.1454,7.3454,7.4675,7.5359,7.5359,7.5994,7.6628,7.7116,7.7165,7.7165,7.7165,7.7165,7.7165,7.7165,7.7165,7.7165,7.7165,8.143,8.6554,9.2316,9.5793,9.7631,9.7805,9.8896,9.9536,9.9536,9.9536,9.9536,9.9386,9.9044,9.8594,9.8072,9.7786,9.7304,9.6596,9.6765,9.6765,9.6708,9.8176,9.8007,9.7217,10.083,10.1401,10.0336,10.0449,10.1473,10.233,9.9678,9.9767,10.091,10.0477,9.9595,9.8741,9.8741,9.8286,9.7899,9.8473,9.9264,9.9839,9.9768,9.971,9.971,9.9536,9.9536,9.9536,9.9536,9.9536,10.0022,10.16,10.2127,10.2864,10.463,10.4797,10.463,10.463,10.3166,10.1952,10.1952,10.0504,9.9536,9.9536,9.9536,9.9536,9.9536,9.9536,9.9594,9.971,9.971,10.0292,10.1617,10.1675,10.2141,10.3177,10.1908,10.1888,10.3035,10.4166,10.6649,11.0343,11.5457,11.7969,0.0,0.0,0.0,2.7255,0.0,0.0,4.3541,4.7796,5.322,6.5183,6.8033,6.984,7.4724,7.5994,7.6482,7.7067,7.7165,7.7165,7.7165,7.7165,7.7165,7.7165,7.7165,7.7165,7.7165,7.7165,7.7165,7.7165,8.0221,8.3849,8.7926,9.2717,9.6047,9.7514,9.8095,9.878,9.9536,9.9536,9.9536,9.9536,9.902,9.8699,9.8468,9.7735,9.7266,9.7078,9.6738,9.6596,9.6652,9.7217,9.7246,9.7257,9.929,9.9305,9.8241,9.8975,9.9484,9.9578,9.8259,9.8355,9.8895,9.8656,9.8077,9.7442,9.7442,9.7616,9.7932,9.8119,9.8802,9.9536,9.9536,9.9536,9.9536,9.9536,9.9536,9.9536,9.9536,9.9536,10.0683,10.4527,10.4546,10.4714,10.7518,10.7121,10.6479,10.6479,10.4084,10.2257,10.2257,10.0639,9.9536,9.9536,9.9536,9.9536,9.9536,9.9536,9.9536,9.9536,9.9536,9.9768,10.0338,10.0338,10.0628,10.1152,10.0628,10.1137,10.2648,10.401,10.6592,11.0279,11.2624,11.3783,2.2713,0.0,0.0,0.0,0.0,0.0,4.3675,4.8178,5.3629,6.3563,6.6086,6.8229,7.3699,7.5213,7.575,7.6189,7.653,7.6776,7.6776,7.697,7.7165,7.7165,7.7165,7.7165,7.7165,7.7165,7.7215,7.7415,7.9638,8.2132,8.4656,8.9701,9.3768,9.6513,9.7268,9.8037,9.8954,9.9361,9.9536,9.9536,9.9112,9.8883,9.8745,9.7968,9.7501,9.736,9.6832,9.6738,9.7078,9.7078,9.7172,9.7474,9.8003,9.7538,9.6708,9.7668,9.7824,9.7548,9.7454,9.7548,9.7782,9.7641,9.736,9.7078,9.7078,9.7641,9.8294,9.8294,9.8894,9.9536,9.9536,9.9536,9.9672,10.0158,10.0293,10.0293,10.0293,10.0639,10.2285,10.6618,10.652,10.664,10.9724,10.9164,10.8225,10.8225,10.5644,10.3703,10.3703,10.217,10.104,10.104,10.0549,10.0293,10.0293,9.9796,9.9536,9.9536,9.9536,9.9536,9.9536,9.9536,9.9536,9.9536,9.9536,10.0639,10.2977,10.4295,10.6439,10.9241,10.9913,11.0215,0.0,0.0,0.0,3.395,3.5603,3.9466,5.3821,5.6654,5.8714,6.7158,7.0576,7.2136,7.238,7.4138,7.5261,7.4139,7.492,7.5652,7.5652,7.6531,7.7165,7.7165,7.7165,7.7165,7.7165,7.7165,7.7415,7.7915,8.0221,8.2699,8.5162,8.7797,9.0683,9.3896,9.6338,9.7572,9.7631,9.8896,9.9536,9.9536,9.9536,9.9204,9.8687,9.8294,9.7885,9.736,9.6832,9.7219,9.8119,9.8119,9.7839,9.7407,9.7417,9.7078,9.6596,9.6652,9.7266,9.8072,9.7548,9.7958,9.8653,9.8247,9.8119,9.8119,9.8119,9.8387,9.8687,9.8687,9.9112,9.9536,9.9536,9.9536,9.9977,10.1732,10.217,10.217,10.217,10.3533,10.5336,10.7161,10.7479,10.7991,10.9913,11.0177,11.0139,11.0139,10.8561,10.7297,10.7297,10.587,10.4797,10.4797,10.3191,10.217,10.217,10.0504,9.9536,9.9536,9.9536,9.9536,9.9536,9.9536,9.9536,9.9536,9.9536,10.1306,10.488,10.4922,10.5645,10.6864,10.9126,11.0215,2.5573,2.803,3.1251,3.6317,3.9789,4.4089,5.2071,5.557,5.9003,6.5809,6.7772,6.9142,7.1804,7.2917,7.3308,7.287,7.3748,7.4725,7.5506,7.5896,7.6385,7.7067,7.7165,7.7165,7.7165,7.7466,7.8312,7.9735,8.2463,8.5024,8.7162,8.9609,9.1443,9.2601,9.423,9.5873,9.7572,9.7979,9.8664,9.9536,9.9536,9.9386,9.9249,9.8745,9.8422,9.8283,9.7828,9.8015,9.8514,9.8305,9.8201,9.8283,9.8015,9.7548,9.7172,9.7501,9.7885,9.8212,9.8236,9.8514,9.8745,9.8606,9.8387,9.8165,9.8165,9.8433,9.8733,9.8733,9.9112,9.9536,9.9536,10.0414,10.1776,10.3618,10.4042,10.4042,10.4042,10.5419,10.7161,10.8947,10.8366,10.8069,10.9913,11.0215,11.0215,11.0215,10.8677,10.7518,10.7518,10.6033,10.4963,10.4963,10.4421,10.3533,10.2344,10.1688,10.0817,9.9627,9.9536,9.9536,9.9536,9.9536,9.9536,9.9536,9.9536,10.1351,10.4963,10.4963,10.6358,10.9049,10.9876,11.0215,2.7321,3.0043,3.3225,3.8977,4.3212,4.7204,5.1888,5.5251,5.8829,6.4019,6.5723,6.7262,7.0546,7.1162,7.1259,7.1696,7.2577,7.3553,7.4334,7.4773,7.5408,7.6482,7.6629,7.6825,7.7416,7.7766,7.8609,8.0272,8.2799,8.5207,8.7341,8.9653,9.1227,9.1919,9.2776,9.4172,9.6222,9.7108,9.8024,9.8838,9.9303,9.9536,9.9536,9.8975,9.8733,9.8791,9.8664,9.8802,9.902,9.8756,9.871,9.8745,9.8479,9.8061,9.7688,9.8072,9.8305,9.8433,9.8699,9.8883,9.902,9.902,9.8894,9.8618,9.8618,9.8848,9.902,9.902,9.9751,10.0459,10.0459,10.2344,10.4295,10.4839,10.5419,10.6074,10.6681,10.7739,10.8793,10.9989,10.9279,10.8831,11.0027,11.0215,11.0215,11.0215,10.9241,10.8483,10.8483,10.7479,10.6841,10.6841,10.6277,10.5419,10.4253,10.2933,10.1732,10.0549,9.9887,9.9536,9.9536,9.9536,9.9536,9.9536,9.9536,10.0996,10.4,10.463,10.6439,10.9279,10.9913,11.0215,2.8061,3.097,3.4272,4.2048,4.5871,4.8868,5.3274,5.5702,5.8169,6.2039,6.4512,6.6557,6.8512,6.8924,6.9408,7.0475,7.155,7.2282,7.2331,7.3163,7.4236,7.5457,7.5555,7.6192,7.7768,7.7916,7.8411,7.9543,8.1477,8.3696,8.6136,8.8108,8.9999,9.1919,9.1962,9.2543,9.3808,9.6164,9.7456,9.7572,9.8896,9.9536,9.9536,9.902,9.8837,9.8837,9.9295,9.9536,9.9536,9.9536,9.9204,9.8837,9.8837,9.8572,9.8212,9.8212,9.8479,9.8733,9.8837,9.9112,9.9536,9.9536,9.9536,9.9536,9.9536,9.9536,9.9536,9.9536,10.0862,10.2257,10.2257,10.486,10.7058,10.5501,10.6398,10.8108,10.9876,11.0215,11.0215,11.0215,11.0215,11.0215,11.0215,11.0215,11.0215,11.0215,11.0215,11.0215,11.0215,11.0215,11.0215,11.0215,10.8677,10.7597,10.7455,10.4401,10.2475,10.2257,10.0594,9.9614,9.9536,9.9536,9.9536,9.9536,9.9536,10.0414,10.2257,10.4084,10.5829,10.7558,10.9394,11.0215,3.273,3.7373,4.1002,4.6313,4.8162,4.9296,5.185,5.276,5.4637,5.9896,6.138,6.278,6.6106,6.7994,6.9071,6.9408,7.0381,7.1403,7.2233,7.2575,7.3256,7.4717,7.4912,7.5499,7.7072,7.756,7.8878,8.147,8.3883,8.6136,8.8196,9.0128,9.1439,9.1919,9.1962,9.2136,9.2427,9.3997,9.5757,9.7572,9.8896,9.9536,9.9536,9.9341,9.9295,9.9295,9.949,9.9536,9.9536,9.9536,9.949,9.9295,9.9295,9.902,9.8653,9.9032,9.8975,9.8837,9.9204,9.9386,9.9536,9.9536,9.9536,9.9536,9.9536,9.9536,9.9536,9.9536,10.0862,10.2257,10.2257,10.486,10.7337,10.6961,10.8249,10.9622,11.0102,11.0215,11.0215,11.0215,11.0215,11.0215,11.0215,11.0215,11.0215,11.0215,11.0215,11.0215,11.0215,11.0215,11.0215,11.0215,10.9838,10.8947,10.7637,10.6658,10.5026,10.2431,10.182,10.0951,9.9627,9.9536,9.9536,9.9536,9.9536,10.0414,10.2257,10.4084,10.5829,10.7558,10.9394,11.0215,3.1027,3.7253,4.2815,4.7277,4.8725,4.9368,5.0784,5.1428,5.3206,5.8469,5.9583,6.0828,6.5149,6.6823,6.7799,6.8286,6.9262,7.0277,7.1093,7.1583,7.2456,7.4011,7.4253,7.4838,7.6456,7.7294,7.8946,8.1783,8.4533,8.6994,8.8943,9.0871,9.1962,9.1962,9.1962,9.1962,9.1962,9.266,9.3997,9.5989,9.7792,9.8954,9.9536,9.9536,9.9536,9.9536,9.9536,9.9536,9.9536,9.9536,9.9536,9.9536,9.9536,9.9341,9.9112,9.9386,9.9295,9.9112,9.9386,9.9536,9.9536,9.9536,9.9536,9.9536,9.9536,9.9536,9.9536,9.9536,10.138,10.3448,10.3448,10.6074,10.8716,10.8716,10.947,11.0215,11.0215,11.0215,11.0215,11.0215,11.0215,11.0215,11.0215,11.0215,11.0215,11.0215,11.0215,11.0215,11.0215,11.0215,11.0215,11.0215,11.0215,10.9838,10.8793,10.7952,10.6618,10.4652,10.3873,10.2648,10.0773,10.0728,10.0383,9.9581,10.0338,10.1262,10.2257,10.4084,10.5829,10.7558,10.9394,11.0215,2.7437,3.4521,4.1954,4.6513,4.8201,4.9047,4.9935,5.0864,5.2832,5.7542,5.851,5.983,6.4318,6.5567,6.6183,6.7067,6.8184,6.9095,6.9685,7.0613,7.1828,7.3382,7.3577,7.4208,7.592,7.6876,7.8383,8.0677,8.3987,8.6628,8.8312,9.0686,9.1962,9.1962,9.1962,9.1962,9.1962,9.1962,9.2601,9.3924,9.6222,9.8082,9.9536,9.9536,9.9536,9.9536,9.9536,9.9536,9.9536,9.9536,9.9536,9.9536,9.9536,9.9536,9.9536,9.9536,9.9536,9.9536,9.9536,9.9652,9.9768,9.9594,9.9652,9.9768,9.9768,9.9652,9.9536,9.971,10.2115,10.463,10.488,10.7423,10.9913,11.0139,11.0215,11.0215,11.0215,11.0215,11.0215,11.0215,11.0215,11.0215,11.0215,11.0215,11.0215,11.0215,11.0215,11.0215,11.0215,11.0215,11.0215,11.0215,11.0215,11.0215,11.0215,10.8754,10.7755,10.7518,10.6114,10.4505,10.2735,10.2648,10.1864,10.0293,10.1556,10.2257,10.2257,10.4084,10.5747,10.7241,10.9279,11.0215,3.1408,3.6486,4.1235,4.6347,4.7759,4.808,4.9007,4.9935,5.193,5.6614,5.7568,5.8302,6.0656,6.3741,6.5939,6.6134,6.7415,6.8704,6.9631,7.0283,7.1275,7.283,7.3021,7.3654,7.5267,7.5566,7.6212,7.7644,8.2027,8.4775,8.5184,8.9471,9.1962,9.1962,9.1962,9.1962,9.1962,9.1962,9.2601,9.3924,9.5437,9.7313,9.9536,9.9536,9.9536,9.9536,9.9536,9.9536,9.9536,9.9536,9.9536,9.9536,9.9536,9.9536,9.9536,9.9536,9.9536,9.9536,9.9536,10.0175,10.0977,9.9827,10.0279,10.1152,10.1152,10.0396,9.971,10.0861,10.1912,10.3019,10.4588,10.6479,10.8366,10.9876,11.0215,11.0215,11.0215,11.0215,11.0215,11.0215,11.0215,11.0215,11.0215,11.0215,11.0215,11.0215,11.0215,11.0215,11.0215,11.0215,11.0215,11.0215,11.0215,11.0215,11.0215,10.9951,10.9126,10.7597,10.7241,10.6317,10.4546,10.4505,10.4337,10.4042,10.2864,10.2257,10.2257,10.4084,10.5088,10.546,10.8677,11.0215,2.9321,3.3834,3.8467,4.3292,4.607,4.7839,4.8763,4.9328,5.0556,5.3842,5.5222,5.67,5.9507,6.1959,6.3907,6.4934,6.6202,6.7387,6.8307,6.9163,7.0354,7.2164,7.2404,7.2897,7.4287,7.4942,7.586,7.7464,8.1254,8.4151,8.5817,8.9084,9.1222,9.1962,9.1962,9.1962,9.1962,9.1962,9.2252,9.2892,9.4215,9.5786,9.7604,9.8199,9.8896,9.9536,9.9536,9.9536,9.9536,9.9536,9.9536,9.9536,9.9536,9.9536,9.9536,9.9536,9.9536,9.9536,9.9536,9.9943,10.0396,9.971,10.0396,10.1326,10.0687,10.0512,10.057,10.0512,10.1289,10.2692,10.4505,10.6236,10.7952,10.9838,11.0215,11.0215,11.0215,11.0215,11.0215,11.0215,11.0215,11.0215,11.0215,11.0215,11.0215,11.0215,11.0215,11.0215,11.0215,11.0215,11.0215,11.0215,11.0215,11.0215,11.0215,11.0215,10.9876,10.8947,10.8908,10.8069,10.6358,10.7201,10.7241,10.6317,10.5398,10.4527,10.3661,10.546,10.6317,10.6358,10.9011,11.0215,2.7341,3.1504,3.6309,4.0472,4.4079,4.6951,4.8361,4.8725,4.911,5.0668,5.2396,5.4749,5.8462,6.0132,6.1685,6.4057,6.5181,6.6115,6.7201,6.8083,6.9333,7.1349,7.1792,7.23,7.3214,7.4281,7.5524,7.7079,8.0326,8.3322,8.5768,8.823,9.0175,9.1454,9.1512,9.1671,9.1962,9.1962,9.1962,9.1962,9.3241,9.4564,9.5844,9.6789,9.7908,9.9129,9.942,9.9536,9.9536,9.9536,9.9536,9.9536,9.9536,9.9536,9.9536,9.9536,9.9536,9.9536,9.9536,9.971,9.9989,9.9989,10.0861,10.1734,10.0989,10.1094,10.1326,10.057,10.1019,10.217,10.4379,10.5952,10.7518,10.966,11.0215,11.0215,11.0215,11.0215,11.0343,11.0665,11.0472,11.0343,11.0665,11.0472,11.0215,11.0215,11.0215,11.0215,11.0215,11.0215,11.0215,11.0215,11.0215,11.0215,11.0215,11.0215,11.0215,11.0215,11.0215,10.9546,10.8108,10.979,11.0123,10.9058,10.8599,10.7632,10.5975,10.7632,10.8085,10.7558,10.9714,11.0537,3.0062,3.3499,3.719,4.0416,4.2245,4.4,4.7032,4.7759,4.7801,4.7969,4.9543,5.2028,5.5685,5.7836,6.0394,6.427,6.4954,6.564,6.7563,6.7848,6.8511,7.0131,7.1284,7.1944,7.2096,7.3113,7.3913,7.4092,7.8398,8.1148,8.1427,8.5778,8.8821,9.0117,9.0175,9.0757,9.1962,9.1962,9.1962,9.1962,9.3241,9.4564,9.5786,9.5961,9.6615,9.785,9.9013,9.9536,9.9536,9.9536,9.9536,9.9536,9.9536,9.9536,9.9536,9.9536,9.9536,9.9536,9.9536,10.0338,10.1326,10.1326,10.2141,10.3468,10.4526,10.3246,10.1675,10.2769,10.1465,10.0549,10.4042,10.5088,10.6033,10.9394,11.0215,11.0215,11.0215,11.0215,11.0601,11.1954,11.1116,11.0628,11.1916,11.1116,11.0215,11.0215,11.0215,11.0215,11.0215,11.0215,11.0215,11.0215,11.0215,11.0215,11.0215,11.0215,11.0215,11.0215,11.0215,11.0139,10.9989,11.1427,11.2676,11.3846,11.2211,11.0666,10.9205,11.0666,11.0014,10.7558,11.0737,11.1465,2.4499,2.7945,3.1971,3.4305,3.8363,4.2377,4.4826,4.5871,4.6596,4.7439,4.8711,5.0584,5.3749,5.65,5.9406,6.2714,6.4426,6.5665,6.6734,6.6917,6.7485,6.9057,6.9658,7.0166,7.0826,7.1944,7.2605,7.2605,7.7,7.9994,8.0844,8.4687,8.7483,8.8821,8.9594,9.0233,9.0757,9.1554,9.1962,9.1962,9.2485,9.3358,9.4681,9.5437,9.644,9.7631,9.8954,9.9536,9.9536,9.9536,9.9536,9.9536,9.9536,9.9536,9.9536,9.9536,9.9536,9.9536,9.9536,9.9827,10.0454,10.121,10.2315,10.3526,10.405,10.3468,10.2548,10.2315,10.0919,10.0325,10.4,10.4963,10.6118,11.0443,11.1503,11.1722,11.256,11.2753,11.2688,11.2366,11.1851,11.14,11.1116,11.0601,11.0215,11.0215,11.0215,11.0215,11.0215,11.0215,11.0215,11.0215,11.0215,11.0215,11.0215,11.0215,11.0215,11.0215,11.0215,11.0215,11.0215,11.1632,11.2624,11.3204,11.2518,11.1845,11.1271,11.0952,11.0249,10.9164,11.0492,11.0794,2.1521,2.4423,2.8176,3.0204,3.495,3.9711,4.1928,4.321,4.4424,4.6182,4.7226,4.8924,5.2551,5.5179,5.8026,6.1799,6.4153,6.5721,6.6335,6.6385,6.6719,6.794,6.8387,6.8896,6.9658,7.0725,7.1754,7.2622,7.6241,7.9217,8.1009,8.3903,8.6105,8.7425,8.8373,8.9419,9.0582,9.1147,9.1787,9.2543,9.2136,9.2601,9.3924,9.5204,9.631,9.7152,9.878,9.9536,9.9536,9.9536,9.9536,9.9536,9.9943,9.9827,9.9536,9.9943,9.9827,9.9536,9.9536,9.9536,9.971,10.1036,10.2315,10.3468,10.3875,10.3759,10.3235,10.2257,10.0861,10.0325,10.4,10.5271,10.6862,11.1786,11.301,11.3268,11.4298,11.4491,11.4298,11.3719,11.2946,11.2173,11.1529,11.0794,11.0215,11.0215,11.0215,11.0215,11.0215,11.0215,11.0215,11.0215,11.0215,11.0215,11.0215,11.0215,11.0215,11.0215,11.0215,11.0408,11.0859,11.1825,11.256,11.2946,11.301,11.301,11.301,11.198,11.131,11.0859,11.0859,11.0859,2.3769,2.511,2.7612,3.0087,3.2667,3.5416,3.8289,3.9666,4.1016,4.3463,4.4589,4.6816,5.2274,5.37,5.6043,6.2009,6.4403,6.5844,6.6742,6.6539,6.6467,6.6823,6.793,6.8591,6.8642,6.9556,7.139,7.4394,7.6238,7.8484,8.1474,8.3293,8.4826,8.6105,8.6105,8.8006,9.1903,9.064,9.1322,9.3823,9.2543,9.2601,9.3924,9.5204,9.5786,9.5961,9.8476,9.9536,9.9536,9.9536,9.9536,9.9652,10.0977,10.0687,9.9652,10.0977,10.0628,9.9536,9.9536,9.9536,9.971,10.1036,10.2315,10.3642,10.4933,10.4409,10.341,10.341,10.1501,10.0325,10.4,10.605,10.8329,11.3257,11.4491,11.4491,11.4491,11.4491,11.4878,11.6294,11.4298,11.2817,11.4169,11.2109,11.0215,11.0215,11.0215,11.0215,11.0215,11.0215,11.0215,11.0215,11.0215,11.0215,11.0215,11.0215,11.0215,11.0215,11.0215,11.0859,11.2276,11.2366,11.301,11.4427,11.4491,11.4491,11.4491,11.4427,11.3719,11.2302,11.2302,11.2302,2.0296,2.2724,2.5888,2.7712,3.0414,3.3122,3.5004,3.7584,3.9864,4.0822,4.1762,4.3796,4.8317,5.2689,5.6723,6.0022,6.3253,6.573,6.6721,6.6782,6.6742,6.6863,6.7219,6.7422,6.7422,6.8438,6.9952,7.1994,7.4471,7.7269,8.0179,8.2009,8.3527,8.4768,8.564,8.7134,8.9286,8.9768,9.128,9.3924,9.3474,9.3474,9.3982,9.6091,9.7036,9.7094,9.878,9.9536,9.9536,9.9536,9.9536,9.9652,10.0977,10.121,10.1036,10.2315,10.249,10.2141,10.2141,10.2141,10.2373,10.3711,10.4409,10.4991,10.6271,10.5805,10.4758,10.4758,10.2897,10.1896,10.6435,10.8969,11.1257,11.5071,11.5972,11.623,11.7196,11.6681,11.6101,11.6552,11.4298,11.2495,11.2946,11.1465,11.0215,11.0215,11.0215,11.0215,11.0215,11.0215,11.0215,11.0215,11.0215,11.0215,11.0215,11.0215,11.0215,11.0215,11.0215,11.0408,11.0859,11.1787,11.256,11.301,11.301,11.301,11.301,11.2044,11.1336,11.0923,11.0923,11.0923,1.9671,2.2036,2.47,2.693,2.8276,2.9614,3.1677,3.3936,3.5889,3.6777,3.8549,4.1063,4.4523,5.1019,5.6371,5.8038,6.2242,6.5542,6.6203,6.6609,6.6863,6.6863,6.6863,6.6863,6.6863,6.7524,6.8822,7.0929,7.3418,7.6205,7.9637,8.1471,8.2984,8.409,8.4943,8.6454,8.8762,8.9071,9.0566,9.3125,9.3125,9.3691,9.4681,9.6208,9.7152,9.7631,9.8954,9.9536,9.9536,9.9536,9.9536,9.9594,10.0454,10.0745,10.0977,10.2769,10.3119,10.2769,10.3235,10.341,10.3584,10.4351,10.4933,10.5514,10.6329,10.598,10.5398,10.5398,10.4396,10.4615,11.009,11.2012,11.3406,11.6666,11.7453,11.7711,11.8613,11.7647,11.681,11.7325,11.4685,11.2495,11.3075,11.1529,11.0215,11.0215,11.0215,11.0215,11.0215,11.0215,11.0215,11.0215,11.0215,11.0215,11.0215,11.0215,11.0215,11.0215,11.0215,11.0215,11.0215,11.1116,11.1529,11.1529,11.1529,11.1825,11.2366,11.0923,11.0472,11.1052,11.0472,11.0537,2.091,2.2441,2.3932,2.7117,2.6585,2.6031,2.8946,2.961,3.0131,3.1884,3.4945,3.8085,4.0802,4.8216,5.4537,5.6165,6.1203,6.5074,6.5237,6.6152,6.6762,6.6863,6.6863,6.6863,6.6863,6.6863,6.8081,7.0984,7.2647,7.5305,7.9359,8.1317,8.2809,8.4012,8.409,8.595,8.971,8.8646,8.9286,9.1845,9.202,9.3358,9.5714,9.583,9.644,9.7631,9.8896,9.942,9.9536,9.9536,9.9536,9.9536,9.9536,9.9594,9.9943,10.249,10.2653,10.1792,10.3119,10.3584,10.3584,10.3701,10.4467,10.5514,10.5514,10.5514,10.5514,10.5659,10.6367,10.8382,11.4281,11.501,11.5027,11.8055,11.8806,11.8806,11.8806,11.7582,11.6938,11.8484,11.52,11.2688,11.4234,11.2147,11.0215,11.0215,11.0215,11.0215,11.0215,11.0215,11.0215,11.0215,11.0215,11.0215,11.0215,11.0215,11.0215,11.0215,11.0215,11.0215,11.0215,11.0215,11.0215,11.0215,11.0215,11.0859,11.2173,11.0859,11.0923,11.2173,11.0859,11.0923,1.7173,1.9493,2.2187,2.4845,2.8226,3.1124,3.1852,3.0292,2.897,2.9995,3.0766,3.2258,3.5795,4.074,4.7028,5.5449,5.9423,6.2379,6.4933,6.5491,6.5949,6.6762,6.6863,6.6863,6.6863,6.6863,6.7732,6.9691,7.1312,7.3609,7.6761,7.9456,8.1529,8.2809,8.3664,8.5078,8.6978,8.7715,8.8879,9.0466,9.2485,9.3749,9.439,9.5379,9.644,9.7572,9.7908,9.8606,9.9536,9.9536,9.9536,9.9536,9.9536,10.0117,10.121,10.2781,10.3235,10.313,10.4467,10.4933,10.5049,10.6038,10.6561,10.6852,10.6852,10.6852,10.7135,10.8558,11.1171,11.3984,11.5489,11.6755,11.7804,11.8555,11.8806,11.8806,11.8806,11.681,11.5715,11.8291,11.4427,11.1529,11.4041,11.2147,11.0215,11.0215,11.0215,11.0215,11.0215,11.0215,11.0215,11.0215,11.0215,11.0215,11.0215,11.0215,11.0215,11.0215,11.0215,11.0215,11.0215,11.0215,11.0215,11.0215,11.0215,11.0408,11.073,11.0408,11.0408,11.073,11.0408,11.0408,1.6972,2.0043,2.2551,2.2321,2.5429,2.8282,2.7343,2.6213,2.5423,2.5832,2.6803,2.9094,3.3893,3.6466,4.1173,5.1217,5.6048,5.9786,6.3192,6.4628,6.5695,6.6762,6.6863,6.6863,6.6863,6.6863,6.7267,6.8177,7.0381,7.268,7.4805,7.8452,8.1063,8.2381,8.3586,8.4826,8.6105,8.7425,8.8413,8.917,9.1729,9.3299,9.3924,9.4622,9.5917,9.7572,9.7572,9.8315,9.9536,9.9536,9.9536,9.9536,9.9536,9.9943,10.0687,10.1385,10.2024,10.2711,10.4002,10.4875,10.5514,10.6154,10.6794,10.7259,10.7259,10.7885,10.8792,10.9719,11.2835,11.6103,11.6967,11.7943,11.8806,11.8806,11.8806,11.8806,11.8806,11.7067,11.5908,11.7518,11.4234,11.1696,11.3204,11.1658,11.0215,11.0215,11.0215,11.0215,11.0215,11.0215,11.0215,11.0215,11.0215,11.0215,11.0215,11.0215,11.0215,11.0215,11.0215,11.0215,11.0215,11.0215,11.0215,11.0215,11.0215,11.0215,11.0215,11.0215,11.0215,11.0215,11.0215,11.0215,1.7783,2.1227,2.3289,2.0754,2.1825,2.3124,2.151,2.1426,2.1654,2.154,2.3532,2.6947,3.2449,3.3711,3.6665,4.5083,5.1486,5.6908,6.1216,6.3675,6.5491,6.6711,6.6863,6.6863,6.6863,6.6863,6.6985,6.7267,6.9801,7.2039,7.3669,7.7778,8.0724,8.2053,8.3469,8.471,8.5815,8.7134,8.7832,8.8064,9.0507,9.2311,9.3633,9.3633,9.487,9.7036,9.7268,9.8024,9.9245,9.942,9.9536,9.9536,9.9536,9.9536,9.9536,9.9536,10.0175,10.1326,10.2432,10.3653,10.4816,10.4991,10.5922,10.6969,10.6969,10.8375,11.0143,11.0689,11.3504,11.6653,11.8335,11.8806,11.8806,11.8806,11.8806,11.8806,11.8806,11.7647,11.6681,11.6938,11.4491,11.2469,11.2624,11.1272,11.0215,11.0215,11.0215,11.0215,11.0215,11.0215,11.0215,11.0215,11.0215,11.0215,11.0215,11.0215,11.0215,11.0215,11.0215,11.0215,11.0215,11.0215,11.0215,11.0215,11.0215,11.0215,11.0215,11.0215,11.0215,11.0215,11.0215,11.0215,1.5789,1.8688,2.1495,2.2743,2.3387,2.3821,2.4405,2.2842,2.1256,2.1256,2.1928,2.3528,2.6783,3.0227,3.406,3.8549,4.5409,5.2859,6.0727,6.2964,6.4577,6.6609,6.6863,6.6863,6.6863,6.6863,6.7457,6.8929,6.9465,7.1027,7.3971,7.6779,7.9047,8.0735,8.2966,8.4264,8.4439,8.5757,8.6959,8.8064,8.9536,9.0931,9.2252,9.2252,9.3067,9.4521,9.5612,9.6789,9.7966,9.9071,9.9536,9.9536,9.9536,9.9536,9.9536,9.9536,9.9652,9.9827,10.0059,10.0977,10.2257,10.3351,10.4584,10.5689,10.5689,10.7668,11.0749,11.4034,11.6632,11.8376,11.8725,11.8806,11.8806,11.8806,11.8806,11.8806,11.8806,11.7647,11.7003,11.8226,11.5135,11.2753,11.3912,11.1954,11.0215,11.0215,11.0215,11.0215,11.0215,11.0215,11.0215,11.0215,11.0215,11.0215,11.0215,11.0215,11.0215,11.0215,11.0215,11.0215,11.0215,11.0215,11.0215,11.0215,11.0215,11.0215,11.0215,11.0215,11.0215,11.0215,11.0215,11.0215,1.6075,1.8716,2.109,2.1329,2.2283,2.2912,2.1836,2.1305,2.0921,2.0295,2.1482,2.3697,2.6911,2.9296,3.262,3.8179,4.336,4.87,5.4649,5.9604,6.3675,6.6508,6.6863,6.6863,6.6863,6.7698,6.8574,6.9309,7.015,7.1733,7.415,7.6591,7.8706,8.0445,8.285,8.4148,8.4148,8.5466,8.6396,8.7017,8.9012,9.0292,9.0915,9.2552,9.4009,9.5249,9.6743,9.8536,10.0428,9.9987,10.0302,10.0907,9.9887,9.9536,9.9536,9.9536,9.9536,9.9536,9.9536,9.9885,10.0628,10.1908,10.3246,10.4648,10.643,10.8586,11.0925,11.27,11.5915,11.8806,11.8806,11.8806,11.8806,11.8806,11.8806,11.8806,11.8806,11.8291,11.7775,11.7647,11.5393,11.3461,11.3332,11.1632,11.0215,11.0215,11.0215,11.0215,11.0215,11.0215,11.0215,11.0215,11.0215,11.0215,11.0215,11.0215,11.0215,11.0215,11.0215,11.0215,11.0215,11.0215,11.0215,11.0215,11.0215,11.0215,11.0215,11.0215,11.0215,11.0215,11.0215,11.0215,1.7845,0.0,2.1276,2.0277,2.1558,2.2357,0.0,2.0311,2.0965,1.9752,2.119,2.3682,2.7155,2.8292,3.0847,3.7348,4.1379,4.4986,4.8683,5.555,6.1569,6.5198,6.5949,6.6203,6.6457,6.8259,6.9543,6.9932,7.1033,7.2617,7.4695,7.6515,7.8421,8.0445,8.2597,8.378,8.378,8.5001,8.5815,8.6105,8.814,8.9245,8.9635,9.2236,9.4115,9.5436,9.7329,9.957,10.1771,10.0577,10.0752,10.1621,10.0131,9.9536,9.9536,9.9536,9.9536,9.9536,9.9536,9.9536,9.9652,10.0687,10.1908,10.3401,10.5927,10.8251,11.0318,11.1369,11.4863,11.8355,11.8677,11.8806,11.8806,11.8806,11.8806,11.8806,11.8806,11.8806,11.8484,11.7325,11.5972,11.4556,11.3075,11.1658,11.0601,11.0279,11.0215,11.0215,11.0215,11.0215,11.0215,11.0215,11.0215,11.0215,11.0215,11.0215,11.0215,11.0215,11.0215,11.0215,11.0215,11.0215,11.0215,11.0215,11.0215,11.0215,11.0215,11.0215,11.0215,11.0215,11.0215,11.0215,0.0,2.2221,2.1901,2.1809,2.2796,2.3427,2.1881,2.1915,0.0,2.0588,2.0496,2.1522,2.4455,2.5698,2.7738,3.2156,3.7265,4.2022,4.5842,5.153,5.7033,6.1619,6.3154,6.4221,6.5288,6.7843,7.001,7.149,7.1679,7.3062,7.6254,7.6217,7.7471,8.0386,8.182,8.2556,8.2556,8.376,8.4943,8.6105,8.628,8.7017,8.8239,8.97,9.1222,9.2942,9.5338,9.7411,9.9095,9.9795,10.0171,10.0179,9.9735,9.9536,9.9536,9.9536,9.9536,9.9536,9.9536,9.9536,9.9536,9.9594,10.057,10.1664,10.1861,10.4531,10.8277,11.2514,11.5181,11.7132,11.8419,11.8806,11.8806,11.8806,11.8806,11.8806,11.8806,11.8806,11.8741,11.8636,11.7453,11.6037,11.4556,11.3139,11.1761,11.0408,11.0215,11.0215,11.0215,11.0215,11.0215,11.0215,11.0215,11.0215,11.0215,11.0215,11.0215,11.0215,11.0215,11.0215,11.0215,11.0215,11.0215,11.0215,11.0215,11.0215,11.0215,11.0215,11.0215,11.0215,11.0215,11.0215,2.4007,2.4531,2.3971,2.3704,2.4575,2.4881,2.2433,2.2452,2.2484,2.0774,2.1386,2.2904,2.5137,2.6886,2.9592,3.4493,3.8095,4.1649,4.5415,5.1528,5.6633,5.9214,6.3141,6.5796,6.6254,6.9045,7.1109,7.1717,7.271,7.4239,7.6465,7.6233,7.6978,7.9187,7.9725,8.0365,8.118,8.246,8.3333,8.3857,8.5389,8.6338,8.6941,9.0165,9.2445,9.4113,9.6928,9.9597,0.0,10.1082,10.1198,10.1677,10.039,9.971,9.9536,9.9536,9.9536,9.9536,9.9536,9.9536,9.9536,9.9536,9.9827,10.0279,10.0279,10.1268,10.3618,10.9364,11.3722,11.7003,11.8419,11.8806,11.8806,11.8806,11.8806,11.8806,11.8806,11.8806,11.8806,11.8806,11.6874,11.5135,11.4556,11.256,11.0859,11.0279,11.0215,11.0215,11.0215,11.0215,11.0215,11.0215,11.0215,11.0215,11.0215,11.0215,11.0215,11.0215,11.0215,11.0215,11.0215,11.0215,11.0215,11.0215,11.0215,11.0215,11.0215,11.0215,11.0215,11.0215,11.0215,11.0215,2.6258,2.6692,2.609,2.5381,2.6124,2.6208,2.2932,2.299,2.3099,2.0867,2.1731,2.348,2.5276,2.7311,3.0233,3.5056,3.7874,4.0924,4.5254,5.1051,5.5566,5.7677,6.229,6.5441,6.5796,6.9376,7.1754,7.1754,7.3764,7.5472,7.65,7.6325,7.6712,7.7908,7.8292,7.8932,7.9841,8.1121,8.2032,8.2439,8.4148,8.5156,8.5661,8.9436,9.2332,9.4457,9.7422,10.0394,10.3082,10.1779,10.1625,10.1996,10.0655,9.9858,9.9536,9.9536,9.9536,9.9536,9.9536,9.9536,9.9536,9.9536,9.9536,9.9536,9.9536,9.9536,10.069,10.6296,11.1799,11.6294,11.7711,11.8484,11.8806,11.8806,11.8806,11.8806,11.8806,11.8806,11.8806,11.8806,11.7196,11.5586,11.462,11.2882,11.131,11.0343,11.0215,11.0215,11.0215,11.0215,11.0215,11.0215,11.0215,11.0215,11.0215,11.0215,11.0215,11.0215,11.0215,11.0215,11.0215,11.0215,11.0215,11.0215,11.0215,11.0215,11.0215,11.0215,11.0215,11.0215,11.0215,11.0215,2.8164,2.8688,2.8025,2.6592,2.7325,2.7394,2.3631,2.3679,2.3715,2.096,2.1239,2.2521,2.4368,2.6307,2.8817,3.2444,3.5673,3.9593,4.5077,4.9343,5.3302,5.7088,6.0091,6.2354,6.3459,6.851,7.1717,7.1754,7.4747,7.657,7.657,7.657,7.657,7.657,7.7827,7.8525,7.8525,7.9783,8.1121,8.2381,8.2439,8.3042,8.4284,8.7105,9.0132,9.3248,9.602,9.8933,10.1766,10.1399,10.1026,10.065,10.0294,9.9902,9.9581,9.9536,9.9536,9.9536,9.9536,9.9536,9.9536,9.9536,9.9536,9.9536,9.9581,9.9581,10.0338,10.3957,10.9555,11.4774,11.623,11.7647,11.8741,11.8741,11.8701,11.8806,11.8806,11.8806,11.8806,11.8806,11.8701,11.784,11.5007,11.4491,11.3525,11.0665,11.0215,11.0215,11.0215,11.0215,11.0215,11.0215,11.0215,11.0215,11.0215,11.0215,11.0215,11.0215,11.0215,11.0215,11.0215,11.0215,11.0215,11.0215,11.0215,11.0215,11.0215,11.0215,11.0215,11.0215,11.0215,11.0215,2.8994,2.8549,2.7711,2.7746,2.806,2.7598,2.4648,2.4219,2.3715,2.096,2.1755,2.3281,2.4494,2.6905,2.9649,3.2559,3.5464,3.8714,4.2845,4.8822,5.3869,5.7019,6.1488,6.4729,6.5796,6.7326,6.9269,7.1565,7.4747,7.657,7.657,7.657,7.657,7.657,7.6977,7.7152,7.7152,7.8467,7.9747,8.1063,8.1974,8.3587,8.5875,8.7634,9.0165,9.324,9.6037,9.8425,10.0389,10.1317,10.2042,10.245,10.1037,10.092,10.1306,9.9977,9.9536,9.9536,9.9536,9.9536,9.9536,9.9536,9.9536,9.9751,10.1085,10.1483,10.2214,10.5726,10.884,11.1499,11.319,11.5457,11.726,11.726,11.8033,11.8806,11.8806,11.8806,11.8806,11.8806,11.7969,11.6681,11.4813,11.3654,11.2366,11.0472,11.0215,11.0215,11.0215,11.0215,11.0215,11.0215,11.0215,11.0215,11.0215,11.0215,11.0215,11.0215,11.0215,11.0215,11.0215,11.0215,11.0215,11.0215,11.0215,11.0215,11.0215,11.0215,11.0215,11.0215,11.0215,11.0215,3.0389,2.935,2.8374,2.8757,2.8618,2.77,2.5108,2.4489,2.3715,2.096,2.1976,2.3717,2.4989,2.7389,3.0379,3.4051,3.6366,3.9214,4.3628,5.0001,5.5172,5.7809,6.2749,6.6152,6.6812,6.6863,6.7978,7.0612,7.3837,7.5935,7.6535,7.657,7.657,7.657,7.657,7.657,7.657,7.7184,7.8193,7.9506,8.0634,8.2714,8.5583,8.7429,9.0025,9.3263,9.5518,9.7708,9.9779,10.0617,10.1624,10.2469,10.116,10.099,10.1236,10.0027,9.9536,9.9536,9.9536,9.9536,9.9536,9.9536,10.0022,10.0817,10.1908,10.2778,10.3915,10.6699,10.8085,10.9342,11.1687,11.3654,11.5071,11.565,11.6874,11.7904,11.7904,11.8355,11.8806,11.8806,11.8097,11.6874,11.4813,11.3783,11.2495,11.0537,11.0215,11.0215,11.0215,11.0215,11.0215,11.0215,11.0215,11.0215,11.0215,11.0215,11.0215,11.0215,11.0215,11.0215,11.0215,11.0215,11.0215,11.0215,11.0215,11.0215,11.0215,11.0215,11.0215,11.0215,11.0215,11.0215,3.1809,3.0555,2.9451,2.9451,2.8896,2.77,2.5108,2.4489,2.3715,2.096,2.1976,2.3824,2.5471,2.7837,3.1171,3.6044,3.805,4.0812,4.6142,5.1971,5.6572,5.8876,6.3509,6.66,6.6863,6.6863,6.7538,6.923,7.2278,7.4659,7.6077,7.643,7.657,7.657,7.657,7.657,7.657,7.6254,7.6655,7.7983,7.8843,8.091,8.4076,8.6731,8.975,9.3016,9.468,9.6912,9.9328,9.9586,10.039,10.1275,10.0941,10.063,10.0274,9.9783,9.9556,9.9536,9.9536,9.9536,9.9536,9.9536,10.0773,10.2301,10.2648,10.3873,10.5542,10.728,10.7755,10.8425,11.1404,11.2173,11.2495,11.3912,11.5393,11.6423,11.6423,11.7453,11.8419,11.8548,11.8613,11.7711,11.4942,11.4491,11.3525,11.0665,11.0215,11.0215,11.0215,11.0215,11.0215,11.0215,11.0215,11.0215,11.0215,11.0215,11.0215,11.0215,11.0215,11.0215,11.0215,11.0215,11.0215,11.0215,11.0215,11.0215,11.0215,11.0215,11.0215,11.0215,11.0215,11.0215,3.1304,2.9797,2.8618,2.8618,2.8479,2.77,2.5108,2.4489,2.3715,2.096,2.1976,2.3431,2.3824,2.8475,3.2817,3.4695,3.9272,4.3444,4.5654,5.0419,5.4834,5.7821,6.1458,6.448,6.664,6.6863,6.7538,6.923,7.1148,7.2393,7.2766,7.5179,7.657,7.657,7.657,7.657,7.657,7.65,7.6962,7.7926,7.8432,8.0548,8.4053,8.614,8.8728,9.1596,9.4296,9.5817,9.6526,9.8813,10.0539,10.1688,10.1286,10.1638,10.2093,10.0539,9.98,9.9536,9.9536,9.9536,9.9536,9.9536,10.0773,10.2778,10.5521,10.6618,10.732,10.9164,10.9622,10.9762,11.0488,11.0665,11.1052,11.2431,11.3912,11.4942,11.4942,11.52,11.5715,11.6874,11.7132,11.6552,11.4813,11.4491,11.3525,11.0665,11.0215,11.0215,11.0215,11.0215,11.0215,11.0215,11.0215,11.0215,11.0215,11.0215,11.0215,11.0215,11.0215,11.0215,11.0215,11.0215,11.0215,11.0215,11.0215,11.0215,11.0215,11.0215,11.0215,11.0215,11.0215,11.0215,3.2379,3.0623,2.9313,2.8549,2.8374,2.7851,2.5882,2.5418,2.4644,2.1919,2.296,2.4268,2.4026,2.8616,3.3328,3.5932,4.0157,4.3971,4.6592,5.0482,5.4119,5.6856,6.0508,6.3628,6.589,6.6558,6.7267,6.8097,7.0381,7.1754,7.1754,7.4819,7.657,7.657,7.657,7.657,7.657,7.6395,7.6437,7.675,7.7347,7.9324,8.2455,8.5089,8.7888,9.0767,9.3307,9.4787,9.5527,9.7041,9.8942,10.0767,10.0413,10.0986,10.1909,10.0588,9.9968,9.977,9.9563,9.9536,9.9536,9.9536,10.1336,10.3873,10.5747,10.7439,10.8985,10.9951,11.0215,11.0215,11.0215,11.0215,11.0408,11.1143,11.1954,11.2624,11.3332,11.3976,11.4942,11.6359,11.6616,11.6166,11.4749,11.4491,11.3525,11.0665,11.0215,11.0215,11.0215,11.0215,11.0215,11.0215,11.0215,11.0215,11.0215,11.0215,11.0215,11.0215,11.0215,11.0215,11.0215,11.0364,11.0476,11.0476,11.0476,11.0476,11.0476,11.029,11.0215,11.0215,11.0215,11.0215,3.3385,3.1679,3.0382,2.8931,2.8549,2.8242,2.6944,2.6632,2.5884,2.3251,2.4305,2.5623,2.5352,2.9427,3.4071,3.805,4.1243,4.4458,4.7774,5.0789,5.3492,5.5962,5.9515,6.2714,6.5079,6.6101,6.666,6.6863,6.9879,7.1754,7.1754,7.4819,7.657,7.657,7.657,7.6535,7.6465,7.6183,7.5771,7.5307,7.6249,7.7997,8.0529,8.379,8.6954,9.0045,9.2056,9.3757,9.5109,9.5334,9.6848,9.9,9.918,9.9912,10.0862,10.0448,10.0246,10.0076,9.971,9.9576,9.9627,9.9887,10.2257,10.5005,10.5295,10.766,11.0215,11.0215,11.0215,11.0215,11.0215,11.0215,11.0215,11.0215,11.0215,11.0537,11.1761,11.2882,11.4169,11.565,11.6101,11.5779,11.4363,11.4363,11.3525,11.0665,11.0215,11.0215,11.0215,11.0215,11.0215,11.0215,11.0215,11.0215,11.0215,11.0215,11.0215,11.0215,11.0215,11.0215,11.0215,11.0588,11.0811,11.0811,11.0885,11.0921,11.0921,11.0514,11.0327,11.0327,11.0252,11.0215,3.2162,3.1197,3.0486,2.9624,2.9382,2.9033,2.7725,2.7437,2.683,2.464,2.5492,2.6867,2.7584,3.2513,3.7091,3.9157,4.37,4.7117,4.7641,4.9457,5.1965,5.5315,5.6873,5.9731,6.4809,6.5441,6.5898,6.6812,6.9879,7.1754,7.1754,7.4819,7.657,7.657,7.657,7.643,7.6113,7.5984,7.5593,7.4912,7.5694,7.7362,7.9731,8.2122,8.5295,8.9111,9.0745,9.2276,9.3692,9.4916,9.5689,9.6235,9.8705,9.9562,9.9555,10.0711,10.0667,10.0112,10.0033,9.983,9.9751,10.1395,10.3234,10.5253,10.6721,10.8599,11.0215,11.0215,11.0215,11.0215,11.0215,11.0215,11.0215,11.0215,11.0215,11.0279,11.0472,11.0665,11.1245,11.2624,11.3912,11.4298,11.2882,11.3654,11.3525,11.0665,11.0215,11.0215,11.0215,11.0215,11.0215,11.0215,11.0215,11.0215,11.0215,11.0215,11.0215,11.0215,11.0215,11.0215,11.0215,11.0588,11.0811,11.0811,11.1142,11.1289,11.1289,11.0921,11.07,11.07,11.0364,11.0215,3.179,3.1516,3.1464,3.0455,3.021,3.008,2.949,2.9024,2.8206,2.6576,2.6925,2.7606,2.8117,3.2441,3.6607,3.8647,4.2652,4.587,4.7122,4.8019,5.011,5.4522,5.5951,5.8641,6.3808,6.4933,6.5745,6.6762,6.9073,7.0804,7.1717,7.3744,7.5343,7.6254,7.6254,7.6183,7.5984,7.5984,7.57,7.5164,7.5272,7.645,7.8493,8.0965,8.3791,8.6841,8.9849,9.1503,9.2211,9.3628,9.4723,9.5527,9.6848,9.8181,9.9499,9.9959,9.9742,9.939,9.9957,9.9952,10.0124,10.1713,10.3448,10.5295,10.7001,10.8754,11.0215,11.0215,11.0215,11.0215,11.0215,11.0215,11.0215,11.0215,11.0215,11.0215,11.0215,11.0215,11.0408,11.1052,11.2302,11.3075,11.2431,11.2882,11.256,11.0537,11.0215,11.0215,11.0215,11.0215,11.0215,11.0215,11.0215,11.0215,11.0215,11.0215,11.0215,11.0215,11.0215,11.029,11.0514,11.0921,11.1252,11.1471,11.2346,11.2452,11.1725,11.1847,11.1522,11.0774,11.0402,11.0215,3.133,3.1616,3.2061,3.1232,3.0966,3.0965,3.0965,3.0519,2.9778,2.8635,2.8504,2.8748,2.921,3.2606,3.6087,3.847,4.1861,4.4857,4.6635,4.7244,4.9226,5.3915,5.5323,5.7832,6.2658,6.417,6.5187,6.5949,6.8222,7.0083,7.1129,7.3265,7.4876,7.5807,7.5913,7.5984,7.5984,7.5878,7.5807,7.5736,7.5415,7.6419,7.8556,8.0719,8.3089,8.5603,8.8723,9.0473,9.1245,9.234,9.3628,9.4916,9.5302,9.6719,9.8678,9.9096,9.9096,9.8968,10.0041,10.037,10.0577,10.1944,10.3821,10.587,10.7121,10.8754,11.0215,11.0215,11.0215,11.0215,11.0215,11.0215,11.0215,11.0215,11.0215,11.0215,11.0215,11.0215,11.0215,11.0215,11.1116,11.1916,11.2302,11.2366,11.1851,11.0472,11.0215,11.0215,11.0215,11.0215,11.0215,11.0215,11.0215,11.0215,11.0215,11.0215,11.0215,11.0215,11.029,11.0476,11.0774,11.1252,11.1869,11.2447,11.3533,11.3771,11.3152,11.3054,11.2531,11.1587,11.0885,11.0514,3.0326,3.095,3.1758,3.1799,3.173,3.1647,3.1647,3.1613,3.1374,3.0693,3.0359,3.0656,3.2162,3.4554,3.7042,3.9407,4.3049,4.5822,4.6394,4.7856,5.0188,5.3655,5.4442,5.6614,6.142,6.3002,6.3701,6.3713,6.7735,6.9967,6.9708,7.3978,7.6148,7.5486,7.5807,7.5984,7.5984,7.5629,7.5842,7.6547,7.6512,7.8084,8.1069,8.1572,8.366,8.6807,8.6995,8.87,9.1181,9.1245,9.2147,9.3564,9.4916,9.556,9.5978,9.8712,9.947,9.9293,10.0724,10.1043,10.1075,10.2425,10.4835,10.74,10.7479,10.8754,11.0215,11.0215,11.0215,11.0215,11.0215,11.0215,11.0215,11.0215,11.0215,11.0215,11.0215,11.0215,11.0215,11.0215,11.0279,11.0794,11.2147,11.2366,11.1851,11.0472,11.0215,11.0215,11.0215,11.0215,11.0215,11.0215,11.0215,11.0215,11.0215,11.0215,11.0215,11.0215,11.0551,11.0774,11.0811,11.1544,11.2553,11.3772,11.421,11.5067,11.6378,11.4707,11.384,11.3705,11.2061,11.1325,2.9631,3.0191,3.0668,3.1641,3.1771,3.1689,3.1689,3.1674,3.1647,3.1374,3.0525,3.0288,3.175,3.4287,3.6902,3.9355,4.2308,4.4774,4.6176,4.7808,4.9984,5.3146,5.5179,5.7713,6.1445,6.2164,6.2456,6.2456,6.547,6.8101,6.9858,7.2217,7.4058,7.5357,7.5558,7.5629,7.5629,7.5736,7.5913,7.6196,7.6873,7.8421,8.0655,8.1667,8.3155,8.4956,8.6333,8.7476,8.8571,9.0408,9.1503,9.2145,9.4129,9.517,9.5754,9.828,9.863,9.8093,9.944,10.0449,10.1406,10.2778,10.4582,10.6454,10.7558,10.9019,11.0215,11.0215,11.0215,11.0215,11.0215,11.0215,11.0215,11.0215,11.0215,11.0215,11.0215,11.0215,11.0215,11.0215,11.0215,11.0408,11.0923,11.0988,11.0794,11.0279,11.0215,11.0215,11.0215,11.0215,11.0215,11.0215,11.0215,11.0215,11.0215,11.0215,11.0215,11.0215,11.0588,11.0921,11.1179,11.1689,11.2729,11.4243,11.5294,11.6128,11.6627,11.659,11.5644,11.3908,11.3019,11.2204,2.7752,2.9003,3.0102,3.0427,3.1137,3.1651,3.1331,3.1478,3.1673,3.1673,3.0933,3.062,3.1853,3.4432,3.6984,3.8826,4.1971,4.4689,4.6072,4.7777,5.0073,5.3359,5.5417,5.778,6.1001,6.1288,6.1288,6.1288,6.4191,6.6792,6.8604,7.0752,7.273,7.4479,7.4713,7.5049,7.545,7.5807,7.6231,7.6757,7.7744,7.9089,8.0655,8.2072,8.3113,8.3898,8.5508,8.6445,8.7025,8.8958,9.0279,9.137,9.326,9.425,9.5013,9.7367,9.7852,9.7523,9.8883,10.0168,10.1463,10.2445,10.3741,10.5081,10.6269,10.7645,10.8889,10.934,10.9469,10.9597,11.0086,11.0215,11.0215,11.0215,11.0215,11.0215,11.0215,11.0215,11.0215,11.0215,11.0215,11.0215,11.0215,11.0215,11.0215,11.0215,11.0215,11.0215,11.0215,11.0215,11.0215,11.0215,11.0215,11.0215,11.0215,11.0215,11.0252,11.0402,11.0774,11.1179,11.1544,11.2376,11.3299,11.4426,11.5784,11.6487,11.6348,11.6551,11.569,11.3936,11.3239,11.2494,2.4776,2.732,2.994,2.8199,2.9766,3.1481,3.0585,3.1013,3.1587,3.1623,3.1666,3.1887,3.268,3.5179,3.7304,3.8022,4.2225,4.5614,4.6191,4.7887,5.0447,5.4113,5.5151,5.6752,5.996,6.0244,6.0244,6.0244,6.4078,6.6274,6.5943,6.9972,7.2445,7.2836,7.3406,7.4224,7.5336,7.5807,7.6722,7.8143,7.9249,8.0268,8.1353,8.3022,8.3805,8.3864,8.4516,8.555,8.6832,8.6896,8.8571,9.1272,9.2182,9.2851,9.3594,9.59,9.7046,9.7651,9.9071,10.0383,10.1309,10.1409,10.2418,10.3616,10.3616,10.4692,10.6213,10.7629,10.808,10.8401,10.9791,11.0215,11.0215,11.0215,11.0215,11.0215,11.0215,11.0215,11.0215,11.0215,11.0215,11.0215,11.0215,11.0215,11.0215,11.0215,11.0215,11.0215,11.0215,11.0215,11.0215,11.0215,11.0215,11.0215,11.0215,11.0215,11.0402,11.0709,11.1114,11.1515,11.1811,11.3434,11.4326,11.4259,11.5502,11.6022,11.5857,11.4586,11.3914,11.39,11.2765,11.22,2.5571,2.6515,2.672,2.6931,2.767,2.8225,2.7674,2.8399,2.945,3.0621,3.0859,3.1156,3.2129,3.4663,3.7101,3.8681,4.1751,4.4457,4.5907,4.9221,5.19,5.2827,5.6495,5.9269,6.0171,5.9496,5.9308,6.0193,6.3226,6.5435,6.6274,6.9461,7.1647,7.2285,7.3399,7.4136,7.4424,7.5452,7.6897,7.8582,7.9288,8.0623,8.2443,8.3323,8.4041,8.4516,8.469,8.497,8.5421,8.648,8.8343,9.0748,9.1993,9.3276,9.4337,9.5005,9.4934,9.4723,9.6139,9.7515,9.8813,9.9838,10.1788,10.3772,10.3772,10.4794,10.602,10.6406,10.7307,10.8208,10.853,10.9469,11.0215,11.0215,11.0215,11.0215,11.0215,11.0215,11.0215,11.0215,11.0215,11.0215,11.0215,11.0215,11.0215,11.0215,11.0215,11.0215,11.0215,11.0215,11.0215,11.0215,11.0215,11.0215,11.0215,11.0476,11.021,10.9313,10.9901,10.9873,10.8897,11.0375,11.1764,11.2713,11.3916,11.4977,11.5857,11.5477,11.4828,11.3886,11.3595,11.2404,2.3169,2.3877,2.3862,2.4181,2.4649,2.5404,2.6788,2.7024,2.7542,2.9601,3.0029,3.0554,3.2258,3.4579,3.69,3.8814,4.1452,4.3868,4.5311,4.9077,5.2071,5.2889,5.5494,5.7544,5.8124,5.8343,5.88,5.9496,6.2659,6.4889,6.5634,6.8348,7.0348,7.1389,7.214,7.3005,7.401,7.4968,7.6828,7.9519,7.9911,8.1322,8.3656,8.3745,8.413,8.4748,8.4748,8.4748,8.487,8.6049,8.7736,8.9689,9.1507,9.2836,9.3759,9.3364,9.3617,9.4272,9.4465,9.5423,9.6584,9.6775,9.837,10.0284,10.0858,10.2115,10.3609,10.4732,10.5633,10.6406,10.705,10.7822,10.8438,10.8438,10.8889,10.934,10.934,10.9791,11.0215,11.0215,11.0215,11.0215,11.0215,11.0215,11.0215,11.0215,11.0215,11.0215,11.0215,11.0215,11.0215,11.0215,11.0215,11.0021,10.9404,10.9563,10.9175,10.8076,10.8439,10.85,10.7927,10.9264,10.9994,11.0228,11.1213,11.1891,11.2056,11.2056,11.1661,11.09,11.1607,11.0135,1.8735,2.0027,2.112,2.0642,2.1171,2.2695,0.0,2.567,2.5327,2.8059,2.8774,2.9722,3.2411,3.453,3.6507,3.8432,4.1171,4.3394,4.4286,4.7763,5.0966,5.2936,5.3084,5.3629,5.5111,5.7006,5.8277,5.852,6.2178,6.4431,6.4601,6.7081,6.903,7.016,7.0333,7.1489,7.3674,7.4512,7.675,8.0441,8.0785,8.2226,8.4748,8.413,8.4188,8.4748,8.4748,8.4748,8.4835,8.5597,8.6893,8.8559,9.0493,9.1548,9.194,9.1229,9.2533,9.4594,9.3435,9.3841,9.4627,9.3194,9.3692,9.511,9.6404,9.7832,9.9609,10.2316,10.3316,10.3895,10.5183,10.5698,10.5955,10.5955,10.6921,10.7822,10.7822,10.8825,10.9828,10.9957,11.0021,10.9984,11.0215,11.0215,11.0215,11.0215,11.0215,11.0215,11.0215,11.0215,11.015,10.9984,11.0021,10.9404,10.7951,10.7896,10.7615,10.6706,10.668,10.6897,10.725,10.8344,10.8309,10.7044,10.795,10.7902,10.6706,10.6706,10.6706,10.6777,10.8269,10.6625,0.0,0.0,0.0,0.0,0.0,0.0,0.0,2.0023,2.0752,2.3583,2.5214,2.6968,2.9983,3.2508,3.4931,3.7541,3.9773,4.1508,4.241,4.5034,4.7364,4.8792,5.0675,5.272,5.5009,5.5618,5.6668,5.8681,6.159,6.3737,6.4804,6.7398,6.8975,6.9298,7.0285,7.1073,7.1563,7.4746,7.7256,7.9154,8.1294,8.3203,8.4748,8.4632,8.4632,8.4748,8.4748,8.4748,8.4777,8.495,8.6725,8.9234,8.8205,8.8329,8.9067,8.9354,8.9795,9.0408,9.131,9.2472,9.34,9.1935,9.2454,9.3715,9.4002,9.4334,9.5157,9.7962,10.0454,10.2291,10.2614,10.4317,10.5955,10.5955,10.6148,10.6342,10.6342,10.6599,10.7114,10.8273,10.8466,10.8852,11.0021,11.0215,11.0215,11.0215,11.0215,11.0215,11.0215,11.0215,10.9791,10.8595,10.8466,10.7886,10.647,10.6918,10.624,10.3812,10.4287,10.3603,10.1302,10.2387,10.3348,10.3856,10.5128,10.6031,10.6706,10.6706,10.6706,10.6706,10.7055,10.5345,0.0,0.0,0.0,0.0,0.0,0.0,0.0,0.0,0.0,0.0,0.0,2.4221,2.7244,0.0,3.25,3.5388,3.7321,3.9134,4.1026,4.3475,4.5142,4.5266,4.6935,4.9055,5.1492,5.3295,5.4832,5.6088,5.9801,6.233,6.2942,6.6183,6.8028,6.8028,6.9277,7.0586,7.1783,7.3786,7.6076,7.865,8.0747,8.2428,8.3719,8.4426,8.4748,8.4748,8.4748,8.4748,8.4806,8.5265,8.6602,8.8232,8.6495,8.6841,8.8246,8.8061,8.8442,8.9022,8.9022,9.0408,9.1988,9.0523,9.1543,9.3265,9.3265,9.3265,9.3715,9.5878,9.7556,9.8779,9.9552,10.1291,10.2836,10.2836,10.3866,10.4861,10.4861,10.544,10.6148,10.6857,10.6985,10.7436,10.8852,10.8567,10.831,10.9082,10.8567,10.8374,10.9082,10.8567,10.7279,10.5219,10.4961,10.4704,10.3931,10.3608,10.3432,10.3604,10.2976,10.1732,9.9593,10.0574,10.1424,10.1974,10.2984,10.3006,10.2013,10.2858,10.2435,10.0935,10.1661,10.0394,0.0,0.0,0.0,0.0,0.0,0.0,0.0,0.0,0.0,0.0,0.0,0.0,0.0,0.0,0.0,3.2767,3.4998,3.7241,3.9711,4.1766,4.2814,4.2232,4.3696,4.5533,4.7685,5.0866,5.2904,5.316,5.7701,6.0546,6.0767,6.451,6.669,6.669,6.7939,6.9672,7.192,7.2735,7.4801,7.8155,7.9865,0.0,8.2267,8.3654,8.4327,8.4362,8.4619,8.4748,8.4806,8.5512,8.6264,8.6689,8.5484,8.6027,8.7467,8.6774,8.7189,8.8026,8.6867,8.7961,8.9669,8.7947,8.917,9.1319,9.1607,9.1928,0.0,9.4465,9.5238,9.572,9.6879,9.82,9.9328,9.9328,10.0969,10.2608,10.2608,10.3702,10.4797,10.5118,10.5376,10.5955,10.7436,10.6277,10.5569,10.6728,10.6342,10.6148,10.6792,10.6342,10.499,10.245,10.2227,10.2163,10.1944,10.0139,10.0308,10.3565,10.1146,9.885,9.7308,9.7964,9.8243,9.809,9.8972,9.867,9.6965,9.8514,9.7929,9.5444,9.2811,9.0819,0.0,0.0,0.0,0.0,0.0,0.0,0.0,0.0,0.0,0.0,0.0,0.0,0.0,0.0,0.0,0.0,3.382,3.6736,3.7886,3.8253,3.8835,3.9915,4.2789,4.5296,4.6679,4.9064,5.0991,5.217,5.5909,5.8569,5.9811,6.3335,0.0,0.0,0.0,6.7913,6.9258,7.2824,7.5348,7.6855,7.9288,8.0584,8.0786,8.2202,8.2846,8.291,8.4169,8.4748,8.4777,8.4864,8.4979,8.5058,8.5709,8.5614,8.5179,8.4999,8.5099,8.5228,8.5006,0.0,0.0,8.2432,8.2706,8.4252,8.5546,8.6747,8.8582,9.2473,9.4465,9.5495,9.5656,9.675,9.778,9.778,9.8038,9.8295,9.8295,9.9423,10.081,10.2098,10.3223,10.4475,10.5955,10.406,10.242,10.2549,10.451,10.5118,10.2871,10.4575,10.5312,10.3702,10.3574,0.0,10.2285,9.8535,9.7826,10.1375,9.6473,9.2164,8.9125,8.911,8.8775,8.7939,8.9399,9.1885,9.5304,9.6895,9.7458,9.6684,7.8921,7.343,0.0,0.0,0.0,0.0,0.0,0.0,0.0,0.0,0.0,0.0,0.0,0.0,0.0,0.0,0.0,0.0,2.9582,3.234,3.3492,3.5086,3.6551,3.7613,4.014,4.2249,4.3558,4.6401,4.8893,5.0838,5.3772,5.5996,5.7246,6.0859,6.2849,6.2849,6.5475,6.7411,6.8693,7.1769,7.3991,7.5277,7.8024,7.936,7.9397,8.0722,8.1365,8.143,8.2009,8.2717,8.3518,8.4082,8.4488,8.4548,0.0,0.0,0.0,0.0,8.404,8.4748,8.4748,8.5292,8.5684,8.3653,8.4046,8.5003,8.3889,8.4017,8.5221,8.8583,9.0022,9.1052,9.3564,9.5302,9.63,9.63,9.6943,9.7587,9.7587,9.8071,9.8651,9.923,9.981,0.0,10.0999,10.084,10.0874,10.1712,10.2871,10.3416,10.3029,10.3351,10.2707,10.0419,10.0162,10.0074,9.9765,9.7339,0.0,0.0,0.0,9.5508,9.4389,9.4117,0.0,0.0,0.0,8.5608,8.559,8.1737,0.0,0.0,7.1756,6.8446,0.0,0.0,0.0,0.0,0.0,0.0,0.0,0.0,0.0,0.0,0.0,0.0,0.0,0.0,0.0,0.0,2.5684,2.8509,2.9469,3.2244,3.4407,3.5072,3.7586,3.9575,4.0306,4.3382,4.6402,4.9042,5.1554,5.3592,5.5049,5.8328,6.0233,6.0233,6.3394,6.5865,6.7503,6.9964,7.1981,7.3705,7.5791,7.6783,7.6847,7.8174,7.8791,7.8791,7.9177,7.9977,8.097,8.1613,8.2322,8.2717,7.9295,7.878,8.0105,8.1136,8.2395,8.3526,8.3168,8.3454,8.3869,8.2782,8.3389,8.4255,8.2524,8.2331,8.3168,8.5579,8.6287,8.7189,9.1117,9.292,9.3886,9.4626,9.5656,9.6428,9.6428,9.6686,9.7008,9.7008,9.6364,9.6042,9.6879,9.8046,9.9313,10.0348,10.1189,10.1866,10.2448,10.2143,10.1068,9.8973,9.8779,9.8754,9.8701,9.6659,9.6752,9.9999,9.8139,9.7359,9.8496,9.6792,9.5489,9.4778,8.686,8.0822,0.0,0.0,0.0,0.0,0.0,0.0,0.0,0.0,0.0,0.0,0.0,0.0,0.0,0.0,0.0,0.0,0.0,0.0,0.0,0.0,0.0,0.0,0.0,0.0,2.675,2.9868,3.2175,3.2201,3.5799,3.8044,3.7315,4.0083,4.3306,4.668,4.923,5.1569,5.3749,5.6279,5.767,5.767,5.9843,6.2272,6.4864,6.7093,6.9485,7.216,7.2289,7.2289,7.2353,7.377,7.4478,7.4542,7.5946,7.6551,7.6616,7.6642,7.748,7.8587,7.7067,7.7325,7.8587,7.8651,7.9461,8.04,7.9166,7.784,7.668,7.668,7.7647,7.9038,8.017,8.1494,8.291,8.4391,8.4813,8.5485,8.8412,8.9215,8.9893,9.2726,9.3435,9.3435,9.3435,9.4529,9.5463,9.5463,9.3242,9.2276,9.5012,9.63,9.6962,9.7121,9.9413,0.0,9.9444,10.0777,10.1841,10.1712,10.1712,10.1441,10.0687,9.6751,9.5208,9.7358,9.4492,9.4049,9.6973,9.1849,8.8274,8.6683,8.3042,7.8129,7.2124,0.0,0.0,0.0,0.0,0.0,0.0,0.0,0.0,0.0,0.0,0.0,0.0,0.0,0.0,0.0,0.0,0.0,0.0,0.0,0.0,0.0,0.0,0.0,0.0,2.7005,2.9595,3.0232,3.2058,3.3487,3.4128,3.6386,3.9777,4.4545,4.6232,4.8712,5.2509,5.4719,5.6222,5.7145,6.0025,6.2009,6.2935,6.5312,6.6922,6.7871,6.9802,7.0704,7.0768,7.216,7.2804,7.2868,7.3344,7.4117,7.4954,7.4954,7.3602,7.1501,7.1927,7.3022,7.4374,7.534,7.5984,7.6409,7.6912,7.6809,7.6229,7.5276,7.5276,7.5598,7.5057,7.5958,7.7568,7.9977,8.1945,8.3812,8.5678,8.6867,8.7575,8.7609,8.7609,8.7609,8.7609,8.8734,9.0022,9.0988,8.8154,8.4906,8.316,8.8518,9.1984,8.8941,9.5647,10.1209,10.1447,10.2259,10.238,10.1404,10.0801,10.0115,9.9321,9.7108,9.6153,9.7292,9.5292,9.4818,9.6433,9.4531,9.2524,9.059,8.9353,8.0681,6.4151,0.0,0.0,0.0,0.0,0.0,0.0,0.0,0.0,0.0,0.0,0.0,0.0,0.0,0.0,0.0,0.0,0.0,0.0,0.0,0.0,0.0,0.0,0.0,0.0,0.0,0.0,2.8788,2.9359,0.0,3.0867,3.254,3.5707,4.0892,4.2208,4.5017,5.0136,5.1662,5.3456,5.601,5.8474,6.0239,6.1291,6.3203,6.4458,6.4995,6.6799,6.7677,6.7742,6.9158,6.9802,6.9802,6.9802,7.0382,7.1219,7.1219,6.8708,6.4908,6.5788,6.6431,6.7011,6.8942,7.0358,7.1477,7.3433,7.4464,7.4657,7.3215,7.1372,6.9616,6.8742,6.8419,6.9147,7.2992,7.5675,7.8291,8.2202,8.3905,8.4613,8.4713,8.4748,8.4748,8.4748,8.5099,8.5543,8.6082,8.4305,8.1458,7.747,8.2301,8.6315,8.5094,9.1106,9.7364,10.1806,10.1981,10.1375,10.0394,9.9479,9.8629,9.789,9.6913,9.6284,9.5911,9.5526,9.515,9.4668,9.4685,9.2557,8.7823,8.6646,7.7302,0.0,0.0,0.0,0.0,0.0,0.0,0.0,0.0,0.0,0.0,0.0,0.0,0.0,0.0,0.0,0.0,0.0,0.0,0.0,0.0,0.0,0.0,0.0,0.0,0.0,0.0,0.0,2.7856,2.7816,0.0,0.0,0.0,0.0,3.5599,3.7133,4.0533,4.665,4.7048,4.9281,5.3935,5.5027,5.6906,5.9723,6.0668,6.1861,6.3256,6.3385,6.3449,6.3513,6.4995,6.5639,6.5639,6.5639,6.5639,6.5575,6.5188,6.2655,5.8964,5.888,5.8063,5.7162,5.9994,6.2719,6.5404,6.8409,7.0341,7.1179,6.9697,6.5664,6.1293,6.1259,5.9397,0.0,0.0,6.6269,6.937,7.7582,7.9848,8.0685,8.3554,8.4262,8.4298,8.4298,8.3297,8.1964,8.0523,8.1159,8.0673,7.6545,0.0,7.9447,8.4242,8.5543,8.971,10.0046,9.9971,9.8956,9.889,9.802,9.7175,9.6297,9.6262,9.5273,9.3193,9.4831,9.4575,9.1718,9.1803,8.7593,7.8552,7.5136,0.0,0.0,0.0,0.0,0.0,0.0,0.0,0.0,0.0,0.0,0.0,0.0,0.0,0.0,0.0,0.0,0.0,0.0,0.0,0.0,0.0,0.0,0.0,0.0,0.0,0.0,2.1859,2.4428,2.5668,2.5295,2.427,0.0,0.0,0.0,0.0,0.0,0.0,4.0023,4.2015,4.4988,4.9377,5.1345,5.3154,5.4989,5.6177,5.7439,5.8856,6.096,6.199,6.2054,6.4522,6.5124,6.4158,6.5253,6.5124,6.3707,5.8445,5.5674,5.456,5.3493,5.2903,5.2881,5.4662,5.517,5.5715,6.0744,6.202,6.1137,5.9732,5.8281,5.6355,5.204,0.0,0.0,0.0,0.0,6.1505,6.6901,7.0539,7.3543,7.6526,7.7881,7.8522,7.8522,7.9102,7.7377,6.9927,6.7856,6.4783,5.6672,6.058,0.0,6.6743,7.6938,8.6958,9.3776,9.7846,9.9716,9.8657,9.701,9.5593,9.4522,9.37,9.3094,9.2701,9.1096,9.0076,9.0029,8.3272,7.7685,7.3711,0.0,0.0,0.0,0.0,0.0,0.0,0.0,0.0,0.0,0.0,0.0,0.0,0.0,0.0,0.0,0.0,0.0,0.0,0.0,0.0,0.0,0.0,0.0,0.0,0.0,0.0,0.0,1.9021,2.1805,2.2964,2.1976,2.0636,0.0,0.0,0.0,0.0,0.0,0.0,0.0,0.0,0.0,4.3732,4.5166,4.7226,4.9967,5.1757,5.3318,5.478,5.7427,5.8727,5.8791,6.0981,6.1882,6.1689,6.1882,6.0465,5.7696,5.3787,5.0261,4.7313,0.0,0.0,0.0,0.0,4.6226,4.6368,5.146,5.3253,5.2902,5.0718,0.0,0.0,0.0,0.0,0.0,0.0,0.0,5.5427,6.158,6.6729,7.0845,7.328,7.4299,7.4706,7.4831,7.0944,6.5926,6.056,5.8496,5.5193,4.7449,5.0599,0.0,0.0,0.0,8.0734,8.9083,9.5424,9.8839,9.8037,9.625,9.4645,9.3555,9.2061,9.0754,8.977,8.8101,8.5415,8.168,7.6083,6.9186,0.0,0.0,0.0,0.0,0.0,0.0,0.0,0.0,0.0,0.0,0.0,0.0,0.0,0.0,0.0,0.0,0.0,0.0,0.0,0.0,0.0,0.0,0.0,0.0,0.0,0.0,0.0,0.0,0.0,1.9182,2.0125,0.0,0.0,0.0,0.0,0.0,0.0,0.0,0.0,0.0,0.0,0.0,0.0,0.0,3.9931,4.4109,4.633,4.8287,5.0016,5.22,5.3372,5.3584,5.5094,5.6602,5.7806,5.5443,0.0,5.0051,4.9068,0.0,0.0,0.0,0.0,0.0,0.0,0.0,0.0,0.0,0.0,0.0,0.0,0.0,0.0,0.0,0.0,0.0,0.0,0.0,0.0,0.0,0.0,6.807,6.9898,7.0733,7.0834,6.9791,6.058,5.2356,5.1813,5.0817,4.8435,0.0,0.0,0.0,0.0,0.0,0.0,8.4967,9.2671,9.7189,9.7391,9.554,9.4005,9.3121,9.0764,8.8415,8.6212,8.4725,7.999,7.1088,6.9432,0.0,0.0,0.0,0.0,0.0,0.0,0.0,0.0,0.0,0.0,0.0,0.0,0.0,0.0,0.0,0.0,0.0,0.0,0.0,0.0,0.0,0.0,0.0,0.0,0.0,0.0,0.0,0.0,0.0,0.0,0.0,0.0,0.0,0.0,0.0,0.0,0.0,0.0,0.0,0.0,0.0,0.0,0.0,0.0,0.0,0.0,0.0,0.0,0.0,0.0,4.2347,4.3642,4.5011,4.7617,4.9559,5.0394,4.3111,4.2169,4.5323,3.94,0.0,0.0,0.0,0.0,0.0,0.0,0.0,0.0,0.0,0.0,0.0,0.0,0.0,0.0,0.0,0.0,0.0,0.0,0.0,0.0,0.0,0.0,5.3701,5.6344,6.051,6.1641,5.3782,0.0,0.0,0.0,0.0,0.0,0.0,0.0,0.0,0.0,0.0,0.0,7.9072,8.9219,9.6111,9.7256,9.4708,9.2832,9.2629,8.8647,8.6048,8.5774,7.8084,7.1737,0.0,0.0,0.0,0.0,0.0,0.0,0.0,0.0,0.0,0.0,0.0,0.0,0.0,0.0,0.0,0.0,0.0,0.0,0.0,0.0,0.0,0.0,0.0,0.0,0.0,0.0,0.0,0.0,0.0,0.0,0.0,0.0,0.0,0.0,0.0,0.0,0.0,0.0,0.0,0.0,0.0,0.0,0.0,0.0,0.0,0.0,0.0,0.0,0.0,0.0,0.0,0.0,0.0,0.0,0.0,0.0,0.0,0.0,3.7718,3.4961,0.0,0.0,0.0,0.0,0.0,0.0,0.0,0.0,0.0,0.0,0.0,0.0,0.0,0.0,0.0,0.0,0.0,0.0,0.0,0.0,0.0,0.0,0.0,0.0,0.0,0.0,0.0,0.0,0.0,0.0,0.0,0.0,0.0,0.0,0.0,0.0,0.0,0.0,0.0,0.0,7.4223,8.73,9.5903,9.5808,9.4677,9.2796,9.0097,8.6789,8.2533,7.7076,7.111,0.0,0.0,0.0,0.0,0.0,0.0,0.0,0.0,0.0,0.0,0.0,0.0,0.0,0.0,0.0,0.0,0.0,0.0,0.0,0.0,0.0,0.0,0.0,0.0,0.0,0.0,0.0,0.0,0.0,0.0,0.0,0.0,0.0,0.0,0.0,0.0,0.0,0.0,0.0,0.0,0.0,0.0,0.0,0.0,0.0,0.0,0.0,0.0,0.0,0.0,0.0,0.0,0.0,0.0,0.0,0.0,0.0,0.0,0.0,3.2804,2.8755,0.0,0.0,0.0,0.0,0.0,0.0,0.0,0.0,0.0,0.0,0.0,0.0,0.0,0.0,0.0,0.0,0.0,0.0,0.0,0.0,0.0,0.0,0.0,0.0,0.0,0.0,0.0,0.0,0.0,0.0,0.0,0.0,0.0,0.0,0.0,0.0,0.0,0.0,0.0,0.0,7.1158,8.5854,9.5272,9.436,9.4322,9.2452,8.7847,8.5213,7.9371,6.905,6.4726,0.0,0.0,0.0,0.0,0.0,0.0,0.0,0.0,0.0,0.0,0.0,0.0,0.0,0.0,0.0,0.0,0.0,0.0,0.0,0.0,0.0,0.0,0.0,0.0,0.0,0.0,0.0,0.0,0.0,0.0,0.0,0.0,0.0,0.0,0.0,0.0,0.0,0.0,0.0,0.0,0.0,0.0,0.0,0.0,0.0,0.0,0.0,0.0,0.0,0.0,0.0,0.0,0.0,0.0,0.0,0.0,0.0,0.0,0.0,0.0,0.0,0.0,0.0,0.0,0.0,0.0,0.0,0.0,0.0,0.0,0.0,0.0,0.0,0.0,0.0,0.0,0.0,0.0,0.0,0.0,0.0,0.0,0.0,0.0,0.0,0.0,0.0,0.0,0.0,0.0,0.0,0.0,0.0,0.0,0.0,0.0,0.0,0.0,0.0,0.0,0.0,7.1331,8.4189,9.302,9.4155,9.2426,9.0169,8.7714,8.4158,7.8122,6.8825,0.0,0.0,0.0,0.0,0.0,0.0,0.0,0.0,0.0,0.0,0.0,0.0,0.0,0.0,0.0,0.0,0.0,0.0,0.0,0.0,0.0,0.0,0.0,0.0,0.0,0.0,0.0,0.0,0.0,0.0,0.0,0.0,0.0,0.0,0.0,0.0,0.0,0.0,0.0,0.0,0.0,0.0,0.0,0.0,0.0,0.0,0.0,0.0,0.0,0.0,0.0,0.0,0.0,0.0,0.0,0.0,0.0,0.0,0.0,0.0,0.0,0.0,0.0,0.0,0.0,0.0,0.0,0.0,0.0,0.0,0.0,0.0,0.0,0.0,0.0,0.0,0.0,0.0,0.0,0.0,0.0,0.0,0.0,0.0,0.0,0.0,0.0,0.0,0.0,0.0,0.0,0.0,0.0,0.0,0.0,0.0,0.0,0.0,0.0,0.0,0.0,0.0,6.7371,8.1432,9.0948,9.1538,9.1565,8.9939,8.5865,8.3712,7.6477,6.2017,0.0,0.0,0.0,0.0,0.0,0.0,0.0,0.0,0.0,0.0,0.0,0.0,0.0,0.0,0.0,0.0,0.0,0.0,0.0,0.0,0.0,0.0,0.0,0.0,0.0,0.0,0.0,0.0,0.0,0.0,0.0,0.0,0.0,0.0,0.0,0.0,0.0,0.0,0.0,0.0,0.0,0.0,0.0,0.0,0.0,0.0,0.0,0.0,0.0,0.0,0.0,0.0,0.0,0.0,0.0,0.0,0.0,0.0,0.0,0.0,0.0,0.0,0.0,0.0,0.0,0.0,0.0,0.0,0.0,0.0,0.0,0.0,0.0,0.0,0.0,0.0,0.0,0.0,0.0,0.0,0.0,0.0,0.0,0.0,0.0,0.0,0.0,0.0,0.0,0.0,0.0,0.0,0.0,0.0,0.0,0.0,0.0,0.0,0.0,0.0,0.0,0.0,6.4779,7.9459,8.9453,8.9789,9.0403,8.898,8.4555,8.3311,7.527,5.7473,0.0,0.0,0.0,0.0,0.0,0.0,0.0,0.0,0.0,0.0,0.0,0.0,0.0,0.0,0.0,0.0,0.0,0.0,0.0,0.0,0.0,0.0,0.0,0.0,0.0,0.0,0.0,0.0,0.0,0.0,0.0,0.0,0.0,0.0,0.0,0.0,0.0,0.0,0.0,0.0,0.0,0.0,0.0,0.0,0.0,0.0,0.0,0.0,0.0,0.0,0.0,0.0,0.0,0.0,0.0,0.0,0.0,0.0,0.0,0.0,0.0,0.0,0.0,0.0,0.0,0.0,0.0,0.0,0.0,0.0,0.0,0.0,0.0,0.0,0.0,0.0,0.0,0.0,0.0,0.0,0.0,0.0,0.0,0.0,0.0,0.0,0.0,0.0,0.0,0.0,0.0,0.0,0.0,0.0,0.0,0.0,0.0,0.0,0.0,0.0,0.0,0.0,6.499,7.8884,8.8684,8.9676,8.856,8.6735,8.4353,8.289,7.4619,0.0,0.0,0.0,0.0,0.0,0.0,0.0,0.0,0.0,0.0,0.0,0.0,0.0,0.0,0.0,0.0,0.0,0.0,0.0,0.0,0.0,0.0,0.0,0.0,0.0,0.0,0.0,0.0,0.0,0.0,0.0,0.0,0.0,0.0,0.0,0.0,0.0,0.0,0.0,0.0,0.0,0.0,0.0,0.0,0.0,0.0,0.0,0.0,0.0,0.0,0.0,0.0,0.0,0.0,0.0,0.0,0.0,0.0,0.0,0.0,0.0,0.0,0.0,0.0,0.0,0.0,0.0,0.0,0.0,0.0,0.0,0.0,0.0,0.0,0.0,0.0,0.0,0.0,0.0,0.0,0.0,0.0,0.0,0.0,0.0,0.0,0.0,0.0,0.0,0.0,0.0,0.0,0.0,0.0,0.0,0.0,0.0,0.0,0.0,0.0,0.0,0.0,0.0,6.1356,7.2079,8.085,8.6218,8.7287,8.6513,8.3741,8.2629,7.4834,5.8072,0.0,0.0,0.0,0.0,0.0,0.0,0.0,0.0,0.0,0.0,0.0,0.0,0.0,0.0,0.0,0.0,0.0,0.0,0.0,0.0,0.0,0.0,0.0,0.0,0.0,0.0,0.0,0.0,0.0,0.0,0.0,0.0,0.0,0.0,0.0,0.0,0.0,0.0,0.0,0.0,0.0,0.0,0.0,0.0,0.0,0.0,0.0,0.0,0.0,0.0,0.0,0.0,0.0,0.0,0.0,0.0,0.0,0.0,0.0,0.0,0.0,0.0,0.0,0.0,0.0,0.0,0.0,0.0,0.0,0.0,0.0,0.0,0.0,0.0,0.0,0.0,0.0,0.0,0.0,0.0,0.0,0.0,0.0,0.0,0.0,0.0,0.0,0.0,0.0,0.0,0.0,0.0,0.0,0.0,0.0,0.0,0.0,0.0,0.0,0.0,0.0,0.0,0.0,7.1124,8.0008,8.483,8.5718,8.5217,8.3375,8.1704,7.4068,5.8362,0.0,0.0,0.0,0.0,0.0,0.0,0.0,0.0,0.0,0.0,0.0,0.0,0.0,0.0,0.0,0.0,0.0,0.0,0.0,0.0,0.0,0.0,0.0,0.0,0.0,0.0,0.0,0.0,0.0,0.0,0.0,0.0,0.0,0.0,0.0,0.0,0.0,0.0,0.0,0.0,0.0,0.0,0.0,0.0,0.0,0.0,0.0,0.0,0.0,0.0,0.0,0.0,0.0,0.0,0.0,0.0,0.0,0.0,0.0,0.0,0.0,0.0,0.0,0.0,0.0,0.0,0.0,0.0,0.0,0.0,0.0,0.0,0.0,0.0,0.0,0.0,0.0,0.0,0.0,0.0,0.0,0.0,0.0,0.0,0.0,0.0,0.0,0.0,0.0,0.0,0.0,0.0,0.0,0.0,0.0,0.0,0.0,0.0,0.0,0.0,0.0,0.0,0.0,7.4299,8.3818,8.4988,8.3943,8.317,8.3034,8.0373,7.2546,5.8294,5.3916,0.0,0.0,0.0,0.0,0.0,0.0,0.0,0.0,0.0,0.0,0.0,0.0,0.0,0.0,0.0,0.0,0.0,0.0,0.0,0.0,0.0,0.0,0.0,0.0,0.0,0.0,0.0,0.0,0.0,0.0,0.0,0.0,0.0,0.0,0.0,0.0,0.0,0.0,0.0,0.0,0.0,0.0,0.0,0.0,0.0,0.0,0.0,0.0,0.0,0.0,0.0,0.0,0.0,0.0,0.0,0.0,0.0,0.0,0.0,0.0,0.0,0.0,0.0,0.0,0.0,0.0,0.0,0.0,0.0,0.0,0.0,0.0,0.0,0.0,0.0,0.0,0.0,0.0,0.0,0.0,0.0,0.0,0.0,0.0,0.0,0.0,0.0,0.0,0.0,0.0,0.0,0.0,0.0,0.0,0.0,0.0,0.0,0.0,0.0,0.0,0.0,0.0,6.961,7.5997,8.1746,8.289,8.2693,8.1533,7.9194,7.208,5.8676,5.374,0.0,0.0,0.0,0.0,0.0,0.0,0.0,0.0,0.0,0.0,0.0,0.0,0.0,0.0,0.0,0.0,0.0,0.0,0.0,0.0,0.0,0.0,0.0,0.0,0.0,0.0,0.0,0.0,0.0,0.0,0.0,0.0,0.0,0.0,0.0,0.0,0.0,0.0,0.0,0.0,0.0,0.0,0.0,0.0,0.0,0.0,0.0,0.0,0.0,0.0,0.0,0.0,0.0,0.0,0.0,0.0,0.0,0.0,0.0,0.0,0.0,0.0,0.0,0.0,0.0,0.0,0.0,0.0,0.0,0.0,0.0,0.0,0.0,0.0,0.0,0.0,0.0,0.0,0.0,0.0,0.0,0.0,0.0,0.0,0.0,0.0,0.0,0.0,0.0,0.0,0.0,0.0,0.0,0.0,0.0,0.0,0.0,0.0,0.0,0.0,0.0,0.0,6.097,6.8817,8.0241,8.1984,8.1702,8.0006,7.7844,7.0907,5.7726,5.1712,0.0,0.0,0.0,0.0,0.0,0.0,0.0,0.0,0.0,0.0,0.0,0.0,0.0,0.0,0.0,0.0,0.0,0.0,0.0,0.0,0.0,0.0,0.0,0.0,0.0,0.0,0.0,0.0,0.0,0.0,0.0,0.0,0.0,0.0,0.0,0.0,0.0,0.0,0.0,0.0,0.0,0.0,0.0,0.0,0.0,0.0,0.0,0.0,0.0,0.0,0.0,0.0,0.0,0.0,0.0,0.0,0.0,0.0,0.0,0.0,0.0,0.0,0.0,0.0,0.0,0.0,0.0,0.0,0.0,0.0,0.0,0.0,0.0,0.0,0.0,0.0,0.0,0.0,0.0,0.0,0.0,0.0,0.0,0.0,0.0,0.0,0.0,0.0,0.0,0.0,0.0,0.0,0.0,0.0,0.0,0.0,0.0,0.0,0.0,0.0,0.0,0.0,0.0,6.3385,7.799,8.0674,8.0722,7.8908,7.6425,6.9412,5.6539,0.0,0.0,0.0,0.0,0.0,0.0,0.0,0.0,0.0,0.0,0.0,0.0,0.0,0.0,0.0,0.0,0.0,0.0,0.0,0.0,0.0,0.0,0.0,0.0,0.0,0.0,0.0,0.0,0.0,0.0,0.0,0.0,0.0,0.0,0.0,0.0,0.0,0.0,0.0,0.0,0.0,0.0,0.0,0.0,0.0,0.0,0.0,0.0,0.0,0.0,0.0,0.0,0.0,0.0,0.0,0.0,0.0,0.0,0.0,0.0,0.0,0.0,0.0,0.0,0.0,0.0,0.0,0.0,0.0,0.0,0.0,0.0,0.0,0.0,0.0,0.0,0.0,0.0,0.0,0.0,0.0,0.0,0.0,0.0,0.0,0.0,0.0,0.0,0.0,0.0,0.0,0.0,0.0,0.0,0.0,0.0,0.0,0.0,0.0,0.0,0.0,0.0,0.0,0.0,6.2603,6.9998,7.7159,8.0722,7.8908,7.5097,6.8002,5.6765,0.0,0.0,0.0,0.0,0.0,0.0,0.0,0.0,0.0,0.0,0.0,0.0,0.0,0.0]}],[{"header":{"parameterUnit":"kt","parameterCategory":2,"dx":1,"dy":1,"la1":29.285339999999998,"la2":30.599998999999997,"lo1":-89.70041500000002,"lo2":-87.6738589999976,"nx":112,"ny":82,"refTime":"2022-10-09T12:00:00:Z","depth":0,"parameterNumber":2,"parameterNumberName":"V-component_of_WINDS"},"data":[8.103,8.393,8.4448,6.9853,6.8098,6.6526,5.3606,5.2641,5.4419,5.407,5.5931,0.0,0.0,0.0,0.0,0.0,0.0,0.0,0.0,4.3334,0.0,0.0,0.0,0.0,0.0,0.0,0.0,0.0,0.0,0.0,8.7481,8.9096,8.815,8.4438,8.6443,8.8141,8.9407,9.0737,9.2184,9.3696,9.3696,9.3696,9.3696,9.3696,9.3696,9.3696,9.3696,9.3696,9.3696,9.3696,9.3696,9.3696,9.3696,9.3696,9.3696,9.3696,9.3696,9.3696,9.3696,9.3696,9.3696,9.3696,9.3696,9.3696,9.3696,9.3696,9.3582,9.3184,9.307,9.307,9.307,9.307,9.3184,9.3582,9.307,9.2334,9.2105,9.1521,9.105,9.1224,9.1455,9.1694,9.2047,9.2671,9.3013,9.2785,9.2956,9.3013,9.2785,9.2334,9.1925,9.134,9.0876,9.0585,9.0401,9.0167,9.0001,9.0001,9.0001,9.0001,9.0001,9.0001,9.0001,9.0001,9.0001,9.0001,9.0001,9.0001,9.0001,9.0001,9.0001,9.0001,7.5767,7.8705,7.9282,6.3143,6.1268,6.0019,4.7208,4.614,4.7755,4.7268,0.0,0.0,0.0,0.0,0.0,0.0,0.0,0.0,0.0,0.0,4.6766,0.0,0.0,0.0,0.0,0.0,0.0,8.3275,8.4129,8.5501,8.8172,8.8858,8.7613,8.4218,8.5011,8.6496,8.858,8.9905,9.1404,9.3131,9.3487,9.3696,9.3696,9.3696,9.3696,9.3696,9.3696,9.3696,9.3696,9.3696,9.3696,9.3696,9.3696,9.3696,9.3696,9.3696,9.3696,9.3696,9.3696,9.3696,9.3696,9.3696,9.3696,9.3696,9.3696,9.3696,9.3526,9.2899,9.2728,9.262,9.2449,9.2392,9.2506,9.2956,9.2334,9.1702,9.1521,9.0876,9.0401,9.0634,9.0809,9.105,9.1406,9.1867,9.1997,9.1598,9.2019,9.2327,9.2155,9.1752,9.1232,9.0701,9.0235,9.0001,9.0001,9.0001,9.0001,9.0001,9.0001,9.0001,9.0001,9.0001,9.0001,9.0001,9.0001,9.0001,9.0001,9.0001,9.0001,9.0001,9.0001,9.0001,7.4696,7.1972,6.9044,5.5409,5.1886,4.99,4.2878,4.2685,4.4364,0.0,0.0,0.0,0.0,0.0,0.0,0.0,0.0,0.0,0.0,0.0,4.9884,0.0,0.0,0.0,0.0,7.2418,7.4187,8.5524,8.082,8.1022,8.9133,8.8748,8.6798,8.3673,8.4051,8.5139,8.6878,8.8475,9.0238,9.1902,9.308,9.3588,9.3588,9.3696,9.3696,9.3588,9.3696,9.3696,9.3696,9.3696,9.3696,9.3696,9.3696,9.3696,9.3696,9.3696,9.3696,9.3696,9.3696,9.3696,9.3696,9.3696,9.3696,9.3696,9.3696,9.3696,9.3526,9.2899,9.2678,9.2556,9.1875,9.1653,9.171,9.171,9.166,9.1537,9.1001,9.0934,9.0701,9.0118,9.0518,9.0925,9.0876,9.0876,9.0531,8.9348,9.0612,9.148,9.0943,9.0885,9.0701,9.0011,9.0001,9.0001,9.0001,9.0001,9.0001,9.0001,9.0001,9.0001,9.0001,9.0001,9.0001,9.0001,9.0001,9.0001,9.0001,9.0001,9.0001,9.0001,8.965,8.9474,6.3213,6.5071,6.6613,5.6074,5.5422,5.4805,4.5108,4.2089,4.2171,4.5254,4.4556,0.0,0.0,0.0,0.0,0.0,0.0,5.221,0.0,5.6015,6.3169,6.7008,7.044,7.5093,8.1454,8.1687,8.4129,9.0745,8.6429,8.5151,8.8863,8.8126,8.6423,8.3673,8.3727,8.4592,8.6277,8.7177,8.8876,9.1393,9.2094,9.2414,9.2414,9.3283,9.3233,9.2465,9.3334,9.3696,9.3696,9.3696,9.3696,9.3696,9.3696,9.3696,9.3696,9.3696,9.3696,9.3696,9.3696,9.3696,9.3696,9.3696,9.3696,9.3696,9.3696,9.3696,9.3469,9.2334,9.199,9.1875,9.134,9.0523,9.0044,9.05,8.9677,8.8991,8.9553,8.9406,8.9305,8.9855,9.0118,8.999,8.9265,8.9746,8.9773,8.8257,8.9124,8.9576,8.8665,8.9257,8.9463,8.8937,8.9562,9.0001,9.0001,9.0001,9.0001,9.0001,9.0001,9.0001,9.0001,9.0001,9.0001,9.0001,9.0001,9.0001,9.0001,9.0001,9.0001,8.9826,8.2122,7.8548,0.0,0.0,6.2419,5.4665,5.5586,5.5536,4.4705,4.2054,4.2171,4.3276,0.0,0.0,0.0,0.0,0.0,0.0,5.3024,5.6977,5.4153,6.282,7.0614,7.3954,7.8816,8.2539,8.3974,8.4885,8.7555,9.303,8.8114,8.6115,8.8965,8.7929,8.6145,8.3667,8.3613,8.4178,8.5367,8.6188,8.7685,8.9815,9.1,9.1481,9.1353,9.2928,9.2826,9.1403,9.247,9.2674,9.2374,9.2775,9.2979,9.3029,9.3487,9.3696,9.3696,9.3696,9.3696,9.3696,9.3696,9.3696,9.3696,9.3696,9.3696,9.3696,9.3696,9.3696,9.3412,9.2105,9.176,9.143,9.0276,8.9398,8.8866,8.8771,8.7954,8.7434,8.8072,8.7935,8.7903,8.8537,8.9025,8.8879,8.7317,8.7951,8.8163,8.6789,8.7483,8.7974,8.7336,8.7827,8.8049,8.7764,8.8293,8.8635,8.8635,8.8635,8.883,8.9318,8.9367,8.9562,9.0001,8.9562,8.9269,8.9123,8.8772,8.8195,8.7317,8.9123,8.7723,8.3227,7.7133,7.4238,0.0,0.0,0.0,0.0,5.3381,5.3243,4.4229,0.0,4.4538,4.3663,0.0,4.5254,4.8162,0.0,0.0,5.0384,5.7765,6.2879,6.1482,6.916,7.5757,7.8082,8.6378,9.0158,8.5524,8.5059,8.7421,9.3073,8.7525,8.5419,8.9019,8.7519,8.5611,8.3667,8.3613,8.3781,8.4267,8.5361,8.6506,8.7689,8.981,9.054,9.018,9.2318,9.2221,9.029,9.1297,9.1251,9.0493,9.15,9.1957,9.2059,9.3385,9.3791,9.3696,9.3696,9.3741,9.3899,9.3588,9.3537,9.3696,9.3696,9.3588,9.3487,9.3487,9.3385,9.2944,9.1755,9.1354,9.0818,8.8784,8.8147,8.7805,8.6724,8.6431,8.6333,8.648,8.6529,8.6529,8.6675,8.7561,8.7512,8.5316,8.5894,8.6285,8.5121,8.5901,8.648,8.6333,8.6431,8.6529,8.6529,8.6626,8.6675,8.6675,8.6675,8.717,8.8147,8.8244,8.8732,8.9806,8.8928,8.8293,8.7951,8.7358,8.6048,8.3955,8.8,8.4917,7.5126,7.4521,7.4238,0.0,0.0,0.0,0.0,0.0,4.9399,0.0,0.0,0.0,6.1424,6.0349,5.9303,6.503,6.3751,6.282,6.5961,7.2276,7.5966,7.3605,8.1919,8.8413,8.8937,9.074,9.1554,9.0524,9.0449,9.0623,9.087,8.8381,8.676,8.6636,8.5116,8.3997,8.3613,8.3613,8.3667,8.3727,8.4356,8.5278,8.6491,8.7818,8.8409,8.8421,9.0223,9.0286,8.9012,9.0184,9.0595,9.0493,9.15,9.1957,9.2161,9.4249,9.4503,9.3696,9.3696,9.4306,9.4808,9.2922,9.2928,9.3696,9.3696,9.308,9.2262,9.2262,9.1375,9.0117,8.9443,8.8833,8.8222,8.7291,8.6438,8.5706,8.5511,8.4779,8.4388,8.5267,8.5462,8.5706,8.6529,8.687,8.639,8.4248,8.5462,8.6041,8.4199,8.4779,8.5121,8.4242,8.4925,8.5462,8.5462,8.6187,8.6675,8.6675,8.6675,8.6772,8.7073,8.7016,8.7561,8.8684,8.8537,8.8391,8.8293,8.9025,8.8293,8.609,8.8732,8.6722,8.0467,7.624,7.4238,0.0,0.0,0.0,4.8906,0.0,0.0,0.0,4.802,5.0524,6.0261,6.0233,6.0989,6.9393,6.9858,6.9567,7.1487,7.7711,8.2829,8.4071,8.8664,9.1962,9.1962,9.1962,9.1962,9.1962,9.1962,9.1728,9.1143,8.8464,8.6813,8.6754,8.4264,8.3027,8.3564,8.3613,8.3613,8.3613,8.3835,8.44,8.5268,8.6683,8.7279,8.7046,8.9357,8.9422,8.7844,8.9015,8.9168,8.8761,9.0489,9.079,9.0485,9.277,9.3029,9.212,9.2623,9.2877,9.2724,9.1556,9.1556,9.2069,9.2069,9.1607,9.12,9.12,9.0302,8.9242,8.8405,8.7903,8.7419,8.6264,8.556,8.5023,8.4486,8.3955,8.376,8.4242,8.434,8.4486,8.5023,8.4128,8.2516,8.0303,8.1792,8.2907,8.1856,8.3238,8.4144,8.3662,8.4053,8.434,8.434,8.4828,8.5121,8.5121,8.5121,8.5365,8.5901,8.595,8.6438,8.7512,8.7561,8.7317,8.678,8.678,8.6585,8.6194,8.5206,8.155,7.5385,7.2705,7.2025,0.0,0.0,0.0,0.0,4.5696,0.0,4.6009,4.7482,5.128,5.9795,6.1773,6.4565,7.3057,7.5675,7.6489,7.6489,8.1629,8.7152,9.138,9.1962,9.1962,9.1962,9.1962,9.1962,9.1962,9.1962,9.1962,9.1962,8.8228,8.6024,8.6086,8.3518,8.2392,8.3271,8.3467,8.3613,8.3613,8.3613,8.3781,8.4213,8.5698,8.6243,8.6028,8.8486,8.8603,8.693,8.7895,8.7743,8.7032,8.9168,8.9371,8.8555,9.0993,9.1302,9.0493,9.1297,9.114,9.0481,9.0184,9.0129,9.0227,9.0336,9.0239,9.0032,9.0032,8.9447,8.8584,8.7482,8.7038,8.6563,8.5238,8.4828,8.4633,8.3808,8.3613,8.3613,8.3613,8.3613,8.3401,8.2966,8.1271,7.9109,7.663,7.7824,7.9221,7.9221,8.1271,8.2857,8.2857,8.3293,8.3613,8.3613,8.3613,8.3613,8.3613,8.3613,8.3955,8.4779,8.4828,8.5316,8.6333,8.6382,8.6097,8.5462,8.4388,8.4017,8.4329,8.1308,7.6042,6.8826,6.9571,7.0657,0.0,0.0,0.0,0.0,4.4741,0.0,6.265,6.2871,6.3925,7.9536,8.3644,8.5156,8.7443,8.8896,8.9809,8.9809,9.0566,9.1322,9.1903,9.1962,9.1962,9.1962,9.1962,9.1962,9.1962,9.1962,9.1962,9.1962,8.7897,8.395,8.0604,8.1454,8.2103,8.225,8.3076,8.3613,8.3613,8.3613,8.3613,8.3673,8.4312,8.4954,8.5441,8.6229,8.6657,8.688,8.7032,8.7032,8.6981,8.8301,8.8149,8.7438,9.0688,9.1302,9.0442,9.0544,9.0767,9.0833,8.9357,8.9143,8.9572,9.0172,8.9676,8.8809,8.8809,8.7724,8.6329,8.579,8.4873,8.3961,8.3808,8.376,8.376,8.3613,8.3613,8.3613,8.3613,8.3613,8.2911,8.0726,8.0059,7.9109,7.663,7.6402,7.663,7.663,7.8716,8.0282,8.0282,8.2207,8.3613,8.3613,8.3613,8.3613,8.3613,8.3613,8.3662,8.376,8.376,8.4248,8.5267,8.5316,8.5706,8.648,8.5511,8.3153,7.9509,8.0654,7.6953,6.8867,7.2146,7.3715,0.0,0.0,0.0,4.3406,0.0,0.0,5.8177,6.1521,6.5942,7.8028,8.0989,8.314,8.8954,9.0466,9.1047,9.1845,9.1962,9.1962,9.1962,9.1962,9.1962,9.1962,9.1962,9.1962,9.1962,9.1962,9.1962,9.1962,8.8899,8.5699,8.2623,8.0953,8.0683,8.2006,8.2494,8.2978,8.3613,8.3613,8.3613,8.3613,8.4106,8.4483,8.4752,8.5711,8.6243,8.6455,8.6722,8.688,8.693,8.7438,8.7178,8.671,8.9107,8.9317,8.8457,8.9117,8.889,8.8099,8.7411,8.7304,8.7495,8.7765,8.773,8.7641,8.7641,8.6649,8.5601,8.5387,8.4478,8.3613,8.3613,8.3613,8.3613,8.3613,8.3613,8.3613,8.3613,8.3613,8.1987,7.6642,7.6744,7.6516,7.2522,7.3107,7.4039,7.4039,7.737,7.9892,7.9892,8.2042,8.3613,8.3613,8.3613,8.3613,8.3613,8.3613,8.3613,8.3613,8.3613,8.3808,8.4193,8.4193,8.4437,8.4877,8.4437,8.2632,7.9389,7.8734,7.507,6.8826,7.0375,7.11,3.6216,0.0,0.0,0.0,0.0,0.0,5.9024,6.3429,6.8334,7.6511,7.8758,8.1222,8.7733,8.9536,9.0175,9.0798,9.1205,9.1396,9.1396,9.1729,9.1962,9.1962,9.1962,9.1962,9.1962,9.1962,9.1919,9.1751,8.9423,8.6928,8.4472,8.1033,7.9733,8.1073,8.1708,8.2446,8.3125,8.3467,8.3613,8.3613,8.3997,8.4267,8.4429,8.5444,8.5977,8.6137,8.6616,8.6722,8.6455,8.6455,8.6349,8.6237,8.7471,8.7535,8.6981,8.7844,8.7215,8.5924,8.6031,8.5924,8.5658,8.5818,8.6137,8.6455,8.6455,8.5818,8.507,8.507,8.4371,8.3613,8.3613,8.3613,8.345,8.2748,8.2584,8.2584,8.2584,8.2042,7.9734,7.3706,7.3981,7.3807,6.9566,7.0301,7.1463,7.1463,7.5095,7.788,7.788,8.0004,8.1547,8.1547,8.2152,8.2584,8.2584,8.3184,8.3613,8.3613,8.3613,8.3613,8.3613,8.3613,8.3613,8.3613,8.3613,8.2042,7.8838,7.7086,7.4097,7.0182,6.9266,6.8786,0.0,0.0,0.0,5.4265,5.5284,5.81,7.3993,7.5012,7.4478,8.0928,8.4109,8.5873,8.6164,8.8257,8.9594,8.8355,8.9187,9.0059,9.0059,9.1106,9.1962,9.1962,9.1962,9.1962,9.1962,9.1962,9.1751,9.1227,8.8899,8.6389,8.3962,8.1426,7.9702,7.8876,8.0927,8.2055,8.2103,8.3076,8.3613,8.3613,8.3613,8.3889,8.438,8.507,8.5655,8.6137,8.6616,8.6296,8.5387,8.5387,8.5708,8.6084,8.6187,8.6455,8.688,8.693,8.6243,8.5441,8.5924,8.5341,8.4537,8.5123,8.5387,8.5387,8.5387,8.4962,8.438,8.438,8.3997,8.3613,8.3613,8.3613,8.2966,8.056,8.0004,8.0004,8.0004,7.8106,7.5657,7.3049,7.2581,7.1817,6.9266,6.8846,6.8906,6.8906,7.1091,7.2714,7.2714,7.4908,7.6402,7.6402,7.8557,8.0004,8.0004,8.2207,8.3613,8.3613,8.3613,8.3613,8.3613,8.3613,8.3613,8.3613,8.3613,8.1216,7.6287,7.623,7.5356,7.3617,7.0361,6.8786,4.0876,4.4802,4.9952,5.7979,6.3061,6.7972,7.5235,7.8904,8.1304,8.3291,8.4348,8.5194,8.5953,8.6803,8.7268,8.6843,8.789,8.9053,8.9885,9.035,9.0931,9.1845,9.1962,9.1962,9.1962,9.1608,9.0786,8.9336,8.6614,8.4102,8.1994,7.9542,7.8013,7.7702,7.9068,8.0536,8.2055,8.2397,8.288,8.3613,8.3613,8.3673,8.3835,8.4429,8.4805,8.4966,8.5605,8.5391,8.4698,8.5173,8.5177,8.4966,8.5391,8.5924,8.6349,8.5977,8.5655,8.528,8.502,8.4698,8.4429,8.4591,8.4962,8.5334,8.5334,8.4909,8.4326,8.4326,8.3997,8.3613,8.3613,8.2316,8.0504,7.7993,7.7427,7.7427,7.7427,7.5542,7.3049,7.0498,7.1387,7.1699,6.9266,6.8786,6.8786,6.8786,7.0913,7.2522,7.2522,7.4677,7.6173,7.6173,7.6915,7.8106,7.9781,8.0615,8.1823,8.3504,8.3613,8.3613,8.3613,8.3613,8.3613,8.3613,8.3613,8.1161,7.6173,7.6173,7.4214,7.048,6.9326,6.8786,4.3723,4.8021,5.3106,6.2226,6.9071,7.4363,7.7199,8.1433,8.4409,8.3243,8.3745,8.4465,8.4728,8.4807,8.4923,8.535,8.6494,8.7657,8.8489,8.9012,8.9768,9.1047,9.1222,9.1354,9.1651,9.1354,9.0529,8.8956,8.6398,8.3916,8.1804,7.9493,7.7915,7.7215,7.7848,7.902,8.0829,8.1664,8.2343,8.3027,8.3418,8.3613,8.3613,8.4159,8.4326,8.4375,8.464,8.4478,8.4106,8.4532,8.4586,8.4429,8.4855,8.5337,8.5764,8.5441,8.5173,8.4909,8.4483,8.4267,8.4106,8.4106,8.4371,8.4694,8.4694,8.4425,8.4106,8.4106,8.3238,8.2262,8.2262,7.9781,7.7086,7.6345,7.5542,7.4619,7.3749,7.233,7.0735,6.9146,7.0122,7.0676,6.9086,6.8786,6.8786,6.8786,7.0182,7.1209,7.1209,7.2581,7.3516,7.3516,7.433,7.5542,7.7143,7.8894,8.056,8.2152,8.3075,8.3613,8.3613,8.3613,8.3613,8.3613,8.3613,8.1602,7.7484,7.663,7.4097,7.0122,6.9266,6.8786,4.4962,4.9502,5.478,6.7291,7.3498,7.7264,8.0108,8.2777,8.385,8.1125,8.2572,8.3861,8.2469,8.2323,8.2809,8.3896,8.5175,8.6047,8.6105,8.7192,8.8472,8.9727,8.9843,9.02,9.0954,9.1027,9.06,8.971,8.7853,8.5636,8.3181,8.109,7.9101,7.7215,7.7165,7.7653,7.8627,8.078,8.1957,8.2055,8.3076,8.3613,8.3613,8.4106,8.4321,8.4321,8.3781,8.3613,8.3613,8.3613,8.3889,8.4321,8.4321,8.4748,8.528,8.528,8.4855,8.4326,8.4321,8.3997,8.3613,8.3613,8.3613,8.3613,8.3613,8.3613,8.3613,8.3613,8.1768,7.9892,7.9892,7.6186,7.3065,7.5427,7.4156,7.164,6.9326,6.8786,6.8786,6.8786,6.8786,6.8786,6.8786,6.8786,6.8786,6.8786,6.8786,6.8786,6.8786,6.8786,6.8786,6.8786,7.0913,7.2405,7.248,7.6813,7.9613,7.9892,8.2097,8.3401,8.3613,8.3613,8.3613,8.3613,8.3613,8.2316,7.9892,7.737,7.4966,7.2463,6.9943,6.8786,5.2699,5.9737,6.5617,7.4206,7.717,7.8699,8.1487,8.2618,8.2939,8.225,8.2573,8.2374,7.9926,8.1121,8.2498,8.2809,8.3876,8.5001,8.5989,8.6396,8.7014,8.7967,8.8099,8.8398,8.9249,8.9026,8.8472,8.7653,8.5453,8.3181,8.0994,7.8953,7.7666,7.7215,7.7165,7.7311,7.7555,7.8873,8.0438,8.2055,8.3076,8.3613,8.3613,8.3727,8.3781,8.3781,8.3667,8.3613,8.3613,8.3613,8.3667,8.3781,8.3781,8.4106,8.4537,8.4209,8.4159,8.4321,8.3889,8.3673,8.3613,8.3613,8.3613,8.3613,8.3613,8.3613,8.3613,8.3613,8.1768,7.9892,7.9892,7.6186,7.2655,7.3341,7.1564,6.9585,6.8966,6.8786,6.8786,6.8786,6.8786,6.8786,6.8786,6.8786,6.8786,6.8786,6.8786,6.8786,6.8786,6.8786,6.8786,6.8786,6.9386,7.0498,7.2346,7.3647,7.5957,7.9669,8.0449,8.1657,8.3504,8.3613,8.3613,8.3613,8.3613,8.2316,7.9892,7.737,7.4966,7.2463,6.9943,6.8786,5.1958,6.0347,6.8602,7.5843,7.8071,7.9102,8.1172,8.2202,8.2422,8.1875,8.1727,8.1089,7.8944,7.9725,8.0889,8.1471,8.2635,8.3567,8.4071,8.4651,8.5305,8.6273,8.6365,8.6663,8.747,8.7846,8.7391,8.5899,8.4165,8.2284,8.0173,7.8213,7.7165,7.7165,7.7165,7.7165,7.7165,7.7751,7.8873,8.0634,8.2148,8.3125,8.3613,8.3613,8.3613,8.3613,8.3613,8.3613,8.3613,8.3613,8.3613,8.3613,8.3613,8.3727,8.3997,8.3673,8.3781,8.3997,8.3673,8.3613,8.3613,8.3613,8.3613,8.3613,8.3613,8.3613,8.3613,8.3613,8.1003,7.8219,7.8219,7.4619,7.0854,7.0854,6.9824,6.8786,6.8786,6.8786,6.8786,6.8786,6.8786,6.8786,6.8786,6.8786,6.8786,6.8786,6.8786,6.8786,6.8786,6.8786,6.8786,6.8786,6.8786,6.9386,7.0735,7.1876,7.3706,7.6471,7.7654,7.9389,8.1877,8.1932,8.2474,8.3559,8.2529,8.1271,7.9892,7.737,7.4966,7.2463,6.9943,6.8786,4.9817,5.8096,6.7797,7.4708,7.7325,7.8587,7.9912,8.1301,8.194,8.0671,8.0348,7.994,7.8546,7.84,7.8874,8.0016,8.1259,8.1981,8.168,8.2585,8.3544,8.4509,8.4641,8.4897,8.5717,8.6797,8.6672,8.4645,8.353,8.2117,8.0305,7.8312,7.7165,7.7165,7.7165,7.7165,7.7165,7.7165,7.7702,7.8724,8.0829,8.2392,8.3613,8.3613,8.3613,8.3613,8.3613,8.3613,8.3613,8.3613,8.3613,8.3613,8.3613,8.3613,8.3613,8.3613,8.3613,8.3613,8.3613,8.3711,8.3808,8.3662,8.3711,8.3808,8.3808,8.3711,8.3613,8.376,8.032,7.663,7.6287,7.2799,6.9266,6.8906,6.8786,6.8786,6.8786,6.8786,6.8786,6.8786,6.8786,6.8786,6.8786,6.8786,6.8786,6.8786,6.8786,6.8786,6.8786,6.8786,6.8786,6.8786,6.8786,6.8786,6.8786,7.0795,7.217,7.2522,7.4561,7.6801,7.9277,7.9389,8.0393,8.2584,8.0782,7.9892,7.9892,7.737,7.5081,7.2932,7.0122,6.8786,6.2568,6.7024,6.9829,7.5079,7.6616,7.7131,7.8522,7.9912,8.0444,7.9187,7.8873,7.8521,7.7201,7.7841,7.8583,7.8816,7.9722,8.062,8.1527,8.1567,8.1813,8.2773,8.2807,8.3159,8.396,8.4201,8.4642,8.5292,8.3017,8.142,8.1102,7.8551,7.7165,7.7165,7.7165,7.7165,7.7165,7.7165,7.7702,7.8724,7.9993,8.1655,8.3613,8.3613,8.3613,8.3613,8.3613,8.3613,8.3613,8.3613,8.3613,8.3613,8.3613,8.3613,8.3613,8.3613,8.3613,8.3613,8.3613,8.415,8.473,8.3857,8.4144,8.4877,8.4877,8.4242,8.376,8.4633,8.2159,7.8782,7.6687,7.4039,7.1387,6.9326,6.8786,6.8786,6.8786,6.8786,6.8786,6.8786,6.8786,6.8786,6.8786,6.8786,6.8786,6.8786,6.8786,6.8786,6.8786,6.8786,6.8786,6.8786,6.8786,6.8786,6.8786,6.9206,7.0361,7.2405,7.2932,7.4272,7.6744,7.6801,7.7029,7.7427,7.9109,7.9892,7.9892,7.737,7.6001,7.5484,7.0913,6.8786,5.8093,6.4309,6.9574,7.1607,7.4268,7.6745,7.8227,7.9038,7.9071,7.7703,7.8592,7.9033,7.6941,7.7719,7.8392,7.7643,7.8461,7.9249,7.9361,7.9826,8.04,8.103,8.1121,8.1495,8.2595,8.3231,8.3424,8.2979,8.1431,8.0206,7.9764,7.761,7.6629,7.7165,7.7165,7.7165,7.7165,7.7165,7.7409,7.7946,7.8968,8.0285,8.1899,8.249,8.3076,8.3613,8.3613,8.3613,8.3613,8.3613,8.3613,8.3613,8.3613,8.3613,8.3613,8.3613,8.3613,8.3613,8.3613,8.3955,8.4242,8.376,8.4242,8.5023,8.4486,8.434,8.4388,8.434,8.2205,7.9333,7.6801,7.4387,7.1876,6.9386,6.8786,6.8786,6.8786,6.8786,6.8786,6.8786,6.8786,6.8786,6.8786,6.8786,6.8786,6.8786,6.8786,6.8786,6.8786,6.8786,6.8786,6.8786,6.8786,6.8786,6.8786,6.8786,6.9326,7.0498,7.0557,7.1699,7.4214,7.299,7.2932,7.4272,7.544,7.6642,7.7937,7.5484,7.4272,7.4214,7.0539,6.8786,5.4244,6.1498,6.9013,6.9923,7.2639,7.5687,7.7582,7.8071,7.774,7.6642,7.7955,7.8737,7.6881,7.7225,7.7549,7.6594,7.7336,7.7839,7.7306,7.8149,7.8972,7.9416,7.9733,8.0297,8.1313,8.2498,8.26,8.1047,7.9889,7.8983,7.8248,7.6276,7.575,7.6824,7.6873,7.6921,7.7165,7.7165,7.7165,7.7165,7.8239,7.9261,8.0334,8.1216,8.2246,8.3271,8.3515,8.3613,8.3613,8.3613,8.3613,8.3613,8.3613,8.3613,8.3613,8.3613,8.3613,8.3613,8.3613,8.376,8.39,8.39,8.4633,8.5365,8.4834,8.4828,8.5023,8.4388,8.2536,8.0004,7.6972,7.4793,7.2522,6.9525,6.8786,6.8786,6.8786,6.8786,6.8867,6.9068,6.8947,6.8867,6.9068,6.8947,6.8786,6.8786,6.8786,6.8786,6.8786,6.8786,6.8786,6.8786,6.8786,6.8786,6.8786,6.8786,6.8786,6.8786,6.8786,6.9705,7.164,7.0028,7.0071,7.2269,7.2821,7.3974,7.5678,7.3974,7.2904,7.2463,7.0148,6.8987,6.4652,6.7465,6.9577,7.4826,7.3633,7.2065,7.5726,7.6616,7.659,7.6395,7.5565,7.5173,7.6206,7.5544,7.5081,7.5919,7.6135,7.6347,7.6787,7.6941,7.7267,7.806,7.9168,7.9902,8.0071,8.12,8.1909,8.1748,7.9345,7.7852,7.778,7.5391,7.4529,7.5701,7.575,7.6238,7.7165,7.7165,7.7165,7.7165,7.8239,7.9261,8.0285,8.0432,8.107,8.2197,8.3173,8.3613,8.3613,8.3613,8.3613,8.3613,8.3613,8.3613,8.3613,8.3613,8.3613,8.3613,8.3613,8.4193,8.5023,8.5023,8.5706,8.6724,8.7707,8.6634,8.5316,8.6138,8.4857,8.2152,7.7427,7.6001,7.4677,6.9943,6.8786,6.8786,6.8786,6.8786,6.9027,6.9872,6.9349,6.9128,6.9933,6.9349,6.8786,6.8786,6.8786,6.8786,6.8786,6.8786,6.8786,6.8786,6.8786,6.8786,6.8786,6.8786,6.8786,6.8786,6.8786,6.8906,6.9146,6.9712,7.0579,7.1571,7.3832,7.4645,7.4094,7.4645,7.4118,7.2463,7.0802,6.9651,5.0651,5.5895,6.1171,6.2937,6.8154,7.3031,7.3962,7.3856,7.4119,7.601,7.6645,7.6243,7.4234,7.5319,7.5865,7.3754,7.4687,7.5622,7.5595,7.5636,7.5944,7.678,7.7363,7.7927,7.8661,7.9902,8.0635,8.0635,7.827,7.7081,7.773,7.4678,7.3407,7.4529,7.5261,7.5799,7.6238,7.6823,7.7165,7.7165,7.7604,7.8336,7.9358,7.9993,8.0923,8.2103,8.3125,8.3613,8.3613,8.3613,8.3613,8.3613,8.3613,8.3613,8.3613,8.3613,8.3613,8.3613,8.3613,8.3857,8.4291,8.4925,8.5853,8.6772,8.7211,8.6724,8.6048,8.5853,8.4681,8.2426,7.7484,7.6173,7.5083,7.0699,6.959,6.9812,7.0335,7.0456,7.0416,7.0214,6.9892,6.9611,6.9349,6.9027,6.8786,6.8786,6.8786,6.8786,6.8786,6.8786,6.8786,6.8786,6.8786,6.8786,6.8786,6.8786,6.8786,6.8786,6.8786,6.8786,6.8786,6.9671,7.0375,7.0737,7.1682,7.2028,7.1658,7.1452,7.1,7.0301,6.9631,6.9148,4.2467,4.8062,5.4415,5.5054,6.2407,6.9834,7.1447,7.0946,7.1179,7.527,7.641,7.5697,7.2663,7.4315,7.5111,7.2039,7.3718,7.5272,7.4731,7.4788,7.4999,7.5538,7.5952,7.6516,7.7363,7.8548,7.9255,7.908,7.6993,7.5916,7.6456,7.35,7.2331,7.3358,7.4236,7.5115,7.6092,7.6482,7.7019,7.7653,7.7311,7.7702,7.8724,7.9797,8.0724,8.1611,8.2978,8.3613,8.3613,8.3613,8.3613,8.3613,8.3955,8.3857,8.3613,8.3955,8.3857,8.3613,8.3613,8.3613,8.376,8.4779,8.5853,8.6724,8.7065,8.6967,8.6529,8.5804,8.4633,8.2426,7.7484,7.6396,7.561,7.1559,7.0617,7.0778,7.1421,7.1542,7.1421,7.1059,7.0576,7.0094,6.9691,6.9148,6.8786,6.8786,6.8786,6.8786,6.8786,6.8786,6.8786,6.8786,6.8786,6.8786,6.8786,6.8786,6.8786,6.8786,6.8786,6.8907,6.9188,6.9791,7.0335,7.0576,7.0617,7.0617,7.0617,6.9973,6.947,6.9188,6.9188,6.9188,4.7286,4.8819,5.1794,5.6068,5.7592,6.0125,6.8021,6.7932,6.7925,7.4156,7.3662,7.2176,7.2114,7.1913,7.1651,7.1255,7.36,7.5164,7.4368,7.455,7.4716,7.4296,7.5444,7.6178,7.6234,7.725,7.7738,7.7205,7.5493,7.4154,7.3602,7.177,7.1257,7.2331,7.2331,7.3846,7.7116,7.6141,7.6628,7.8727,7.7653,7.7702,7.8724,7.9797,8.0285,8.0432,8.2631,8.3613,8.3613,8.3613,8.3613,8.3711,8.473,8.4486,8.3711,8.473,8.4437,8.3613,8.3613,8.3613,8.376,8.4779,8.5853,8.687,8.8049,8.761,8.6675,8.6675,8.5169,8.2426,7.7484,7.6873,7.6559,7.25,7.1542,7.1542,7.1542,7.1542,7.1784,7.2669,7.1421,7.0496,7.1341,7.0053,6.8786,6.8786,6.8786,6.8786,6.8786,6.8786,6.8786,6.8786,6.8786,6.8786,6.8786,6.8786,6.8786,6.8786,6.8786,6.9188,7.0073,7.0214,7.0617,7.1502,7.1542,7.1542,7.1542,7.1502,7.1059,7.0174,7.0174,7.0174,4.1043,4.424,4.8497,5.1913,5.4938,5.8992,6.6181,6.8153,6.9396,7.2521,7.2334,7.1032,6.9245,7.0962,7.2276,7.1058,7.2286,7.3644,7.4183,7.4332,7.4368,7.4259,7.4654,7.488,7.488,7.6008,7.6172,7.4878,7.3824,7.3006,7.2431,7.0585,7.0088,7.1208,7.194,7.3114,7.492,7.5408,7.6678,7.8724,7.8434,7.8434,7.8773,8.063,8.1513,8.1562,8.2978,8.3613,8.3613,8.3613,8.3613,8.3711,8.473,8.4925,8.4779,8.5853,8.5999,8.5706,8.5706,8.5706,8.5901,8.7024,8.761,8.8098,8.9172,8.8781,8.7903,8.7903,8.6341,8.3624,7.9298,7.7101,7.5397,7.3044,7.2468,7.2629,7.3232,7.291,7.2548,7.283,7.1421,7.0295,7.0576,6.9651,6.8786,6.8786,6.8786,6.8786,6.8786,6.8786,6.8786,6.8786,6.8786,6.8786,6.8786,6.8786,6.8786,6.8786,6.8786,6.8907,6.9188,6.9852,7.0335,7.0617,7.0617,7.0617,7.0617,7.0013,6.9571,6.9228,6.9228,6.9228,4.0165,4.3483,4.7321,5.0781,5.2213,5.4684,6.1836,6.374,6.4579,6.6691,6.7962,6.834,6.6869,6.974,7.1587,6.9551,7.1052,7.2792,7.3526,7.3977,7.4259,7.4259,7.4259,7.4259,7.4259,7.4993,7.4941,7.369,7.2621,7.1922,7.1784,7.0045,6.9554,7.0716,7.1354,7.2624,7.4481,7.4822,7.5994,7.8141,7.8141,7.8529,7.9358,8.0728,8.1611,8.2103,8.3125,8.3613,8.3613,8.3613,8.3613,8.3662,8.4291,8.4535,8.473,8.6138,8.6431,8.6138,8.6529,8.6675,8.6821,8.7561,8.8049,8.8537,8.922,8.8928,8.8439,8.8439,8.644,8.3401,7.971,7.7254,7.5329,7.3789,7.3393,7.3554,7.4117,7.3514,7.2991,7.3313,7.1663,7.0295,7.0657,6.9691,6.8786,6.8786,6.8786,6.8786,6.8786,6.8786,6.8786,6.8786,6.8786,6.8786,6.8786,6.8786,6.8786,6.8786,6.8786,6.8786,6.8786,6.9349,6.9691,6.9691,6.9691,6.9791,7.0214,6.9228,6.8947,6.9309,6.8947,6.8987,4.3109,4.5318,4.7544,5.1541,4.9933,4.9281,5.658,5.6578,5.5785,5.8116,6.1451,6.4016,6.4667,6.783,6.9648,6.7456,6.9943,7.2192,7.2453,7.3469,7.4146,7.4259,7.4259,7.4259,7.4259,7.4259,7.3972,7.3426,7.1781,7.0995,7.1299,6.9759,6.9408,7.0573,7.0716,7.228,7.5359,7.4383,7.492,7.7067,7.7214,7.8336,8.0135,8.0233,8.0923,8.2103,8.3076,8.3515,8.3613,8.3613,8.3613,8.3613,8.3613,8.3662,8.3955,8.5999,8.6041,8.5413,8.6431,8.6821,8.6821,8.6919,8.7659,8.8537,8.8537,8.8537,8.8537,8.8364,8.5464,8.1765,7.8911,7.7302,7.6044,7.4577,7.4238,7.4238,7.4238,7.3474,7.3071,7.4037,7.1985,7.0416,7.1381,6.9992,6.8786,6.8786,6.8786,6.8786,6.8786,6.8786,6.8786,6.8786,6.8786,6.8786,6.8786,6.8786,6.8786,6.8786,6.8786,6.8786,6.8786,6.8786,6.8786,6.8786,6.8786,6.9188,7.0094,6.9188,6.9228,7.0094,6.9188,6.9228,3.8234,4.0926,4.4257,4.716,5.3016,5.8613,6.0461,5.9132,5.7164,5.6117,5.6737,5.7823,5.928,6.236,6.6159,7.0574,6.9575,6.9203,7.2115,7.2736,7.3243,7.4146,7.4259,7.4259,7.4259,7.4259,7.3674,7.2246,7.0539,6.9472,6.9191,6.8313,6.8335,6.9408,7.028,7.1547,7.3064,7.3602,7.4578,7.5994,7.7604,7.8578,7.9115,7.9944,8.0923,8.2055,8.2246,8.2832,8.3613,8.3613,8.3613,8.3613,8.3613,8.4101,8.4925,8.6243,8.6529,8.6536,8.7659,8.8049,8.8147,8.8976,8.9416,8.966,8.966,8.966,8.9202,8.7224,8.3109,7.9074,7.8357,7.6457,7.4689,7.4352,7.4238,7.4238,7.4238,7.2991,7.2307,7.3916,7.1502,6.9691,7.126,6.9992,6.8786,6.8786,6.8786,6.8786,6.8786,6.8786,6.8786,6.8786,6.8786,6.8786,6.8786,6.8786,6.8786,6.8786,6.8786,6.8786,6.8786,6.8786,6.8786,6.8786,6.8786,6.8907,6.9108,6.8907,6.8907,6.9108,6.8907,6.8907,4.0227,4.3853,4.6364,4.4105,4.8654,5.333,5.2108,5.2006,5.1552,4.9557,5.0676,5.3238,5.6968,5.7795,6.0612,6.8745,6.8143,6.765,7.0413,7.1776,7.2961,7.4146,7.4259,7.4259,7.4259,7.4259,7.3893,7.2951,7.0612,6.9349,6.9529,6.8197,6.7945,6.8973,7.0137,7.1257,7.2331,7.3358,7.4188,7.4822,7.697,7.8288,7.8724,7.931,8.0484,8.2055,8.2055,8.2587,8.3613,8.3613,8.3613,8.3613,8.3613,8.3955,8.4486,8.5072,8.5609,8.609,8.7268,8.8,8.8537,8.9074,8.9611,9.0001,9.0001,8.9131,8.7901,8.6496,8.2262,7.7853,7.6687,7.5319,7.4238,7.4238,7.4238,7.4238,7.4238,7.3152,7.2427,7.3433,7.1381,6.9711,7.0737,6.9772,6.8786,6.8786,6.8786,6.8786,6.8786,6.8786,6.8786,6.8786,6.8786,6.8786,6.8786,6.8786,6.8786,6.8786,6.8786,6.8786,6.8786,6.8786,6.8786,6.8786,6.8786,6.8786,6.8786,6.8786,6.8786,6.8786,6.8786,6.8786,4.3671,4.8315,5.03,4.4193,4.4014,4.4717,4.2387,4.3448,4.452,4.2968,4.5447,4.9565,5.5087,5.4146,5.5133,6.335,6.5383,6.663,6.8512,7.0795,7.2736,7.409,7.4259,7.4259,7.4259,7.4259,7.415,7.3893,7.1186,6.9796,7.0292,6.8736,6.8112,6.8774,7.0039,7.1159,7.2087,7.3114,7.37,7.3895,7.5945,7.7458,7.848,7.848,7.9605,8.1513,8.1708,8.2343,8.3369,8.3515,8.3613,8.3613,8.3613,8.3613,8.3613,8.3613,8.415,8.5023,8.595,8.6975,8.7951,8.8098,8.8879,8.9757,8.9757,8.8054,8.5956,8.5127,8.1336,7.7028,7.4844,7.4238,7.4238,7.4238,7.4238,7.4238,7.4238,7.3514,7.291,7.3071,7.1542,7.0193,7.0375,6.953,6.8786,6.8786,6.8786,6.8786,6.8786,6.8786,6.8786,6.8786,6.8786,6.8786,6.8786,6.8786,6.8786,6.8786,6.8786,6.8786,6.8786,6.8786,6.8786,6.8786,6.8786,6.8786,6.8786,6.8786,6.8786,6.8786,6.8786,6.8786,3.989,4.568,5.1339,5.2541,5.1841,5.0722,5.0106,4.7488,4.5132,4.488,4.5147,4.6302,4.9136,5.1637,5.3657,5.4672,5.9716,6.4768,6.8338,7.0005,7.172,7.3977,7.4259,7.4259,7.4259,7.4259,7.3617,7.2241,7.162,7.0179,6.7633,6.883,6.9017,6.7745,6.9694,7.0863,7.101,7.2038,7.2967,7.3895,7.5213,7.6385,7.7409,7.7409,7.8092,7.9312,8.0139,8.1216,8.2294,8.3222,8.3613,8.3613,8.3613,8.3613,8.3613,8.3613,8.3711,8.3857,8.4053,8.473,8.5804,8.6626,8.7756,8.8684,8.8684,8.748,8.5173,8.0591,7.7197,7.478,7.4368,7.4238,7.4238,7.4238,7.4238,7.4238,7.4238,7.3514,7.3111,7.3876,7.1945,7.0456,7.118,6.9872,6.8786,6.8786,6.8786,6.8786,6.8786,6.8786,6.8786,6.8786,6.8786,6.8786,6.8786,6.8786,6.8786,6.8786,6.8786,6.8786,6.8786,6.8786,6.8786,6.8786,6.8786,6.8786,6.8786,6.8786,6.8786,6.8786,6.8786,6.8786,4.271,4.7061,5.0603,5.0173,4.9757,4.9135,4.7709,4.6281,4.5121,4.4406,4.4351,4.5703,4.9758,4.9983,5.1513,5.741,5.9068,6.1293,6.6148,6.8416,7.0795,7.3864,7.4259,7.4259,7.4259,7.3396,7.2578,7.1771,7.0842,6.9348,6.6985,6.8812,6.9176,6.7501,6.9596,7.0765,7.0765,7.1794,7.2575,7.3016,7.4773,7.5848,7.6286,7.5618,7.5872,7.6874,7.6095,7.6639,7.8287,8.0069,8.1132,8.1712,8.3075,8.3613,8.3613,8.3613,8.3613,8.3613,8.3613,8.3906,8.4437,8.5511,8.6634,8.7325,8.6474,8.4742,8.2549,8.011,7.6904,7.4238,7.4238,7.4238,7.4238,7.4238,7.4238,7.4238,7.4238,7.3916,7.3594,7.3514,7.2105,7.0898,7.0818,6.9671,6.8786,6.8786,6.8786,6.8786,6.8786,6.8786,6.8786,6.8786,6.8786,6.8786,6.8786,6.8786,6.8786,6.8786,6.8786,6.8786,6.8786,6.8786,6.8786,6.8786,6.8786,6.8786,6.8786,6.8786,6.8786,6.8786,6.8786,6.8786,4.8047,0.0,5.1923,4.9952,4.9579,4.9057,0.0,4.6229,4.5936,4.4234,4.4239,4.5797,5.0144,4.8635,4.9667,5.8765,5.7877,5.7839,6.2946,6.5691,6.8604,7.2489,7.3243,7.3526,7.3808,7.2562,7.1544,7.1164,6.9957,6.8311,6.6376,6.8442,6.8925,6.7501,6.9307,7.0378,7.0378,7.1403,7.2087,7.2331,7.4041,7.4968,7.5213,7.4442,7.4278,7.4563,7.3343,7.3258,7.4366,7.735,7.8982,7.9842,8.2542,8.3613,8.3613,8.3613,8.3613,8.3613,8.3613,8.3613,8.3711,8.4486,8.5511,8.6093,8.4921,8.2316,7.9783,7.9622,7.684,7.3956,7.4158,7.4238,7.4238,7.4238,7.4238,7.4238,7.4238,7.4238,7.4037,7.3313,7.2468,7.1582,7.0657,6.9772,6.9027,6.8826,6.8786,6.8786,6.8786,6.8786,6.8786,6.8786,6.8786,6.8786,6.8786,6.8786,6.8786,6.8786,6.8786,6.8786,6.8786,6.8786,6.8786,6.8786,6.8786,6.8786,6.8786,6.8786,6.8786,6.8786,6.8786,6.8786,0.0,5.7513,5.8285,5.9615,5.843,5.621,5.3235,5.1162,0.0,4.6106,4.5565,4.5762,4.6421,4.7392,4.8778,5.1088,5.279,5.5137,5.8808,6.0937,6.39,6.8661,7.014,7.1325,7.251,7.2119,7.1087,6.949,6.9295,6.7834,6.4697,6.7062,6.8165,6.7452,6.8579,6.9119,6.9119,7.0283,7.1354,7.2331,7.2478,7.3016,7.4041,7.5017,7.4366,7.2451,7.4319,7.399,7.2493,7.6748,7.8615,7.8974,8.2306,8.3613,8.3613,8.3613,8.3613,8.3613,8.3613,8.3613,8.3613,8.3662,8.4388,8.5212,8.5094,8.1669,7.768,7.7058,7.4978,7.3192,7.3997,7.4238,7.4238,7.4238,7.4238,7.4238,7.4238,7.4238,7.4198,7.4222,7.3393,7.2508,7.1582,7.0697,6.9751,6.8907,6.8786,6.8786,6.8786,6.8786,6.8786,6.8786,6.8786,6.8786,6.8786,6.8786,6.8786,6.8786,6.8786,6.8786,6.8786,6.8786,6.8786,6.8786,6.8786,6.8786,6.8786,6.8786,6.8786,6.8786,6.8786,6.8786,5.613,5.9041,6.066,5.9132,5.8693,5.7738,5.3992,5.2336,5.0499,4.6522,4.5154,4.5256,4.709,4.7341,4.9189,5.5,5.5818,5.6932,6.0473,6.3208,6.5364,6.6635,7.0356,7.3074,7.3582,7.1498,6.9879,6.9256,6.8324,6.6772,6.4447,6.6928,6.7806,6.6519,6.6823,6.736,6.8042,6.9116,6.9847,7.0286,7.165,7.2526,7.2871,7.3259,7.2226,7.0038,7.018,6.9173,0.0,7.1025,7.3863,7.6532,7.9319,8.1739,8.3613,8.3613,8.3613,8.3613,8.3613,8.3613,8.3613,8.3613,8.3857,8.4144,8.4144,8.2832,8.0864,7.864,7.5539,7.3111,7.3997,7.4238,7.4238,7.4238,7.4238,7.4238,7.4238,7.4238,7.4238,7.4238,7.3031,7.1945,7.1582,7.0335,6.9188,6.8826,6.8786,6.8786,6.8786,6.8786,6.8786,6.8786,6.8786,6.8786,6.8786,6.8786,6.8786,6.8786,6.8786,6.8786,6.8786,6.8786,6.8786,6.8786,6.8786,6.8786,6.8786,6.8786,6.8786,6.8786,6.8786,6.8786,5.8376,6.0842,6.2504,6.0249,6.0262,5.9562,5.4854,5.351,5.1804,4.673,4.499,4.5046,4.7102,4.7185,4.9155,5.617,5.6883,5.8107,6.2573,6.4758,6.6075,6.6569,7.0098,7.2679,7.3074,7.0752,6.9217,6.9217,6.7297,6.5607,6.4405,6.613,6.6611,6.5445,6.5695,6.6232,6.6921,6.7994,6.8681,6.9022,7.053,7.1454,7.1798,7.138,7.0132,6.8156,6.7113,6.5821,6.4726,6.7446,7.0911,7.4701,7.7498,8.0594,8.3613,8.3613,8.3613,8.3613,8.3613,8.3613,8.3613,8.3613,8.3613,8.3613,8.3613,8.3613,8.2818,7.9104,7.5409,7.2669,7.3554,7.4037,7.4238,7.4238,7.4238,7.4238,7.4238,7.4238,7.4238,7.4238,7.3232,7.2226,7.1623,7.0536,6.947,6.8867,6.8786,6.8786,6.8786,6.8786,6.8786,6.8786,6.8786,6.8786,6.8786,6.8786,6.8786,6.8786,6.8786,6.8786,6.8786,6.8786,6.8786,6.8786,6.8786,6.8786,6.8786,6.8786,6.8786,6.8786,6.8786,6.8786,6.2431,6.3778,6.4071,6.4597,6.4373,6.2442,5.6701,5.5114,5.3109,4.6938,4.5224,4.5109,4.5951,4.6796,4.8679,5.2429,5.4605,5.8014,6.4376,6.4451,6.5093,6.8564,6.8898,6.9327,7.0478,6.9793,6.9256,6.9217,6.6203,6.4321,6.4321,6.4321,6.4321,6.4321,6.5305,6.589,6.589,6.6872,6.7994,6.8973,6.9022,6.9603,7.0722,6.9675,6.8383,6.6975,6.607,6.4864,6.3822,6.7194,7.0575,7.3968,7.722,8.0539,8.3559,8.3613,8.3613,8.3613,8.3613,8.3613,8.3613,8.3613,8.3613,8.3613,8.3559,8.3559,8.2529,7.754,7.3983,7.1806,7.2629,7.3514,7.4198,7.4198,7.4263,7.4238,7.4238,7.4238,7.4238,7.4238,7.4263,7.3635,7.1864,7.1542,7.0939,6.9068,6.8786,6.8786,6.8786,6.8786,6.8786,6.8786,6.8786,6.8786,6.8786,6.8786,6.8786,6.8786,6.8786,6.8786,6.8786,6.8786,6.8786,6.8786,6.8786,6.8786,6.8786,6.8786,6.8786,6.8786,6.8786,6.8786,6.2804,6.384,6.4208,6.4193,6.4056,6.2352,5.635,5.4879,5.3109,4.6938,4.4978,4.4722,4.5885,4.6542,4.8265,5.2359,5.6004,5.933,6.2413,6.5605,6.7951,6.9016,7.0501,7.1889,7.3074,7.2912,7.1809,6.9412,6.6203,6.4321,6.4321,6.4321,6.4321,6.4321,6.4663,6.481,6.481,6.5842,6.6915,6.7945,6.8632,6.8828,6.8538,6.9008,6.733,6.4082,6.5236,6.4531,6.273,6.4391,6.746,7.1321,7.4083,7.7527,8.1216,8.2966,8.3613,8.3613,8.3613,8.3613,8.3613,8.3613,8.3613,8.3238,8.1492,8.0995,7.9948,7.498,7.3414,7.2841,7.1331,7.2146,7.3272,7.3272,7.3755,7.4238,7.4238,7.4238,7.4238,7.4238,7.3715,7.291,7.1743,7.1019,7.0214,6.8947,6.8786,6.8786,6.8786,6.8786,6.8786,6.8786,6.8786,6.8786,6.8786,6.8786,6.8786,6.8786,6.8786,6.8786,6.8786,6.8786,6.8786,6.8786,6.8786,6.8786,6.8786,6.8786,6.8786,6.8786,6.8786,6.8786,6.2394,6.3392,6.3918,6.3746,6.3809,6.2306,5.6229,5.4842,5.3109,4.6938,4.487,4.4664,4.6567,4.6788,4.8617,5.456,5.8127,6.1628,6.5914,6.8979,7.1175,7.219,7.2824,7.3469,7.4203,7.4259,7.3137,7.0381,6.7216,6.507,6.4363,6.4321,6.4321,6.4321,6.4321,6.4321,6.4321,6.5125,6.6049,6.7084,6.8337,6.8336,6.7317,6.7542,6.5858,6.2833,6.3147,6.2848,6.2273,6.2796,6.5602,6.9687,7.249,7.5929,7.9718,8.2548,8.3613,8.3613,8.3613,8.3613,8.3613,8.3613,8.2911,8.1823,8.0338,7.9221,7.7597,7.3589,7.2904,7.2801,7.0725,7.1019,7.1904,7.2266,7.3031,7.3675,7.3675,7.3956,7.4238,7.4238,7.3795,7.3031,7.1743,7.11,7.0295,6.8987,6.8786,6.8786,6.8786,6.8786,6.8786,6.8786,6.8786,6.8786,6.8786,6.8786,6.8786,6.8786,6.8786,6.8786,6.8786,6.8786,6.8786,6.8786,6.8786,6.8786,6.8786,6.8786,6.8786,6.8786,6.8786,6.8786,6.1597,6.282,6.3429,6.3429,6.3683,6.2306,5.6229,5.4842,5.3109,4.6938,4.487,4.4865,4.7342,4.7494,4.9823,5.7612,6.0746,6.484,7.2429,7.3452,7.4312,7.6469,7.5269,7.4292,7.4259,7.4259,7.3543,7.1847,6.889,6.6417,6.4904,6.4488,6.4321,6.4321,6.4321,6.4321,6.4321,6.4697,6.5397,6.6531,6.7861,6.7891,6.6653,6.5579,6.4166,6.2519,6.0536,6.0557,6.1992,6.2153,6.4573,6.8471,7.1751,7.5144,7.8607,8.1889,8.3353,8.3613,8.3613,8.3613,8.3613,8.3613,8.1877,7.9836,7.9389,7.7654,7.5369,7.2874,7.217,7.185,7.0461,7.0094,7.0295,7.118,7.2105,7.2749,7.2749,7.3393,7.3997,7.4077,7.4117,7.3554,7.1824,7.1542,7.0939,6.9068,6.8786,6.8786,6.8786,6.8786,6.8786,6.8786,6.8786,6.8786,6.8786,6.8786,6.8786,6.8786,6.8786,6.8786,6.8786,6.8786,6.8786,6.8786,6.8786,6.8786,6.8786,6.8786,6.8786,6.8786,6.8786,6.8786,6.1855,6.3267,6.3809,6.3809,6.3871,6.2306,5.6229,5.4842,5.3109,4.6938,4.487,4.43,4.4865,4.8704,5.2645,5.559,6.2848,6.9105,7.1749,7.3791,7.5041,7.5269,7.4803,7.4339,7.4255,7.4259,7.3543,7.1847,6.984,6.8548,6.8153,6.5712,6.4321,6.4321,6.4321,6.4321,6.4321,6.4405,6.5153,6.6481,6.6471,6.6546,6.656,6.447,6.2852,6.1637,6.029,5.9873,6.0316,6.167,6.3206,6.4939,6.8318,7.2081,7.5976,7.8638,8.1268,8.3613,8.3613,8.3613,8.3613,8.3613,8.1877,7.9221,7.5268,7.3706,7.2815,7.0301,6.9585,6.9506,6.9208,6.9068,6.9309,7.0255,7.118,7.1824,7.1824,7.1985,7.2307,7.3031,7.3192,7.283,7.1743,7.1542,7.0939,6.9068,6.8786,6.8786,6.8786,6.8786,6.8786,6.8786,6.8786,6.8786,6.8786,6.8786,6.8786,6.8786,6.8786,6.8786,6.8786,6.8786,6.8786,6.8786,6.8786,6.8786,6.8786,6.8786,6.8786,6.8786,6.8786,6.8786,6.1299,6.2787,6.3493,6.384,6.3918,6.2738,5.8046,5.6922,5.5189,4.9088,4.7009,4.6004,4.5187,4.8885,5.34,5.7503,6.4265,7.0029,7.3223,7.4666,7.509,7.4096,7.4305,7.4171,7.35,7.3921,7.3893,7.3025,7.0612,6.9217,6.9217,6.6122,6.4321,6.4321,6.4321,6.4321,6.4321,6.453,6.5067,6.5986,6.6573,6.6119,6.4784,6.3974,6.2329,6.0006,5.93,5.923,5.9764,6.0638,6.1751,6.3272,6.662,6.9568,7.2356,7.6836,7.9607,8.1425,8.2989,8.3613,8.3613,8.3613,8.1058,7.7654,7.5081,7.2639,7.0438,6.9206,6.8786,6.8786,6.8786,6.8786,6.8907,6.945,6.9872,7.0375,7.0818,7.122,7.1824,7.2709,7.287,7.2588,7.1703,7.1542,7.0939,6.9068,6.8786,6.8786,6.8786,6.8786,6.8786,6.8786,6.8786,6.8786,6.8786,6.8786,6.8786,6.8786,6.8786,6.8786,6.8786,6.8546,6.8365,6.8365,6.8365,6.8365,6.8365,6.8666,6.8786,6.8786,6.8786,6.8786,6.015,6.2005,6.2988,6.3668,6.384,6.3062,5.99,5.9207,5.7629,5.2069,4.9901,4.8638,4.7492,5.0082,5.4458,6.0746,6.6003,7.0889,7.5261,7.5832,7.5166,7.3345,7.3742,7.3754,7.2596,7.3413,7.4033,7.4259,7.1109,6.9217,6.9217,6.6122,6.4321,6.4321,6.4321,6.4363,6.4447,6.478,6.5145,6.568,6.6795,6.581,6.3057,6.3427,6.1809,5.8755,5.8294,5.8586,5.9431,5.9644,6.0517,6.2087,6.518,6.7233,6.9078,7.4752,7.7531,7.8982,8.1739,8.3092,8.3504,8.3075,7.9892,7.6116,7.5714,7.2447,6.8786,6.8786,6.8786,6.8786,6.8786,6.8786,6.8786,6.8786,6.8786,6.8987,6.9751,7.0536,7.1341,7.2266,7.2548,7.2347,7.1462,7.1462,7.0939,6.9068,6.8786,6.8786,6.8786,6.8786,6.8786,6.8786,6.8786,6.8786,6.8786,6.8786,6.8786,6.8786,6.8786,6.8786,6.8786,6.8184,6.7822,6.7822,6.7701,6.764,6.764,6.8305,6.8606,6.8606,6.8726,6.8786,5.8397,6.1228,6.2853,6.3348,6.3461,6.2618,5.9626,5.8922,5.8032,5.4858,5.2195,5.0729,5.1809,5.5402,5.9286,6.274,7.0019,7.5495,7.6242,7.6889,7.6321,7.374,7.3123,7.2783,7.2532,7.2679,7.3187,7.4203,7.1109,6.9217,6.9217,6.6122,6.4321,6.4321,6.4321,6.4488,6.4863,6.4896,6.5351,6.6131,6.5583,6.4914,6.4063,6.1603,6.0211,5.9753,5.795,5.766,5.8545,5.931,5.9793,6.0207,6.2128,6.4734,6.7626,6.9298,7.3559,7.8568,7.9037,8.1111,8.3238,8.1106,7.8501,7.5772,7.3691,7.1032,6.8786,6.8786,6.8786,6.8786,6.8786,6.8786,6.8786,6.8786,6.8786,6.8826,6.8947,6.9068,6.9429,7.0375,7.118,7.1421,7.0536,7.1019,7.0939,6.9068,6.8786,6.8786,6.8786,6.8786,6.8786,6.8786,6.8786,6.8786,6.8786,6.8786,6.8786,6.8786,6.8786,6.8786,6.8786,6.8184,6.7822,6.7822,6.7277,6.7034,6.7034,6.764,6.8003,6.8003,6.8546,6.8786,5.6692,5.9351,6.1091,6.2615,6.3071,6.2712,6.1395,6.1281,6.0574,5.7731,5.6056,5.4621,5.316,5.676,6.0475,6.2074,6.8257,7.3319,7.4774,7.5285,7.4642,7.2436,7.2588,7.2496,7.1491,7.2115,7.3018,7.4146,7.1998,7.0189,6.9256,6.7205,6.5639,6.4697,6.4697,6.478,6.4896,6.4896,6.5227,6.5844,6.5721,6.4935,6.3421,6.1497,5.9836,5.8368,5.7378,5.7177,5.762,5.8505,5.9189,5.9764,6.0517,6.2247,6.4692,6.7027,7.0817,7.5151,7.7657,7.9505,8.0627,8.0094,7.8219,7.5714,7.3283,7.0795,6.8786,6.8786,6.8786,6.8786,6.8786,6.8786,6.8786,6.8786,6.8786,6.8786,6.8786,6.8786,6.8907,6.9309,7.0174,7.0657,7.0255,7.0536,7.0335,6.8987,6.8786,6.8786,6.8786,6.8786,6.8786,6.8786,6.8786,6.8786,6.8786,6.8786,6.8786,6.8786,6.8786,6.8666,6.8305,6.764,6.7095,6.6731,6.4945,6.4761,6.6305,6.58,6.6349,6.7882,6.8485,6.8786,5.4334,5.6963,5.8972,6.1296,6.2279,6.2704,6.2704,6.2922,6.252,6.0373,5.9342,5.8294,5.6187,5.8672,6.1493,6.3164,6.7318,7.1266,7.3645,7.4158,7.3498,7.1467,7.2017,7.1977,7.0279,7.1268,7.2397,7.3243,7.1656,7.0159,6.8989,6.7504,6.6172,6.5103,6.4979,6.4896,6.4896,6.5021,6.5103,6.5186,6.5557,6.4265,6.1513,6.0688,5.8858,5.6391,5.6319,5.6534,5.7016,5.77,5.8505,5.931,5.9551,6.0437,6.1886,6.4893,6.8028,7.1247,7.4789,7.6496,7.735,7.8313,7.7087,7.4908,7.3107,7.0795,6.8786,6.8786,6.8786,6.8786,6.8786,6.8786,6.8786,6.8786,6.8786,6.8786,6.8786,6.8786,6.8786,6.8786,6.9349,6.9933,7.0174,7.0214,6.9892,6.8947,6.8786,6.8786,6.8786,6.8786,6.8786,6.8786,6.8786,6.8786,6.8786,6.8786,6.8786,6.8786,6.8666,6.8365,6.7882,6.7095,6.6061,6.4921,6.269,6.2256,6.353,6.3394,6.4317,6.6388,6.7701,6.8305,5.0785,5.4289,5.7145,5.9027,6.0953,6.2447,6.2447,6.2465,6.25,6.2584,6.1225,6.0821,6.3463,6.3147,6.3836,6.8083,7.0422,7.2273,7.3977,7.4848,7.4407,7.1852,7.1353,7.0618,6.9043,6.9971,7.0669,7.0761,6.8852,6.7788,6.8055,6.5811,6.4821,6.5475,6.5103,6.4896,6.4896,6.531,6.5062,6.4231,6.4273,6.2111,5.816,5.7716,5.643,5.4375,5.4361,5.5359,5.6976,5.7016,5.758,5.8465,5.931,5.9712,6.0046,6.1832,6.4597,6.7606,6.8741,7.108,7.3773,7.4758,7.4004,7.2698,7.2581,7.0795,6.8786,6.8786,6.8786,6.8786,6.8786,6.8786,6.8786,6.8786,6.8786,6.8786,6.8786,6.8786,6.8786,6.8786,6.8826,6.9148,6.9992,7.0214,6.9892,6.8947,6.8786,6.8786,6.8786,6.8786,6.8786,6.8786,6.8786,6.8786,6.8786,6.8786,6.8786,6.8786,6.8244,6.7882,6.7822,6.6609,6.4737,6.2095,6.1287,5.9661,5.7234,6.035,6.1971,6.2219,6.5434,6.6974,4.9254,5.1834,5.4274,5.6863,5.9128,6.0632,6.0632,6.1581,6.2447,6.25,6.2327,6.2359,6.2906,6.381,6.5142,6.7146,6.8203,6.9609,7.2047,7.1888,7.1136,7.0049,6.9916,6.9624,6.8919,6.9192,6.944,6.944,6.8615,6.7953,6.7682,6.6175,6.5377,6.5507,6.5392,6.531,6.531,6.5186,6.4979,6.4647,6.3722,6.1684,5.8734,5.745,5.5957,5.4319,5.4275,5.4595,5.5278,5.6493,5.7177,5.7439,5.7259,5.8177,5.9688,5.9785,6.2532,6.6399,6.7389,6.8875,7.043,7.1382,7.1709,7.1383,6.9849,6.9119,6.8786,6.8786,6.8786,6.8786,6.8786,6.8786,6.8786,6.8786,6.8786,6.8786,6.8786,6.8786,6.8786,6.8786,6.8786,6.8907,6.9228,6.9269,6.9148,6.8826,6.8786,6.8786,6.8786,6.8786,6.8786,6.8786,6.8786,6.8786,6.8786,6.8786,6.8786,6.8786,6.8184,6.764,6.7216,6.6365,6.443,6.1225,5.9221,5.7741,5.6725,5.6629,5.8368,6.1847,6.3456,6.5189,4.6131,4.8568,5.1359,5.3101,5.61,5.8675,5.8847,6.0228,6.1496,6.1496,6.2296,6.3042,6.3024,6.4249,6.5619,6.6576,6.725,6.8487,7.103,7.017,6.9395,6.9696,6.9048,6.8479,6.8196,6.8142,6.8142,6.8142,6.7421,6.6792,6.6467,6.5188,6.4701,6.5244,6.5091,6.5167,6.5516,6.5103,6.4606,6.398,6.2536,6.0825,5.8734,5.6736,5.5338,5.4419,5.4017,5.3951,5.4313,5.5519,5.6413,5.6817,5.5759,5.6912,5.9155,5.836,6.0627,6.4244,6.5217,6.6851,6.8599,6.9181,6.9974,7.0296,6.8765,6.8165,6.8041,6.8323,6.8404,6.8484,6.8706,6.8786,6.8786,6.8786,6.8786,6.8786,6.8786,6.8786,6.8786,6.8786,6.8786,6.8786,6.8786,6.8786,6.8786,6.8786,6.8786,6.8786,6.8786,6.8786,6.8786,6.8786,6.8786,6.8786,6.8786,6.8786,6.8726,6.8485,6.7882,6.7216,6.6609,6.5044,6.2641,5.9249,5.655,5.4551,5.3407,5.2962,5.464,5.821,6.0687,6.2839,4.1541,4.4528,4.8264,4.7456,5.1817,5.643,5.6921,5.8328,5.9485,5.9552,6.1073,6.2751,6.4137,6.4623,6.535,6.6864,6.7986,6.9243,7.1043,7.0003,6.9593,7.084,6.8871,6.7261,6.6885,6.6834,6.6834,6.6834,6.4993,6.407,6.452,6.2659,6.2491,6.4581,6.4163,6.438,6.5416,6.5103,6.4022,6.2158,6.0741,5.926,5.7762,5.5473,5.4423,5.4332,5.3454,5.3522,5.4193,5.4233,5.5278,5.6687,5.5047,5.5997,5.8129,5.7409,5.8744,6.1093,6.1831,6.4723,6.8013,6.8,6.8676,6.948,6.948,6.7988,6.645,6.7336,6.7618,6.7819,6.8605,6.8786,6.8786,6.8786,6.8786,6.8786,6.8786,6.8786,6.8786,6.8786,6.8786,6.8786,6.8786,6.8786,6.8786,6.8786,6.8786,6.8786,6.8786,6.8786,6.8786,6.8786,6.8786,6.8786,6.8786,6.8786,6.8485,6.7842,6.7177,6.6509,6.5861,6.2554,5.9277,5.6037,5.3247,5.0222,4.6883,4.9526,5.0867,5.1084,5.6993,5.9893,4.3629,4.4128,4.4359,4.3786,4.6975,5.0334,5.0639,5.2923,5.5461,5.759,5.9438,6.0737,6.0744,6.2133,6.3539,6.4456,6.5143,6.6456,6.8867,6.8137,6.7561,6.7997,6.7477,6.6992,6.69,6.6077,6.594,6.6778,6.434,6.319,6.407,6.1521,6.0855,6.256,6.3245,6.3669,6.3916,6.4584,6.3812,6.1602,6.0566,5.8777,5.6331,5.502,5.4057,5.3454,5.3178,5.316,5.3442,5.4039,5.4203,5.419,5.4323,5.5287,5.6473,5.6242,5.7395,5.9189,6.0074,6.1453,6.2951,6.3604,6.4924,6.619,6.619,6.628,6.6329,6.6571,6.7134,6.7698,6.79,6.8404,6.8786,6.8786,6.8786,6.8786,6.8786,6.8786,6.8786,6.8786,6.8786,6.8786,6.8786,6.8786,6.8786,6.8786,6.8786,6.8786,6.8786,6.8786,6.8786,6.8786,6.8786,6.8786,6.8786,6.8365,6.7785,6.7069,6.5954,6.4962,6.4225,6.1025,5.7949,5.505,5.2516,4.977,4.6883,4.7611,4.8963,5.0929,5.2669,5.5508,4.1852,4.0485,3.8988,3.8791,4.082,4.3726,4.7047,4.9004,5.1057,5.4518,5.6701,5.8227,5.8951,6.0348,6.1717,6.2418,6.3527,6.5114,6.7255,6.6551,6.6275,6.7467,6.6136,6.497,6.4554,6.4868,6.5376,6.6077,6.3832,6.2663,6.3312,6.0602,5.9686,6.104,6.1681,6.2421,6.335,6.3747,6.2701,6.0262,5.9741,5.7806,5.4652,5.4515,5.392,5.3085,5.3085,5.3085,5.3033,5.286,5.2717,5.2699,5.2898,5.3937,5.5366,5.6029,5.7369,5.8908,5.9028,6.0499,6.2348,6.2472,6.3502,6.4737,6.5108,6.4976,6.4742,6.5523,6.6087,6.6571,6.6973,6.7457,6.776,6.776,6.8041,6.8323,6.8323,6.8605,6.8786,6.8786,6.8786,6.8786,6.8786,6.8786,6.8786,6.8786,6.8786,6.8786,6.8786,6.8786,6.8786,6.8786,6.8786,6.8666,6.8363,6.7965,6.7148,6.5744,6.4996,6.4151,6.3178,5.894,5.5743,5.3911,5.0025,4.7135,4.5345,4.5345,4.6109,4.7718,4.9326,5.1284,3.7069,3.4819,3.3271,3.3034,3.4046,3.6854,0.0,4.48,4.5691,5.0166,5.2721,5.4884,5.7214,5.862,5.9647,6.0325,6.235,6.4335,6.5657,6.5066,6.5307,6.7527,6.4683,6.224,6.1341,6.3312,6.4723,6.4708,6.3135,6.2153,6.1977,5.9741,5.8892,5.979,5.9938,6.0923,6.2924,6.2523,6.0982,5.8511,5.8425,5.6512,5.3085,5.392,5.3828,5.3085,5.3085,5.3085,5.2946,5.1559,5.1312,5.1775,5.146,5.2523,5.4563,5.6179,5.7821,5.9109,5.8385,6.0578,6.3526,6.2934,6.3419,6.4304,6.5102,6.3913,6.2545,6.4089,6.4637,6.5,6.5805,6.6128,6.6289,6.6289,6.6893,6.7457,6.7457,6.8001,6.8545,6.8625,6.8666,6.8726,6.8786,6.8786,6.8786,6.8786,6.8786,6.8786,6.8786,6.8786,6.8746,6.8726,6.8666,6.8363,6.7537,6.7339,6.6351,6.4194,6.3942,6.3282,6.2077,5.6626,5.3339,5.2643,4.7078,4.3869,4.318,4.318,4.318,4.3208,4.6726,4.7263,0.0,0.0,0.0,0.0,0.0,0.0,0.0,3.4119,3.6678,4.249,4.584,4.834,5.0459,5.3903,5.6516,5.6921,5.9175,6.1394,6.2801,6.2918,6.2712,6.2381,6.1748,6.1319,6.1228,6.1702,6.1978,6.1972,6.1255,6.0352,5.9317,5.846,5.8134,5.8341,5.9172,5.9769,6.0248,6.0326,5.9348,5.7311,5.6659,5.5201,5.3085,5.327,5.327,5.3085,5.3085,5.3085,5.3039,5.2761,5.1596,5.0294,5.2672,5.3204,5.2858,5.5024,5.6042,5.6493,5.7057,5.8205,5.9718,6.0994,6.1995,6.2841,6.2958,6.2735,6.2314,6.1884,6.277,6.3841,6.4042,6.5185,6.6289,6.6289,6.6409,6.653,6.653,6.6691,6.7014,6.7738,6.7859,6.8101,6.8666,6.8786,6.8786,6.8786,6.8786,6.8786,6.8786,6.8786,6.8605,6.794,6.7859,6.7497,6.6611,6.56,6.4231,6.2376,6.143,6.0193,5.856,5.5375,5.273,5.0865,4.7633,4.5007,4.318,4.318,4.318,4.318,4.3934,4.3501,0.0,0.0,0.0,0.0,0.0,0.0,0.0,0.0,0.0,0.0,0.0,4.2217,4.5285,0.0,5.2841,5.3975,5.652,5.9054,6.0895,6.1232,6.0867,5.973,5.9204,5.9048,5.9169,5.9909,6.0365,6.0345,5.9931,5.9408,5.8759,5.7659,5.7019,5.7019,5.813,5.8576,5.8194,5.8364,5.7262,5.5007,5.5043,5.4171,5.244,5.2884,5.3085,5.3085,5.3085,5.3085,5.2993,5.2251,5.0758,4.9286,5.2422,5.3021,5.2306,5.4228,5.5198,5.556,5.556,5.6493,5.769,5.8157,5.9236,6.035,6.035,6.035,6.0352,6.0348,6.096,6.1724,6.2207,6.3293,6.4259,6.4259,6.4903,6.5604,6.5604,6.5966,6.6409,6.6852,6.6933,6.7215,6.8101,6.784,6.7679,6.8162,6.784,6.772,6.8162,6.784,6.7036,6.5748,6.5587,6.5426,6.4943,6.388,6.315,6.2868,6.0961,5.918,5.7572,5.3617,5.0983,4.9874,4.5919,4.2996,4.1216,4.1557,4.1387,4.0844,4.1074,4.0562,0.0,0.0,0.0,0.0,0.0,0.0,0.0,0.0,0.0,0.0,0.0,0.0,0.0,0.0,0.0,5.0698,5.3957,5.6937,5.8943,5.9371,5.8996,5.7729,5.7203,5.6923,5.6829,5.8002,5.8627,5.8396,5.8271,5.8087,5.7855,5.6573,5.5897,5.5897,5.7007,5.7178,5.6316,5.6381,5.516,5.2778,5.3364,0.0,5.1468,5.24,5.2757,5.2843,5.3005,5.3085,5.2993,5.1699,5.0434,4.9547,5.1745,5.246,5.2426,5.3566,5.4481,5.5005,5.428,5.4964,5.61,5.5558,5.6466,5.7897,5.801,5.8213,0.0,5.9172,5.9511,5.9885,6.061,6.1362,6.1992,6.1992,6.3092,6.4194,6.4194,6.4879,6.5564,6.5765,6.5926,6.6289,6.7215,6.649,6.6047,6.6772,6.653,6.6409,6.6812,6.653,6.5685,6.4018,6.3801,6.3761,6.3393,6.227,6.1997,6.3077,6.0325,5.7792,5.5757,5.1405,4.8515,4.7445,4.3163,4.0367,3.9115,3.974,3.9566,3.8623,3.7439,3.6693,0.0,0.0,0.0,0.0,0.0,0.0,0.0,0.0,0.0,0.0,0.0,0.0,0.0,0.0,0.0,0.0,5.0916,5.4721,5.6235,5.6446,5.6046,5.5001,5.608,5.6627,5.5691,5.5946,5.5646,5.4438,5.5122,5.5096,5.3972,5.4452,0.0,0.0,0.0,5.5611,5.405,5.4257,5.3498,5.1718,5.1061,5.0722,5.0542,5.1428,5.1831,5.1871,5.2722,5.3085,5.3039,5.29,5.2715,5.2443,5.1372,5.1824,5.2968,5.3113,5.324,5.3321,5.3246,0.0,0.0,5.4302,5.5263,5.6229,5.7025,5.7826,5.8493,5.8487,5.9028,5.9672,5.9845,6.053,6.1174,6.1174,6.1335,6.1496,6.1496,6.2127,6.2917,6.3721,6.4501,6.5362,6.6289,6.5024,6.3922,6.4002,6.5305,6.5765,6.4203,6.5346,6.5886,6.4879,6.4799,0.0,6.2988,6.0678,5.9509,6.0088,5.704,5.3278,4.9085,4.832,4.5539,4.0308,4.0213,3.9655,3.8566,3.9087,3.9314,3.9001,3.1886,2.9667,0.0,0.0,0.0,0.0,0.0,0.0,0.0,0.0,0.0,0.0,0.0,0.0,0.0,0.0,0.0,0.0,4.6156,4.9799,4.9948,5.2079,5.3746,5.403,5.4932,5.506,5.403,5.4932,5.478,5.2874,5.3072,5.2734,5.1488,5.2324,5.2795,5.2795,5.3555,5.3083,5.1413,5.1193,5.0261,4.8594,4.9229,4.9529,4.9613,5.0502,5.0904,5.0945,5.1307,5.175,5.2188,5.1274,5.1775,5.2832,0.0,0.0,0.0,0.0,5.2642,5.3085,5.3085,5.3361,5.3737,5.3678,5.419,5.4807,5.4153,5.4236,5.475,5.5689,5.6252,5.6896,5.8465,5.9551,6.0248,6.0248,6.065,6.1053,6.1053,6.1282,6.1644,6.2006,6.2368,0.0,6.3188,6.3012,6.2957,6.3479,6.4203,6.4621,6.438,6.4581,6.4179,6.2825,6.2664,6.223,6.1286,5.9723,0.0,0.0,0.0,5.3077,5.085,4.8929,0.0,0.0,0.0,3.5789,3.4635,3.3024,0.0,0.0,2.8946,2.7611,0.0,0.0,0.0,0.0,0.0,0.0,0.0,0.0,0.0,0.0,0.0,0.0,0.0,0.0,0.0,0.0,4.0806,4.4589,4.4052,4.7859,5.1071,5.1997,5.3121,5.3178,5.1474,5.2802,5.3028,5.123,5.0995,5.0524,4.9729,5.0259,5.0598,5.0598,5.0936,5.0369,4.8932,4.8479,4.753,4.6112,4.7359,4.7921,4.7961,4.8848,4.9294,4.9294,4.9535,4.9975,5.0534,4.9342,5.0077,5.175,4.9489,4.9167,5.0055,5.0699,5.1549,5.2319,5.2032,5.2148,5.2343,5.179,5.2107,5.2585,5.1629,5.1509,5.2032,5.3476,5.3918,5.4481,5.6936,5.8063,5.8666,5.9201,5.9845,6.0328,6.0328,6.0489,6.0691,6.0691,6.0288,6.0087,6.061,6.0747,6.1008,6.1644,6.2161,6.2653,6.3011,6.3362,6.3077,6.1845,6.1724,6.1334,6.0262,5.8943,5.835,5.8684,5.475,5.2381,5.2509,4.8193,4.4781,4.2508,3.6535,3.2654,0.0,0.0,0.0,0.0,0.0,0.0,0.0,0.0,0.0,0.0,0.0,0.0,0.0,0.0,0.0,0.0,0.0,0.0,0.0,0.0,0.0,0.0,0.0,0.0,3.9658,4.4333,4.7814,4.7797,5.0479,5.1005,4.7547,4.8732,4.9381,4.855,4.8378,4.8353,4.8449,4.8333,4.8337,4.8337,4.8083,4.7567,4.6749,4.649,4.5937,4.5146,4.5226,4.5226,4.5266,4.6152,4.6595,4.6636,4.7399,4.7719,4.7759,4.7717,4.8239,4.9047,4.804,4.8201,4.9047,4.9087,4.9653,5.03,4.9409,4.8522,4.7799,4.7799,4.8401,4.9328,5.0096,5.0985,5.1871,5.2797,5.3125,5.3482,5.5246,5.568,5.6171,5.7942,5.8385,5.8385,5.8385,5.9069,5.9724,5.9724,5.8264,5.766,5.9442,5.8364,5.7258,5.7137,5.8632,0.0,5.8431,6.1379,6.356,6.3479,6.3479,6.262,6.0648,5.8206,5.6643,5.628,5.1773,4.9875,5.1493,4.4303,3.9938,3.9218,3.5036,3.1616,2.9048,0.0,0.0,0.0,0.0,0.0,0.0,0.0,0.0,0.0,0.0,0.0,0.0,0.0,0.0,0.0,0.0,0.0,0.0,0.0,0.0,0.0,0.0,0.0,0.0,4.0036,4.3876,4.482,4.67,4.6624,4.3388,4.5084,4.5507,4.3394,4.4161,4.4734,4.4797,4.4757,4.5073,4.5864,4.4619,4.3823,4.3558,4.3024,4.2634,4.241,4.3617,4.4181,4.4221,4.5146,4.5548,4.5589,4.583,4.6313,4.6836,4.6836,4.5991,4.4625,4.4945,4.5629,4.6474,4.7078,4.748,4.7804,4.8002,4.7879,4.7518,4.7038,4.7038,4.7239,4.6958,4.7522,4.8528,4.9975,5.1267,5.2435,5.3603,5.428,5.4723,5.4811,5.4811,5.4811,5.4811,5.5447,5.6252,5.6855,5.5085,5.3119,5.1901,5.4643,5.5817,5.2325,5.62,5.9023,5.7542,5.9935,6.1516,6.0929,6.1922,6.1877,5.9826,5.8348,5.7134,5.6242,5.2211,4.9556,4.8738,4.4143,4.0471,3.8046,3.6669,3.2597,2.5878,0.0,0.0,0.0,0.0,0.0,0.0,0.0,0.0,0.0,0.0,0.0,0.0,0.0,0.0,0.0,0.0,0.0,0.0,0.0,0.0,0.0,0.0,0.0,0.0,0.0,0.0,4.268,4.3577,0.0,3.9287,4.0771,4.0896,3.8426,3.9575,4.0445,4.0645,4.0681,4.1344,4.2881,4.1325,4.0776,4.139,4.0556,4.0278,4.0564,4.169,4.229,4.233,4.3215,4.3617,4.3617,4.3617,4.398,4.4503,4.4503,4.2933,4.0559,4.1159,4.1561,4.1924,4.3132,4.4018,4.4664,4.5831,4.6474,4.6594,4.575,4.4544,4.3343,4.2591,4.2391,4.2946,4.539,4.7115,4.8803,5.1428,5.2429,5.2872,5.2999,5.3085,5.3085,5.3085,5.324,5.3389,5.3529,5.2361,5.0469,4.7532,4.9819,5.1097,4.8205,5.1611,5.4736,5.5492,5.814,5.9789,5.9211,6.0737,6.0959,5.8964,5.8231,5.7212,5.5444,5.1462,4.8416,4.6493,4.2715,3.905,3.5594,3.5062,3.1232,0.0,0.0,0.0,0.0,0.0,0.0,0.0,0.0,0.0,0.0,0.0,0.0,0.0,0.0,0.0,0.0,0.0,0.0,0.0,0.0,0.0,0.0,0.0,0.0,0.0,0.0,0.0,4.1202,4.1046,0.0,0.0,0.0,0.0,3.3525,3.4552,3.5546,3.612,3.6101,3.7052,3.9186,3.804,3.8249,4.0047,3.8883,3.8702,3.9479,3.9559,3.9599,3.9639,4.0564,4.0966,4.0966,4.0966,4.0966,4.0926,4.0685,3.9151,3.689,3.6882,3.6326,3.5762,3.7534,3.9191,4.077,4.2695,4.3901,4.4424,4.3499,4.0783,3.7745,3.7219,3.6043,0.0,0.0,4.0959,4.2875,4.8361,4.9894,5.0418,5.2274,5.2717,5.2803,5.2803,5.2113,5.1093,4.9526,4.9795,4.9135,4.554,0.0,4.3361,4.4381,4.5007,4.7199,5.2011,5.5986,5.8362,5.8323,5.992,6.0134,5.8076,5.784,5.6682,5.4077,4.9695,4.6511,4.492,4.0036,3.5557,3.1787,3.0309,0.0,0.0,0.0,0.0,0.0,0.0,0.0,0.0,0.0,0.0,0.0,0.0,0.0,0.0,0.0,0.0,0.0,0.0,0.0,0.0,0.0,0.0,0.0,0.0,0.0,0.0,3.3064,3.6004,3.8099,3.5958,3.2576,0.0,0.0,0.0,0.0,0.0,0.0,3.0537,3.0142,3.1064,3.3659,3.3304,3.3578,3.4653,3.5189,3.5892,3.6777,3.8138,3.8782,3.8823,4.0318,4.0645,4.0041,4.0725,4.0645,3.976,3.6432,3.4704,3.4051,3.3466,3.2977,3.2724,3.3743,3.3932,3.4059,3.7042,3.7867,3.7419,3.6514,3.554,3.4323,3.1773,0.0,0.0,0.0,0.0,3.769,4.0947,4.3438,4.551,4.7183,4.8312,4.9007,4.9007,4.9368,4.8116,4.2694,4.1277,3.9022,3.305,3.5241,0.0,3.4421,3.9998,4.5087,4.6755,5.2437,5.613,5.5534,5.8217,5.9371,5.7781,5.6649,5.5592,5.4469,4.9913,4.633,4.4397,3.8279,3.3276,2.9781,0.0,0.0,0.0,0.0,0.0,0.0,0.0,0.0,0.0,0.0,0.0,0.0,0.0,0.0,0.0,0.0,0.0,0.0,0.0,0.0,0.0,0.0,0.0,0.0,0.0,0.0,0.0,2.8568,3.1727,3.3141,3.0492,2.7138,0.0,0.0,0.0,0.0,0.0,0.0,0.0,0.0,0.0,2.7593,2.7441,2.7992,2.9323,3.1214,3.2594,3.3405,3.5624,3.6697,3.6737,3.8105,3.8668,3.8547,3.8668,3.7783,3.6053,3.3569,3.133,2.9457,0.0,0.0,0.0,0.0,2.8327,2.8241,3.1265,3.2116,3.1669,3.0437,0.0,0.0,0.0,0.0,0.0,0.0,0.0,3.351,3.7276,4.0791,4.352,4.4632,4.5586,4.6229,4.6025,4.3794,4.0647,3.6613,3.4888,3.2269,2.6539,2.8373,0.0,0.0,0.0,4.0748,4.3569,4.9543,5.3317,5.2884,5.592,5.7432,5.6005,5.5248,5.4328,5.3011,4.8898,4.4761,4.0724,3.5731,3.0353,0.0,0.0,0.0,0.0,0.0,0.0,0.0,0.0,0.0,0.0,0.0,0.0,0.0,0.0,0.0,0.0,0.0,0.0,0.0,0.0,0.0,0.0,0.0,0.0,0.0,0.0,0.0,0.0,0.0,2.7909,2.7988,0.0,0.0,0.0,0.0,0.0,0.0,0.0,0.0,0.0,0.0,0.0,0.0,0.0,2.2248,2.4105,2.6816,2.8585,2.9389,3.1949,3.3229,3.332,3.4343,3.5369,3.6165,3.4644,0.0,3.1237,3.0661,0.0,0.0,0.0,0.0,0.0,0.0,0.0,0.0,0.0,0.0,0.0,0.0,0.0,0.0,0.0,0.0,0.0,0.0,0.0,0.0,0.0,0.0,4.1509,4.2155,4.2975,4.3248,4.2038,3.658,3.1692,3.0826,2.9524,2.7264,0.0,0.0,0.0,0.0,0.0,0.0,4.1441,4.7091,5.0593,5.0698,5.3642,5.5097,5.3899,5.3865,5.306,5.0973,4.6843,4.1862,3.5929,3.2746,0.0,0.0,0.0,0.0,0.0,0.0,0.0,0.0,0.0,0.0,0.0,0.0,0.0,0.0,0.0,0.0,0.0,0.0,0.0,0.0,0.0,0.0,0.0,0.0,0.0,0.0,0.0,0.0,0.0,0.0,0.0,0.0,0.0,0.0,0.0,0.0,0.0,0.0,0.0,0.0,0.0,0.0,0.0,0.0,0.0,0.0,0.0,0.0,0.0,0.0,2.5792,2.6875,2.7549,2.9108,3.0444,3.1261,2.658,2.5936,2.791,2.4352,0.0,0.0,0.0,0.0,0.0,0.0,0.0,0.0,0.0,0.0,0.0,0.0,0.0,0.0,0.0,0.0,0.0,0.0,0.0,0.0,0.0,0.0,3.2107,3.3605,3.6403,3.7175,3.1522,0.0,0.0,0.0,0.0,0.0,0.0,0.0,0.0,0.0,0.0,0.0,3.8459,4.5337,5.0032,5.0628,5.3107,5.4546,5.4291,5.3264,5.228,5.1411,4.3005,3.6996,0.0,0.0,0.0,0.0,0.0,0.0,0.0,0.0,0.0,0.0,0.0,0.0,0.0,0.0,0.0,0.0,0.0,0.0,0.0,0.0,0.0,0.0,0.0,0.0,0.0,0.0,0.0,0.0,0.0,0.0,0.0,0.0,0.0,0.0,0.0,0.0,0.0,0.0,0.0,0.0,0.0,0.0,0.0,0.0,0.0,0.0,0.0,0.0,0.0,0.0,0.0,0.0,0.0,0.0,0.0,0.0,0.0,0.0,2.3029,2.1424,0.0,0.0,0.0,0.0,0.0,0.0,0.0,0.0,0.0,0.0,0.0,0.0,0.0,0.0,0.0,0.0,0.0,0.0,0.0,0.0,0.0,0.0,0.0,0.0,0.0,0.0,0.0,0.0,0.0,0.0,0.0,0.0,0.0,0.0,0.0,0.0,0.0,0.0,0.0,0.0,3.6101,4.3407,4.8273,4.8291,5.0473,5.1703,5.1234,5.0741,4.9285,4.6426,4.0386,0.0,0.0,0.0,0.0,0.0,0.0,0.0,0.0,0.0,0.0,0.0,0.0,0.0,0.0,0.0,0.0,0.0,0.0,0.0,0.0,0.0,0.0,0.0,0.0,0.0,0.0,0.0,0.0,0.0,0.0,0.0,0.0,0.0,0.0,0.0,0.0,0.0,0.0,0.0,0.0,0.0,0.0,0.0,0.0,0.0,0.0,0.0,0.0,0.0,0.0,0.0,0.0,0.0,0.0,0.0,0.0,0.0,0.0,0.0,1.9857,1.76,0.0,0.0,0.0,0.0,0.0,0.0,0.0,0.0,0.0,0.0,0.0,0.0,0.0,0.0,0.0,0.0,0.0,0.0,0.0,0.0,0.0,0.0,0.0,0.0,0.0,0.0,0.0,0.0,0.0,0.0,0.0,0.0,0.0,0.0,0.0,0.0,0.0,0.0,0.0,0.0,3.4418,4.17,4.6467,4.6086,4.7865,4.8835,4.8257,4.8457,4.6578,4.1797,3.8079,0.0,0.0,0.0,0.0,0.0,0.0,0.0,0.0,0.0,0.0,0.0,0.0,0.0,0.0,0.0,0.0,0.0,0.0,0.0,0.0,0.0,0.0,0.0,0.0,0.0,0.0,0.0,0.0,0.0,0.0,0.0,0.0,0.0,0.0,0.0,0.0,0.0,0.0,0.0,0.0,0.0,0.0,0.0,0.0,0.0,0.0,0.0,0.0,0.0,0.0,0.0,0.0,0.0,0.0,0.0,0.0,0.0,0.0,0.0,0.0,0.0,0.0,0.0,0.0,0.0,0.0,0.0,0.0,0.0,0.0,0.0,0.0,0.0,0.0,0.0,0.0,0.0,0.0,0.0,0.0,0.0,0.0,0.0,0.0,0.0,0.0,0.0,0.0,0.0,0.0,0.0,0.0,0.0,0.0,0.0,0.0,0.0,0.0,0.0,0.0,0.0,3.388,4.0608,4.5369,4.5986,4.6903,4.7629,4.8184,4.8161,4.6305,4.2021,0.0,0.0,0.0,0.0,0.0,0.0,0.0,0.0,0.0,0.0,0.0,0.0,0.0,0.0,0.0,0.0,0.0,0.0,0.0,0.0,0.0,0.0,0.0,0.0,0.0,0.0,0.0,0.0,0.0,0.0,0.0,0.0,0.0,0.0,0.0,0.0,0.0,0.0,0.0,0.0,0.0,0.0,0.0,0.0,0.0,0.0,0.0,0.0,0.0,0.0,0.0,0.0,0.0,0.0,0.0,0.0,0.0,0.0,0.0,0.0,0.0,0.0,0.0,0.0,0.0,0.0,0.0,0.0,0.0,0.0,0.0,0.0,0.0,0.0,0.0,0.0,0.0,0.0,0.0,0.0,0.0,0.0,0.0,0.0,0.0,0.0,0.0,0.0,0.0,0.0,0.0,0.0,0.0,0.0,0.0,0.0,0.0,0.0,0.0,0.0,0.0,0.0,3.1954,3.9333,4.442,4.477,4.5403,4.5764,4.5535,4.6164,4.3544,3.6394,0.0,0.0,0.0,0.0,0.0,0.0,0.0,0.0,0.0,0.0,0.0,0.0,0.0,0.0,0.0,0.0,0.0,0.0,0.0,0.0,0.0,0.0,0.0,0.0,0.0,0.0,0.0,0.0,0.0,0.0,0.0,0.0,0.0,0.0,0.0,0.0,0.0,0.0,0.0,0.0,0.0,0.0,0.0,0.0,0.0,0.0,0.0,0.0,0.0,0.0,0.0,0.0,0.0,0.0,0.0,0.0,0.0,0.0,0.0,0.0,0.0,0.0,0.0,0.0,0.0,0.0,0.0,0.0,0.0,0.0,0.0,0.0,0.0,0.0,0.0,0.0,0.0,0.0,0.0,0.0,0.0,0.0,0.0,0.0,0.0,0.0,0.0,0.0,0.0,0.0,0.0,0.0,0.0,0.0,0.0,0.0,0.0,0.0,0.0,0.0,0.0,0.0,3.0508,3.8006,4.3328,4.3853,4.4153,4.4121,4.3782,4.4355,4.1188,3.2724,0.0,0.0,0.0,0.0,0.0,0.0,0.0,0.0,0.0,0.0,0.0,0.0,0.0,0.0,0.0,0.0,0.0,0.0,0.0,0.0,0.0,0.0,0.0,0.0,0.0,0.0,0.0,0.0,0.0,0.0,0.0,0.0,0.0,0.0,0.0,0.0,0.0,0.0,0.0,0.0,0.0,0.0,0.0,0.0,0.0,0.0,0.0,0.0,0.0,0.0,0.0,0.0,0.0,0.0,0.0,0.0,0.0,0.0,0.0,0.0,0.0,0.0,0.0,0.0,0.0,0.0,0.0,0.0,0.0,0.0,0.0,0.0,0.0,0.0,0.0,0.0,0.0,0.0,0.0,0.0,0.0,0.0,0.0,0.0,0.0,0.0,0.0,0.0,0.0,0.0,0.0,0.0,0.0,0.0,0.0,0.0,0.0,0.0,0.0,0.0,0.0,0.0,2.9875,3.6732,4.1945,4.3738,4.3254,4.3008,4.3678,4.3035,3.9676,0.0,0.0,0.0,0.0,0.0,0.0,0.0,0.0,0.0,0.0,0.0,0.0,0.0,0.0,0.0,0.0,0.0,0.0,0.0,0.0,0.0,0.0,0.0,0.0,0.0,0.0,0.0,0.0,0.0,0.0,0.0,0.0,0.0,0.0,0.0,0.0,0.0,0.0,0.0,0.0,0.0,0.0,0.0,0.0,0.0,0.0,0.0,0.0,0.0,0.0,0.0,0.0,0.0,0.0,0.0,0.0,0.0,0.0,0.0,0.0,0.0,0.0,0.0,0.0,0.0,0.0,0.0,0.0,0.0,0.0,0.0,0.0,0.0,0.0,0.0,0.0,0.0,0.0,0.0,0.0,0.0,0.0,0.0,0.0,0.0,0.0,0.0,0.0,0.0,0.0,0.0,0.0,0.0,0.0,0.0,0.0,0.0,0.0,0.0,0.0,0.0,0.0,0.0,2.8326,3.3898,3.8617,4.1993,4.2573,4.2429,4.1695,4.2215,3.9268,3.149,0.0,0.0,0.0,0.0,0.0,0.0,0.0,0.0,0.0,0.0,0.0,0.0,0.0,0.0,0.0,0.0,0.0,0.0,0.0,0.0,0.0,0.0,0.0,0.0,0.0,0.0,0.0,0.0,0.0,0.0,0.0,0.0,0.0,0.0,0.0,0.0,0.0,0.0,0.0,0.0,0.0,0.0,0.0,0.0,0.0,0.0,0.0,0.0,0.0,0.0,0.0,0.0,0.0,0.0,0.0,0.0,0.0,0.0,0.0,0.0,0.0,0.0,0.0,0.0,0.0,0.0,0.0,0.0,0.0,0.0,0.0,0.0,0.0,0.0,0.0,0.0,0.0,0.0,0.0,0.0,0.0,0.0,0.0,0.0,0.0,0.0,0.0,0.0,0.0,0.0,0.0,0.0,0.0,0.0,0.0,0.0,0.0,0.0,0.0,0.0,0.0,0.0,0.0,3.3071,3.7734,4.1203,4.1807,4.1621,4.0721,4.0847,3.7943,3.0787,0.0,0.0,0.0,0.0,0.0,0.0,0.0,0.0,0.0,0.0,0.0,0.0,0.0,0.0,0.0,0.0,0.0,0.0,0.0,0.0,0.0,0.0,0.0,0.0,0.0,0.0,0.0,0.0,0.0,0.0,0.0,0.0,0.0,0.0,0.0,0.0,0.0,0.0,0.0,0.0,0.0,0.0,0.0,0.0,0.0,0.0,0.0,0.0,0.0,0.0,0.0,0.0,0.0,0.0,0.0,0.0,0.0,0.0,0.0,0.0,0.0,0.0,0.0,0.0,0.0,0.0,0.0,0.0,0.0,0.0,0.0,0.0,0.0,0.0,0.0,0.0,0.0,0.0,0.0,0.0,0.0,0.0,0.0,0.0,0.0,0.0,0.0,0.0,0.0,0.0,0.0,0.0,0.0,0.0,0.0,0.0,0.0,0.0,0.0,0.0,0.0,0.0,0.0,3.3616,3.8364,4.105,4.0942,4.0621,4.0554,3.9255,3.6071,3.0589,2.6808,0.0,0.0,0.0,0.0,0.0,0.0,0.0,0.0,0.0,0.0,0.0,0.0,0.0,0.0,0.0,0.0,0.0,0.0,0.0,0.0,0.0,0.0,0.0,0.0,0.0,0.0,0.0,0.0,0.0,0.0,0.0,0.0,0.0,0.0,0.0,0.0,0.0,0.0,0.0,0.0,0.0,0.0,0.0,0.0,0.0,0.0,0.0,0.0,0.0,0.0,0.0,0.0,0.0,0.0,0.0,0.0,0.0,0.0,0.0,0.0,0.0,0.0,0.0,0.0,0.0,0.0,0.0,0.0,0.0,0.0,0.0,0.0,0.0,0.0,0.0,0.0,0.0,0.0,0.0,0.0,0.0,0.0,0.0,0.0,0.0,0.0,0.0,0.0,0.0,0.0,0.0,0.0,0.0,0.0,0.0,0.0,0.0,0.0,0.0,0.0,0.0,0.0,3.1084,3.4834,3.8499,3.9981,4.0388,3.9821,3.9754,3.6826,3.0018,2.7161,0.0,0.0,0.0,0.0,0.0,0.0,0.0,0.0,0.0,0.0,0.0,0.0,0.0,0.0,0.0,0.0,0.0,0.0,0.0,0.0,0.0,0.0,0.0,0.0,0.0,0.0,0.0,0.0,0.0,0.0,0.0,0.0,0.0,0.0,0.0,0.0,0.0,0.0,0.0,0.0,0.0,0.0,0.0,0.0,0.0,0.0,0.0,0.0,0.0,0.0,0.0,0.0,0.0,0.0,0.0,0.0,0.0,0.0,0.0,0.0,0.0,0.0,0.0,0.0,0.0,0.0,0.0,0.0,0.0,0.0,0.0,0.0,0.0,0.0,0.0,0.0,0.0,0.0,0.0,0.0,0.0,0.0,0.0,0.0,0.0,0.0,0.0,0.0,0.0,0.0,0.0,0.0,0.0,0.0,0.0,0.0,0.0,0.0,0.0,0.0,0.0,0.0,2.659,3.1181,3.7417,3.8885,3.9299,3.8968,3.9396,3.6617,2.9373,2.6955,0.0,0.0,0.0,0.0,0.0,0.0,0.0,0.0,0.0,0.0,0.0,0.0,0.0,0.0,0.0,0.0,0.0,0.0,0.0,0.0,0.0,0.0,0.0,0.0,0.0,0.0,0.0,0.0,0.0,0.0,0.0,0.0,0.0,0.0,0.0,0.0,0.0,0.0,0.0,0.0,0.0,0.0,0.0,0.0,0.0,0.0,0.0,0.0,0.0,0.0,0.0,0.0,0.0,0.0,0.0,0.0,0.0,0.0,0.0,0.0,0.0,0.0,0.0,0.0,0.0,0.0,0.0,0.0,0.0,0.0,0.0,0.0,0.0,0.0,0.0,0.0,0.0,0.0,0.0,0.0,0.0,0.0,0.0,0.0,0.0,0.0,0.0,0.0,0.0,0.0,0.0,0.0,0.0,0.0,0.0,0.0,0.0,0.0,0.0,0.0,0.0,0.0,0.0,2.789,3.5954,3.7565,3.8179,3.8273,3.8836,3.6037,2.8692,0.0,0.0,0.0,0.0,0.0,0.0,0.0,0.0,0.0,0.0,0.0,0.0,0.0,0.0,0.0,0.0,0.0,0.0,0.0,0.0,0.0,0.0,0.0,0.0,0.0,0.0,0.0,0.0,0.0,0.0,0.0,0.0,0.0,0.0,0.0,0.0,0.0,0.0,0.0,0.0,0.0,0.0,0.0,0.0,0.0,0.0,0.0,0.0,0.0,0.0,0.0,0.0,0.0,0.0,0.0,0.0,0.0,0.0,0.0,0.0,0.0,0.0,0.0,0.0,0.0,0.0,0.0,0.0,0.0,0.0,0.0,0.0,0.0,0.0,0.0,0.0,0.0,0.0,0.0,0.0,0.0,0.0,0.0,0.0,0.0,0.0,0.0,0.0,0.0,0.0,0.0,0.0,0.0,0.0,0.0,0.0,0.0,0.0,0.0,0.0,0.0,0.0,0.0,0.0,2.6051,3.0391,3.5214,3.8179,3.8273,3.9093,3.611,2.8071,0.0,0.0,0.0,0.0,0.0,0.0,0.0,0.0,0.0,0.0,0.0,0.0,0.0,0.0]}]]]